<?xml version="1.0" encoding="UTF-8" standalone="no" ?>
<gpx xmlns="http://www.topografix.com/GPX/1/1" xmlns:xsi="http://www.w3.org/2001/XMLSchema-instance" xsi:schemaLocation="http://www.topografix.com/GPX/1/1 http://www.topografix.com/GPX/1/1/gpx.xsd" version="1.1" creator="VisuGPX - https://www.visugpx.com">
  <metadata>
    <name>Cergy - Bords de l'Oise et allée couverte &quot;des Anglais&quot;</name>
  </metadata>
  <trk>
    <name><![CDATA[Cergy - Bords de l'Oise et allée couverte "des Anglais"_1]]></name>
    <trkseg>
      <trkpt lat="49.01422" lon="2.05809">
        <ele>24.4</ele>
        <time>2022-05-31T07:54:34Z</time>
      </trkpt>
      <trkpt lat="49.01419" lon="2.05801">
        <ele>16.2</ele>
        <time>2022-05-31T07:55:15Z</time>
      </trkpt>
      <trkpt lat="49.01416" lon="2.05794">
        <ele>15.5</ele>
        <time>2022-05-31T07:55:20Z</time>
      </trkpt>
      <trkpt lat="49.01413" lon="2.05789">
        <ele>14.5</ele>
        <time>2022-05-31T07:55:23Z</time>
      </trkpt>
      <trkpt lat="49.01409" lon="2.05783">
        <ele>18.2</ele>
        <time>2022-05-31T07:55:27Z</time>
      </trkpt>
      <trkpt lat="49.01406" lon="2.05776">
        <ele>17</ele>
        <time>2022-05-31T07:55:32Z</time>
      </trkpt>
      <trkpt lat="49.01403" lon="2.05769">
        <ele>18.2</ele>
        <time>2022-05-31T07:55:36Z</time>
      </trkpt>
      <trkpt lat="49.01401" lon="2.05763">
        <ele>20.1</ele>
        <time>2022-05-31T07:55:41Z</time>
      </trkpt>
      <trkpt lat="49.014" lon="2.05755">
        <ele>20.6</ele>
        <time>2022-05-31T07:55:45Z</time>
      </trkpt>
      <trkpt lat="49.01401" lon="2.05748">
        <ele>22.5</ele>
        <time>2022-05-31T07:55:50Z</time>
      </trkpt>
      <trkpt lat="49.01406" lon="2.05745">
        <ele>20</ele>
        <time>2022-05-31T07:55:57Z</time>
      </trkpt>
      <trkpt lat="49.01411" lon="2.05745">
        <ele>19</ele>
        <time>2022-05-31T07:56:04Z</time>
      </trkpt>
      <trkpt lat="49.01411" lon="2.05737">
        <ele>19.6</ele>
        <time>2022-05-31T07:56:12Z</time>
      </trkpt>
      <trkpt lat="49.01407" lon="2.05732">
        <ele>22.6</ele>
        <time>2022-05-31T07:56:31Z</time>
      </trkpt>
      <trkpt lat="49.01403" lon="2.05727">
        <ele>23.1</ele>
        <time>2022-05-31T07:56:35Z</time>
      </trkpt>
      <trkpt lat="49.014" lon="2.05722">
        <ele>22.9</ele>
        <time>2022-05-31T07:56:37Z</time>
      </trkpt>
      <trkpt lat="49.01397" lon="2.05716">
        <ele>21</ele>
        <time>2022-05-31T07:56:40Z</time>
      </trkpt>
      <trkpt lat="49.01395" lon="2.05709">
        <ele>20.2</ele>
        <time>2022-05-31T07:56:44Z</time>
      </trkpt>
      <trkpt lat="49.01391" lon="2.05703">
        <ele>21.1</ele>
        <time>2022-05-31T07:56:48Z</time>
      </trkpt>
      <trkpt lat="49.01388" lon="2.05697">
        <ele>21.5</ele>
        <time>2022-05-31T07:56:52Z</time>
      </trkpt>
      <trkpt lat="49.01384" lon="2.0569">
        <ele>21.5</ele>
        <time>2022-05-31T07:56:56Z</time>
      </trkpt>
      <trkpt lat="49.01381" lon="2.05684">
        <ele>22</ele>
        <time>2022-05-31T07:57:00Z</time>
      </trkpt>
      <trkpt lat="49.01378" lon="2.05678">
        <ele>21.2</ele>
        <time>2022-05-31T07:57:03Z</time>
      </trkpt>
      <trkpt lat="49.01376" lon="2.0567">
        <ele>22.1</ele>
        <time>2022-05-31T07:57:07Z</time>
      </trkpt>
      <trkpt lat="49.01372" lon="2.05665">
        <ele>22.4</ele>
        <time>2022-05-31T07:57:11Z</time>
      </trkpt>
      <trkpt lat="49.01369" lon="2.05658">
        <ele>21.4</ele>
        <time>2022-05-31T07:57:15Z</time>
      </trkpt>
      <trkpt lat="49.01366" lon="2.05651">
        <ele>21.3</ele>
        <time>2022-05-31T07:57:20Z</time>
      </trkpt>
      <trkpt lat="49.01362" lon="2.05645">
        <ele>21.4</ele>
        <time>2022-05-31T07:57:24Z</time>
      </trkpt>
      <trkpt lat="49.01359" lon="2.0564">
        <ele>21</ele>
        <time>2022-05-31T07:57:29Z</time>
      </trkpt>
      <trkpt lat="49.01355" lon="2.05633">
        <ele>19.6</ele>
        <time>2022-05-31T07:57:33Z</time>
      </trkpt>
      <trkpt lat="49.0135" lon="2.05627">
        <ele>18.5</ele>
        <time>2022-05-31T07:57:38Z</time>
      </trkpt>
      <trkpt lat="49.01347" lon="2.05622">
        <ele>19.7</ele>
        <time>2022-05-31T07:57:42Z</time>
      </trkpt>
      <trkpt lat="49.01342" lon="2.05617">
        <ele>19.4</ele>
        <time>2022-05-31T07:57:45Z</time>
      </trkpt>
      <trkpt lat="49.01338" lon="2.05612">
        <ele>18.7</ele>
        <time>2022-05-31T07:57:49Z</time>
      </trkpt>
      <trkpt lat="49.01335" lon="2.05605">
        <ele>18</ele>
        <time>2022-05-31T07:57:53Z</time>
      </trkpt>
      <trkpt lat="49.01336" lon="2.05598">
        <ele>18.1</ele>
        <time>2022-05-31T07:57:58Z</time>
      </trkpt>
      <trkpt lat="49.0134" lon="2.05594">
        <ele>17.8</ele>
        <time>2022-05-31T07:58:01Z</time>
      </trkpt>
      <trkpt lat="49.0134" lon="2.05585">
        <ele>15.5</ele>
        <time>2022-05-31T07:58:06Z</time>
      </trkpt>
      <trkpt lat="49.01341" lon="2.05578">
        <ele>16.3</ele>
        <time>2022-05-31T07:58:10Z</time>
      </trkpt>
      <trkpt lat="49.01347" lon="2.05575">
        <ele>14.9</ele>
        <time>2022-05-31T07:58:14Z</time>
      </trkpt>
      <trkpt lat="49.01352" lon="2.05573">
        <ele>15</ele>
        <time>2022-05-31T07:58:18Z</time>
      </trkpt>
      <trkpt lat="49.01357" lon="2.0557">
        <ele>14.4</ele>
        <time>2022-05-31T07:58:22Z</time>
      </trkpt>
      <trkpt lat="49.01362" lon="2.05567">
        <ele>13.6</ele>
        <time>2022-05-31T07:58:26Z</time>
      </trkpt>
      <trkpt lat="49.01367" lon="2.05565">
        <ele>13.1</ele>
        <time>2022-05-31T07:58:30Z</time>
      </trkpt>
      <trkpt lat="49.01372" lon="2.05562">
        <ele>12.2</ele>
        <time>2022-05-31T07:58:35Z</time>
      </trkpt>
      <trkpt lat="49.01375" lon="2.05556">
        <ele>10.5</ele>
        <time>2022-05-31T07:58:39Z</time>
      </trkpt>
      <trkpt lat="49.01381" lon="2.05556">
        <ele>11.8</ele>
        <time>2022-05-31T07:58:43Z</time>
      </trkpt>
      <trkpt lat="49.01384" lon="2.05562">
        <ele>14.5</ele>
        <time>2022-05-31T07:58:47Z</time>
      </trkpt>
      <trkpt lat="49.01387" lon="2.05568">
        <ele>15.4</ele>
        <time>2022-05-31T07:58:52Z</time>
      </trkpt>
      <trkpt lat="49.01391" lon="2.05573">
        <ele>17.2</ele>
        <time>2022-05-31T07:58:56Z</time>
      </trkpt>
      <trkpt lat="49.01394" lon="2.05578">
        <ele>17.8</ele>
        <time>2022-05-31T07:59:00Z</time>
      </trkpt>
      <trkpt lat="49.01398" lon="2.05575">
        <ele>16.1</ele>
        <time>2022-05-31T07:59:03Z</time>
      </trkpt>
      <trkpt lat="49.01401" lon="2.05568">
        <ele>14.9</ele>
        <time>2022-05-31T07:59:06Z</time>
      </trkpt>
      <trkpt lat="49.01403" lon="2.05561">
        <ele>16</ele>
        <time>2022-05-31T07:59:09Z</time>
      </trkpt>
      <trkpt lat="49.01405" lon="2.05555">
        <ele>18.5</ele>
        <time>2022-05-31T07:59:12Z</time>
      </trkpt>
      <trkpt lat="49.01408" lon="2.05548">
        <ele>16.5</ele>
        <time>2022-05-31T07:59:16Z</time>
      </trkpt>
      <trkpt lat="49.01411" lon="2.05542">
        <ele>15.6</ele>
        <time>2022-05-31T07:59:20Z</time>
      </trkpt>
      <trkpt lat="49.01414" lon="2.05535">
        <ele>15.6</ele>
        <time>2022-05-31T07:59:24Z</time>
      </trkpt>
      <trkpt lat="49.01416" lon="2.0553">
        <ele>15.4</ele>
        <time>2022-05-31T07:59:28Z</time>
      </trkpt>
      <trkpt lat="49.01419" lon="2.05524">
        <ele>17</ele>
        <time>2022-05-31T07:59:32Z</time>
      </trkpt>
      <trkpt lat="49.01423" lon="2.05519">
        <ele>17.6</ele>
        <time>2022-05-31T07:59:36Z</time>
      </trkpt>
      <trkpt lat="49.01427" lon="2.05513">
        <ele>17.3</ele>
        <time>2022-05-31T07:59:40Z</time>
      </trkpt>
      <trkpt lat="49.0143" lon="2.05506">
        <ele>17.9</ele>
        <time>2022-05-31T07:59:45Z</time>
      </trkpt>
      <trkpt lat="49.01433" lon="2.05498">
        <ele>18.8</ele>
        <time>2022-05-31T07:59:49Z</time>
      </trkpt>
      <trkpt lat="49.01436" lon="2.05492">
        <ele>20.5</ele>
        <time>2022-05-31T07:59:54Z</time>
      </trkpt>
      <trkpt lat="49.01439" lon="2.05486">
        <ele>20.5</ele>
        <time>2022-05-31T07:59:58Z</time>
      </trkpt>
      <trkpt lat="49.01443" lon="2.05479">
        <ele>20.6</ele>
        <time>2022-05-31T08:00:03Z</time>
      </trkpt>
      <trkpt lat="49.01445" lon="2.05473">
        <ele>18.7</ele>
        <time>2022-05-31T08:00:06Z</time>
      </trkpt>
      <trkpt lat="49.01447" lon="2.05465">
        <ele>17.5</ele>
        <time>2022-05-31T08:00:11Z</time>
      </trkpt>
      <trkpt lat="49.01449" lon="2.05458">
        <ele>16.2</ele>
        <time>2022-05-31T08:00:14Z</time>
      </trkpt>
      <trkpt lat="49.01453" lon="2.05452">
        <ele>16.4</ele>
        <time>2022-05-31T08:00:19Z</time>
      </trkpt>
      <trkpt lat="49.01456" lon="2.05446">
        <ele>16.9</ele>
        <time>2022-05-31T08:00:22Z</time>
      </trkpt>
      <trkpt lat="49.01459" lon="2.0544">
        <ele>18.4</ele>
        <time>2022-05-31T08:00:26Z</time>
      </trkpt>
      <trkpt lat="49.01461" lon="2.05434">
        <ele>20.2</ele>
        <time>2022-05-31T08:00:30Z</time>
      </trkpt>
      <trkpt lat="49.01463" lon="2.05427">
        <ele>19.2</ele>
        <time>2022-05-31T08:00:34Z</time>
      </trkpt>
      <trkpt lat="49.01466" lon="2.0542">
        <ele>18.9</ele>
        <time>2022-05-31T08:00:38Z</time>
      </trkpt>
      <trkpt lat="49.01468" lon="2.05413">
        <ele>18.1</ele>
        <time>2022-05-31T08:00:42Z</time>
      </trkpt>
      <trkpt lat="49.01471" lon="2.05407">
        <ele>17.3</ele>
        <time>2022-05-31T08:00:46Z</time>
      </trkpt>
      <trkpt lat="49.01474" lon="2.054">
        <ele>17.2</ele>
        <time>2022-05-31T08:00:50Z</time>
      </trkpt>
      <trkpt lat="49.01477" lon="2.05392">
        <ele>18.1</ele>
        <time>2022-05-31T08:00:54Z</time>
      </trkpt>
      <trkpt lat="49.0148" lon="2.05387">
        <ele>19.6</ele>
        <time>2022-05-31T08:00:58Z</time>
      </trkpt>
      <trkpt lat="49.01483" lon="2.05381">
        <ele>18.8</ele>
        <time>2022-05-31T08:01:01Z</time>
      </trkpt>
      <trkpt lat="49.01486" lon="2.05375">
        <ele>17.3</ele>
        <time>2022-05-31T08:01:05Z</time>
      </trkpt>
      <trkpt lat="49.01489" lon="2.0537">
        <ele>17.4</ele>
        <time>2022-05-31T08:01:08Z</time>
      </trkpt>
      <trkpt lat="49.01492" lon="2.05363">
        <ele>17.4</ele>
        <time>2022-05-31T08:01:11Z</time>
      </trkpt>
      <trkpt lat="49.01495" lon="2.05356">
        <ele>17.3</ele>
        <time>2022-05-31T08:01:15Z</time>
      </trkpt>
      <trkpt lat="49.01499" lon="2.0535">
        <ele>14.6</ele>
        <time>2022-05-31T08:01:19Z</time>
      </trkpt>
      <trkpt lat="49.01501" lon="2.05344">
        <ele>16</ele>
        <time>2022-05-31T08:01:23Z</time>
      </trkpt>
      <trkpt lat="49.01504" lon="2.05338">
        <ele>15.8</ele>
        <time>2022-05-31T08:01:26Z</time>
      </trkpt>
      <trkpt lat="49.01507" lon="2.05332">
        <ele>14.3</ele>
        <time>2022-05-31T08:01:30Z</time>
      </trkpt>
      <trkpt lat="49.01511" lon="2.05326">
        <ele>14.1</ele>
        <time>2022-05-31T08:01:34Z</time>
      </trkpt>
      <trkpt lat="49.01515" lon="2.05322">
        <ele>12.1</ele>
        <time>2022-05-31T08:01:36Z</time>
      </trkpt>
      <trkpt lat="49.01518" lon="2.05316">
        <ele>13.7</ele>
        <time>2022-05-31T08:01:40Z</time>
      </trkpt>
      <trkpt lat="49.01522" lon="2.0531">
        <ele>14.5</ele>
        <time>2022-05-31T08:01:44Z</time>
      </trkpt>
      <trkpt lat="49.01525" lon="2.05304">
        <ele>13.6</ele>
        <time>2022-05-31T08:01:48Z</time>
      </trkpt>
      <trkpt lat="49.01529" lon="2.05298">
        <ele>12.1</ele>
        <time>2022-05-31T08:01:52Z</time>
      </trkpt>
      <trkpt lat="49.01532" lon="2.05292">
        <ele>10.6</ele>
        <time>2022-05-31T08:01:56Z</time>
      </trkpt>
      <trkpt lat="49.01535" lon="2.05286">
        <ele>12.3</ele>
        <time>2022-05-31T08:02:00Z</time>
      </trkpt>
      <trkpt lat="49.01538" lon="2.05279">
        <ele>15.5</ele>
        <time>2022-05-31T08:02:05Z</time>
      </trkpt>
      <trkpt lat="49.01543" lon="2.05272">
        <ele>16.8</ele>
        <time>2022-05-31T08:02:09Z</time>
      </trkpt>
      <trkpt lat="49.01547" lon="2.05267">
        <ele>15.7</ele>
        <time>2022-05-31T08:02:13Z</time>
      </trkpt>
      <trkpt lat="49.01551" lon="2.05261">
        <ele>14.9</ele>
        <time>2022-05-31T08:02:17Z</time>
      </trkpt>
      <trkpt lat="49.01555" lon="2.05256">
        <ele>15.3</ele>
        <time>2022-05-31T08:02:20Z</time>
      </trkpt>
      <trkpt lat="49.0156" lon="2.05251">
        <ele>17.5</ele>
        <time>2022-05-31T08:02:24Z</time>
      </trkpt>
      <trkpt lat="49.01564" lon="2.05246">
        <ele>19</ele>
        <time>2022-05-31T08:02:28Z</time>
      </trkpt>
      <trkpt lat="49.01568" lon="2.05243">
        <ele>18.2</ele>
        <time>2022-05-31T08:02:32Z</time>
      </trkpt>
      <trkpt lat="49.01573" lon="2.05239">
        <ele>15.6</ele>
        <time>2022-05-31T08:02:36Z</time>
      </trkpt>
      <trkpt lat="49.01576" lon="2.05233">
        <ele>16.3</ele>
        <time>2022-05-31T08:02:39Z</time>
      </trkpt>
      <trkpt lat="49.01579" lon="2.05226">
        <ele>17</ele>
        <time>2022-05-31T08:02:43Z</time>
      </trkpt>
      <trkpt lat="49.01583" lon="2.05221">
        <ele>16.2</ele>
        <time>2022-05-31T08:02:47Z</time>
      </trkpt>
      <trkpt lat="49.01586" lon="2.05216">
        <ele>15.8</ele>
        <time>2022-05-31T08:02:51Z</time>
      </trkpt>
      <trkpt lat="49.0159" lon="2.05211">
        <ele>16</ele>
        <time>2022-05-31T08:02:55Z</time>
      </trkpt>
      <trkpt lat="49.01594" lon="2.05205">
        <ele>16.9</ele>
        <time>2022-05-31T08:02:59Z</time>
      </trkpt>
      <trkpt lat="49.01596" lon="2.05199">
        <ele>16.5</ele>
        <time>2022-05-31T08:03:02Z</time>
      </trkpt>
      <trkpt lat="49.01599" lon="2.05192">
        <ele>16.9</ele>
        <time>2022-05-31T08:03:06Z</time>
      </trkpt>
      <trkpt lat="49.01603" lon="2.05186">
        <ele>17</ele>
        <time>2022-05-31T08:03:11Z</time>
      </trkpt>
      <trkpt lat="49.01607" lon="2.0518">
        <ele>17.4</ele>
        <time>2022-05-31T08:03:15Z</time>
      </trkpt>
      <trkpt lat="49.01612" lon="2.05174">
        <ele>19.2</ele>
        <time>2022-05-31T08:03:20Z</time>
      </trkpt>
      <trkpt lat="49.01616" lon="2.0517">
        <ele>19.5</ele>
        <time>2022-05-31T08:03:24Z</time>
      </trkpt>
      <trkpt lat="49.0162" lon="2.05165">
        <ele>20.6</ele>
        <time>2022-05-31T08:03:27Z</time>
      </trkpt>
      <trkpt lat="49.01624" lon="2.0516">
        <ele>19.5</ele>
        <time>2022-05-31T08:03:31Z</time>
      </trkpt>
      <trkpt lat="49.01628" lon="2.05153">
        <ele>19.4</ele>
        <time>2022-05-31T08:03:36Z</time>
      </trkpt>
      <trkpt lat="49.01633" lon="2.05147">
        <ele>18.4</ele>
        <time>2022-05-31T08:03:40Z</time>
      </trkpt>
      <trkpt lat="49.01635" lon="2.05141">
        <ele>16.9</ele>
        <time>2022-05-31T08:03:44Z</time>
      </trkpt>
      <trkpt lat="49.01639" lon="2.05135">
        <ele>15.4</ele>
        <time>2022-05-31T08:03:47Z</time>
      </trkpt>
      <trkpt lat="49.01642" lon="2.05129">
        <ele>14.3</ele>
        <time>2022-05-31T08:03:51Z</time>
      </trkpt>
      <trkpt lat="49.01646" lon="2.05123">
        <ele>16.3</ele>
        <time>2022-05-31T08:03:55Z</time>
      </trkpt>
      <trkpt lat="49.01649" lon="2.05118">
        <ele>15.3</ele>
        <time>2022-05-31T08:03:58Z</time>
      </trkpt>
      <trkpt lat="49.01651" lon="2.05111">
        <ele>16.2</ele>
        <time>2022-05-31T08:04:02Z</time>
      </trkpt>
      <trkpt lat="49.01652" lon="2.05104">
        <ele>14.2</ele>
        <time>2022-05-31T08:04:05Z</time>
      </trkpt>
      <trkpt lat="49.01655" lon="2.05097">
        <ele>14.3</ele>
        <time>2022-05-31T08:04:10Z</time>
      </trkpt>
      <trkpt lat="49.01658" lon="2.05091">
        <ele>16.6</ele>
        <time>2022-05-31T08:04:14Z</time>
      </trkpt>
      <trkpt lat="49.01661" lon="2.05085">
        <ele>19</ele>
        <time>2022-05-31T08:04:18Z</time>
      </trkpt>
      <trkpt lat="49.01664" lon="2.05078">
        <ele>19</ele>
        <time>2022-05-31T08:04:22Z</time>
      </trkpt>
      <trkpt lat="49.01666" lon="2.0507">
        <ele>21.4</ele>
        <time>2022-05-31T08:04:26Z</time>
      </trkpt>
      <trkpt lat="49.01667" lon="2.05063">
        <ele>21.7</ele>
        <time>2022-05-31T08:04:30Z</time>
      </trkpt>
      <trkpt lat="49.0167" lon="2.05056">
        <ele>21.3</ele>
        <time>2022-05-31T08:04:33Z</time>
      </trkpt>
      <trkpt lat="49.01674" lon="2.05051">
        <ele>21.6</ele>
        <time>2022-05-31T08:04:37Z</time>
      </trkpt>
      <trkpt lat="49.01679" lon="2.05047">
        <ele>23.9</ele>
        <time>2022-05-31T08:04:41Z</time>
      </trkpt>
      <trkpt lat="49.01683" lon="2.05044">
        <ele>24.1</ele>
        <time>2022-05-31T08:04:44Z</time>
      </trkpt>
      <trkpt lat="49.01688" lon="2.05039">
        <ele>24.8</ele>
        <time>2022-05-31T08:04:49Z</time>
      </trkpt>
      <trkpt lat="49.01693" lon="2.05034">
        <ele>24.2</ele>
        <time>2022-05-31T08:04:54Z</time>
      </trkpt>
      <trkpt lat="49.01697" lon="2.05029">
        <ele>23.6</ele>
        <time>2022-05-31T08:04:58Z</time>
      </trkpt>
      <trkpt lat="49.01701" lon="2.05023">
        <ele>22.4</ele>
        <time>2022-05-31T08:05:01Z</time>
      </trkpt>
      <trkpt lat="49.01706" lon="2.0502">
        <ele>19</ele>
        <time>2022-05-31T08:05:05Z</time>
      </trkpt>
      <trkpt lat="49.01711" lon="2.05018">
        <ele>18.9</ele>
        <time>2022-05-31T08:05:09Z</time>
      </trkpt>
      <trkpt lat="49.01715" lon="2.05015">
        <ele>18.3</ele>
        <time>2022-05-31T08:05:12Z</time>
      </trkpt>
      <trkpt lat="49.01718" lon="2.05009">
        <ele>16.6</ele>
        <time>2022-05-31T08:05:16Z</time>
      </trkpt>
      <trkpt lat="49.01722" lon="2.05005">
        <ele>15.1</ele>
        <time>2022-05-31T08:05:19Z</time>
      </trkpt>
      <trkpt lat="49.01725" lon="2.05">
        <ele>12.1</ele>
        <time>2022-05-31T08:05:22Z</time>
      </trkpt>
      <trkpt lat="49.01729" lon="2.04995">
        <ele>13.1</ele>
        <time>2022-05-31T08:05:26Z</time>
      </trkpt>
      <trkpt lat="49.01733" lon="2.04991">
        <ele>11.4</ele>
        <time>2022-05-31T08:05:30Z</time>
      </trkpt>
      <trkpt lat="49.01736" lon="2.04985">
        <ele>12.5</ele>
        <time>2022-05-31T08:05:34Z</time>
      </trkpt>
      <trkpt lat="49.0174" lon="2.04979">
        <ele>13.7</ele>
        <time>2022-05-31T08:05:38Z</time>
      </trkpt>
      <trkpt lat="49.01744" lon="2.04974">
        <ele>14.9</ele>
        <time>2022-05-31T08:05:41Z</time>
      </trkpt>
      <trkpt lat="49.01748" lon="2.0497">
        <ele>12</ele>
        <time>2022-05-31T08:05:45Z</time>
      </trkpt>
      <trkpt lat="49.01752" lon="2.04966">
        <ele>12.6</ele>
        <time>2022-05-31T08:05:50Z</time>
      </trkpt>
      <trkpt lat="49.01753" lon="2.04959">
        <ele>13.8</ele>
        <time>2022-05-31T08:06:16Z</time>
      </trkpt>
      <trkpt lat="49.01756" lon="2.04953">
        <ele>16.6</ele>
        <time>2022-05-31T08:06:20Z</time>
      </trkpt>
      <trkpt lat="49.01759" lon="2.04948">
        <ele>15.6</ele>
        <time>2022-05-31T08:06:23Z</time>
      </trkpt>
      <trkpt lat="49.01763" lon="2.04943">
        <ele>17</ele>
        <time>2022-05-31T08:06:26Z</time>
      </trkpt>
      <trkpt lat="49.01766" lon="2.04938">
        <ele>18.9</ele>
        <time>2022-05-31T08:06:29Z</time>
      </trkpt>
      <trkpt lat="49.0177" lon="2.04934">
        <ele>18.1</ele>
        <time>2022-05-31T08:06:32Z</time>
      </trkpt>
      <trkpt lat="49.01774" lon="2.04928">
        <ele>19.8</ele>
        <time>2022-05-31T08:06:36Z</time>
      </trkpt>
      <trkpt lat="49.01777" lon="2.04922">
        <ele>19.4</ele>
        <time>2022-05-31T08:06:40Z</time>
      </trkpt>
      <trkpt lat="49.0178" lon="2.04915">
        <ele>17.8</ele>
        <time>2022-05-31T08:06:44Z</time>
      </trkpt>
      <trkpt lat="49.01783" lon="2.04909">
        <ele>18.5</ele>
        <time>2022-05-31T08:06:48Z</time>
      </trkpt>
      <trkpt lat="49.01786" lon="2.04902">
        <ele>18.8</ele>
        <time>2022-05-31T08:06:52Z</time>
      </trkpt>
      <trkpt lat="49.01789" lon="2.04895">
        <ele>18.3</ele>
        <time>2022-05-31T08:06:56Z</time>
      </trkpt>
      <trkpt lat="49.01792" lon="2.04889">
        <ele>18.8</ele>
        <time>2022-05-31T08:07:01Z</time>
      </trkpt>
      <trkpt lat="49.01796" lon="2.04882">
        <ele>19.4</ele>
        <time>2022-05-31T08:07:06Z</time>
      </trkpt>
      <trkpt lat="49.01799" lon="2.04875">
        <ele>21.3</ele>
        <time>2022-05-31T08:07:10Z</time>
      </trkpt>
      <trkpt lat="49.01802" lon="2.04868">
        <ele>19.7</ele>
        <time>2022-05-31T08:07:15Z</time>
      </trkpt>
      <trkpt lat="49.01805" lon="2.0486">
        <ele>18.6</ele>
        <time>2022-05-31T08:07:19Z</time>
      </trkpt>
      <trkpt lat="49.01808" lon="2.04854">
        <ele>20.5</ele>
        <time>2022-05-31T08:07:23Z</time>
      </trkpt>
      <trkpt lat="49.0181" lon="2.04846">
        <ele>19</ele>
        <time>2022-05-31T08:07:27Z</time>
      </trkpt>
      <trkpt lat="49.01813" lon="2.04839">
        <ele>17.4</ele>
        <time>2022-05-31T08:07:31Z</time>
      </trkpt>
      <trkpt lat="49.01817" lon="2.04834">
        <ele>16.5</ele>
        <time>2022-05-31T08:07:35Z</time>
      </trkpt>
      <trkpt lat="49.01821" lon="2.04829">
        <ele>15</ele>
        <time>2022-05-31T08:07:38Z</time>
      </trkpt>
      <trkpt lat="49.01825" lon="2.04824">
        <ele>15.9</ele>
        <time>2022-05-31T08:07:43Z</time>
      </trkpt>
      <trkpt lat="49.01828" lon="2.04818">
        <ele>18.4</ele>
        <time>2022-05-31T08:07:48Z</time>
      </trkpt>
      <trkpt lat="49.01834" lon="2.04812">
        <ele>18.8</ele>
        <time>2022-05-31T08:07:53Z</time>
      </trkpt>
      <trkpt lat="49.01839" lon="2.04812">
        <ele>17.7</ele>
        <time>2022-05-31T08:07:57Z</time>
      </trkpt>
      <trkpt lat="49.01844" lon="2.04811">
        <ele>17.4</ele>
        <time>2022-05-31T08:08:01Z</time>
      </trkpt>
      <trkpt lat="49.01849" lon="2.04809">
        <ele>15.8</ele>
        <time>2022-05-31T08:08:05Z</time>
      </trkpt>
      <trkpt lat="49.01853" lon="2.04804">
        <ele>18.3</ele>
        <time>2022-05-31T08:08:08Z</time>
      </trkpt>
      <trkpt lat="49.01857" lon="2.04799">
        <ele>20.7</ele>
        <time>2022-05-31T08:08:12Z</time>
      </trkpt>
      <trkpt lat="49.01862" lon="2.04794">
        <ele>19.2</ele>
        <time>2022-05-31T08:08:16Z</time>
      </trkpt>
      <trkpt lat="49.01866" lon="2.0479">
        <ele>17.9</ele>
        <time>2022-05-31T08:08:20Z</time>
      </trkpt>
      <trkpt lat="49.01871" lon="2.04785">
        <ele>19.8</ele>
        <time>2022-05-31T08:08:24Z</time>
      </trkpt>
      <trkpt lat="49.01874" lon="2.0478">
        <ele>17.7</ele>
        <time>2022-05-31T08:08:28Z</time>
      </trkpt>
      <trkpt lat="49.01878" lon="2.04776">
        <ele>15.3</ele>
        <time>2022-05-31T08:08:31Z</time>
      </trkpt>
      <trkpt lat="49.01881" lon="2.0477">
        <ele>13.3</ele>
        <time>2022-05-31T08:08:35Z</time>
      </trkpt>
      <trkpt lat="49.01884" lon="2.04763">
        <ele>12.7</ele>
        <time>2022-05-31T08:08:38Z</time>
      </trkpt>
      <trkpt lat="49.01886" lon="2.04757">
        <ele>13.6</ele>
        <time>2022-05-31T08:08:41Z</time>
      </trkpt>
      <trkpt lat="49.0189" lon="2.04752">
        <ele>14.6</ele>
        <time>2022-05-31T08:08:45Z</time>
      </trkpt>
      <trkpt lat="49.01894" lon="2.04746">
        <ele>15.6</ele>
        <time>2022-05-31T08:08:48Z</time>
      </trkpt>
      <trkpt lat="49.01899" lon="2.04741">
        <ele>14.8</ele>
        <time>2022-05-31T08:08:52Z</time>
      </trkpt>
      <trkpt lat="49.01903" lon="2.04737">
        <ele>15.5</ele>
        <time>2022-05-31T08:08:56Z</time>
      </trkpt>
      <trkpt lat="49.01907" lon="2.04732">
        <ele>13.3</ele>
        <time>2022-05-31T08:09:00Z</time>
      </trkpt>
      <trkpt lat="49.01911" lon="2.04728">
        <ele>13.3</ele>
        <time>2022-05-31T08:09:04Z</time>
      </trkpt>
      <trkpt lat="49.01915" lon="2.04723">
        <ele>14.7</ele>
        <time>2022-05-31T08:09:08Z</time>
      </trkpt>
      <trkpt lat="49.01921" lon="2.0472">
        <ele>12.5</ele>
        <time>2022-05-31T08:09:13Z</time>
      </trkpt>
      <trkpt lat="49.01925" lon="2.04715">
        <ele>13.7</ele>
        <time>2022-05-31T08:09:17Z</time>
      </trkpt>
      <trkpt lat="49.0193" lon="2.04711">
        <ele>13.2</ele>
        <time>2022-05-31T08:09:22Z</time>
      </trkpt>
      <trkpt lat="49.01935" lon="2.04709">
        <ele>14.7</ele>
        <time>2022-05-31T08:09:25Z</time>
      </trkpt>
      <trkpt lat="49.01938" lon="2.04705">
        <ele>14.8</ele>
        <time>2022-05-31T08:09:29Z</time>
      </trkpt>
      <trkpt lat="49.01941" lon="2.04697">
        <ele>14.5</ele>
        <time>2022-05-31T08:09:33Z</time>
      </trkpt>
      <trkpt lat="49.01944" lon="2.0469">
        <ele>13.7</ele>
        <time>2022-05-31T08:09:38Z</time>
      </trkpt>
      <trkpt lat="49.01938" lon="2.04689">
        <ele>15.5</ele>
        <time>2022-05-31T08:09:43Z</time>
      </trkpt>
      <trkpt lat="49.01933" lon="2.04687">
        <ele>14.8</ele>
        <time>2022-05-31T08:10:29Z</time>
      </trkpt>
      <trkpt lat="49.01935" lon="2.04679">
        <ele>15.5</ele>
        <time>2022-05-31T08:10:31Z</time>
      </trkpt>
      <trkpt lat="49.0194" lon="2.04677">
        <ele>14.5</ele>
        <time>2022-05-31T08:10:35Z</time>
      </trkpt>
      <trkpt lat="49.01946" lon="2.04674">
        <ele>13.6</ele>
        <time>2022-05-31T08:10:39Z</time>
      </trkpt>
      <trkpt lat="49.0195" lon="2.0467">
        <ele>14.9</ele>
        <time>2022-05-31T08:10:42Z</time>
      </trkpt>
      <trkpt lat="49.01954" lon="2.04667">
        <ele>11.7</ele>
        <time>2022-05-31T08:10:45Z</time>
      </trkpt>
      <trkpt lat="49.01959" lon="2.04661">
        <ele>14.5</ele>
        <time>2022-05-31T08:10:49Z</time>
      </trkpt>
      <trkpt lat="49.01963" lon="2.04655">
        <ele>17.7</ele>
        <time>2022-05-31T08:10:52Z</time>
      </trkpt>
      <trkpt lat="49.01967" lon="2.0465">
        <ele>16</ele>
        <time>2022-05-31T08:10:56Z</time>
      </trkpt>
      <trkpt lat="49.01971" lon="2.04644">
        <ele>16.4</ele>
        <time>2022-05-31T08:11:01Z</time>
      </trkpt>
      <trkpt lat="49.01974" lon="2.04638">
        <ele>14.5</ele>
        <time>2022-05-31T08:11:05Z</time>
      </trkpt>
      <trkpt lat="49.01979" lon="2.04637">
        <ele>13.4</ele>
        <time>2022-05-31T08:11:09Z</time>
      </trkpt>
      <trkpt lat="49.01985" lon="2.04635">
        <ele>13.5</ele>
        <time>2022-05-31T08:11:13Z</time>
      </trkpt>
      <trkpt lat="49.01989" lon="2.0463">
        <ele>13.1</ele>
        <time>2022-05-31T08:11:17Z</time>
      </trkpt>
      <trkpt lat="49.01993" lon="2.04624">
        <ele>12.5</ele>
        <time>2022-05-31T08:11:21Z</time>
      </trkpt>
      <trkpt lat="49.01997" lon="2.04619">
        <ele>13.8</ele>
        <time>2022-05-31T08:11:25Z</time>
      </trkpt>
      <trkpt lat="49.02002" lon="2.04615">
        <ele>12.9</ele>
        <time>2022-05-31T08:11:30Z</time>
      </trkpt>
      <trkpt lat="49.02006" lon="2.04611">
        <ele>12.9</ele>
        <time>2022-05-31T08:11:34Z</time>
      </trkpt>
      <trkpt lat="49.02012" lon="2.04607">
        <ele>10.3</ele>
        <time>2022-05-31T08:11:39Z</time>
      </trkpt>
      <trkpt lat="49.02017" lon="2.04603">
        <ele>9.5</ele>
        <time>2022-05-31T08:11:43Z</time>
      </trkpt>
      <trkpt lat="49.02021" lon="2.04599">
        <ele>9.2</ele>
        <time>2022-05-31T08:11:48Z</time>
      </trkpt>
      <trkpt lat="49.02026" lon="2.04595">
        <ele>10.1</ele>
        <time>2022-05-31T08:11:52Z</time>
      </trkpt>
      <trkpt lat="49.0203" lon="2.04592">
        <ele>10.7</ele>
        <time>2022-05-31T08:11:56Z</time>
      </trkpt>
      <trkpt lat="49.02035" lon="2.04588">
        <ele>12.8</ele>
        <time>2022-05-31T08:12:00Z</time>
      </trkpt>
      <trkpt lat="49.02039" lon="2.04583">
        <ele>12</ele>
        <time>2022-05-31T08:12:04Z</time>
      </trkpt>
      <trkpt lat="49.02043" lon="2.04579">
        <ele>12.9</ele>
        <time>2022-05-31T08:12:07Z</time>
      </trkpt>
      <trkpt lat="49.02048" lon="2.04575">
        <ele>13.6</ele>
        <time>2022-05-31T08:12:10Z</time>
      </trkpt>
      <trkpt lat="49.02052" lon="2.04571">
        <ele>13.6</ele>
        <time>2022-05-31T08:12:14Z</time>
      </trkpt>
      <trkpt lat="49.02056" lon="2.04567">
        <ele>13.6</ele>
        <time>2022-05-31T08:12:18Z</time>
      </trkpt>
      <trkpt lat="49.0206" lon="2.04563">
        <ele>13.9</ele>
        <time>2022-05-31T08:12:22Z</time>
      </trkpt>
      <trkpt lat="49.02064" lon="2.04557">
        <ele>15.1</ele>
        <time>2022-05-31T08:12:26Z</time>
      </trkpt>
      <trkpt lat="49.02067" lon="2.04549">
        <ele>17.7</ele>
        <time>2022-05-31T08:12:30Z</time>
      </trkpt>
      <trkpt lat="49.0207" lon="2.04542">
        <ele>16.7</ele>
        <time>2022-05-31T08:12:34Z</time>
      </trkpt>
      <trkpt lat="49.02075" lon="2.04538">
        <ele>17.6</ele>
        <time>2022-05-31T08:12:38Z</time>
      </trkpt>
      <trkpt lat="49.02079" lon="2.04533">
        <ele>18.1</ele>
        <time>2022-05-31T08:12:42Z</time>
      </trkpt>
      <trkpt lat="49.02084" lon="2.04527">
        <ele>19.6</ele>
        <time>2022-05-31T08:12:46Z</time>
      </trkpt>
      <trkpt lat="49.02087" lon="2.04523">
        <ele>19.7</ele>
        <time>2022-05-31T08:12:50Z</time>
      </trkpt>
      <trkpt lat="49.02092" lon="2.04518">
        <ele>19.7</ele>
        <time>2022-05-31T08:12:54Z</time>
      </trkpt>
      <trkpt lat="49.02096" lon="2.04513">
        <ele>18.1</ele>
        <time>2022-05-31T08:12:58Z</time>
      </trkpt>
      <trkpt lat="49.02099" lon="2.04507">
        <ele>17</ele>
        <time>2022-05-31T08:13:02Z</time>
      </trkpt>
      <trkpt lat="49.02102" lon="2.04502">
        <ele>15</ele>
        <time>2022-05-31T08:13:06Z</time>
      </trkpt>
      <trkpt lat="49.02107" lon="2.04498">
        <ele>14.5</ele>
        <time>2022-05-31T08:13:09Z</time>
      </trkpt>
      <trkpt lat="49.02111" lon="2.04496">
        <ele>13</ele>
        <time>2022-05-31T08:13:13Z</time>
      </trkpt>
      <trkpt lat="49.02115" lon="2.04491">
        <ele>13.1</ele>
        <time>2022-05-31T08:13:17Z</time>
      </trkpt>
      <trkpt lat="49.0212" lon="2.04485">
        <ele>11.1</ele>
        <time>2022-05-31T08:13:22Z</time>
      </trkpt>
      <trkpt lat="49.02124" lon="2.0448">
        <ele>11.9</ele>
        <time>2022-05-31T08:13:26Z</time>
      </trkpt>
      <trkpt lat="49.02127" lon="2.04475">
        <ele>12.6</ele>
        <time>2022-05-31T08:13:29Z</time>
      </trkpt>
      <trkpt lat="49.02131" lon="2.0447">
        <ele>14.2</ele>
        <time>2022-05-31T08:13:33Z</time>
      </trkpt>
      <trkpt lat="49.02134" lon="2.04462">
        <ele>14.7</ele>
        <time>2022-05-31T08:13:37Z</time>
      </trkpt>
      <trkpt lat="49.02136" lon="2.04455">
        <ele>14.2</ele>
        <time>2022-05-31T08:13:41Z</time>
      </trkpt>
      <trkpt lat="49.02139" lon="2.04448">
        <ele>15.3</ele>
        <time>2022-05-31T08:13:45Z</time>
      </trkpt>
      <trkpt lat="49.02142" lon="2.04443">
        <ele>15.1</ele>
        <time>2022-05-31T08:13:49Z</time>
      </trkpt>
      <trkpt lat="49.02146" lon="2.04437">
        <ele>15.9</ele>
        <time>2022-05-31T08:13:53Z</time>
      </trkpt>
      <trkpt lat="49.02149" lon="2.04431">
        <ele>16.3</ele>
        <time>2022-05-31T08:13:57Z</time>
      </trkpt>
      <trkpt lat="49.02152" lon="2.04426">
        <ele>15.3</ele>
        <time>2022-05-31T08:14:01Z</time>
      </trkpt>
      <trkpt lat="49.02156" lon="2.0442">
        <ele>15.2</ele>
        <time>2022-05-31T08:14:05Z</time>
      </trkpt>
      <trkpt lat="49.0216" lon="2.04414">
        <ele>15.3</ele>
        <time>2022-05-31T08:14:10Z</time>
      </trkpt>
      <trkpt lat="49.02164" lon="2.04408">
        <ele>15.1</ele>
        <time>2022-05-31T08:14:14Z</time>
      </trkpt>
      <trkpt lat="49.02166" lon="2.04401">
        <ele>15.8</ele>
        <time>2022-05-31T08:14:18Z</time>
      </trkpt>
      <trkpt lat="49.02167" lon="2.04395">
        <ele>14.5</ele>
        <time>2022-05-31T08:14:21Z</time>
      </trkpt>
      <trkpt lat="49.02169" lon="2.04388">
        <ele>14.2</ele>
        <time>2022-05-31T08:14:25Z</time>
      </trkpt>
      <trkpt lat="49.02172" lon="2.0438">
        <ele>12.8</ele>
        <time>2022-05-31T08:14:29Z</time>
      </trkpt>
      <trkpt lat="49.02176" lon="2.04374">
        <ele>12.8</ele>
        <time>2022-05-31T08:14:32Z</time>
      </trkpt>
      <trkpt lat="49.02178" lon="2.04368">
        <ele>13.5</ele>
        <time>2022-05-31T08:14:36Z</time>
      </trkpt>
      <trkpt lat="49.02181" lon="2.04362">
        <ele>13.2</ele>
        <time>2022-05-31T08:14:40Z</time>
      </trkpt>
      <trkpt lat="49.02184" lon="2.04356">
        <ele>12.5</ele>
        <time>2022-05-31T08:14:45Z</time>
      </trkpt>
      <trkpt lat="49.02188" lon="2.0435">
        <ele>13.4</ele>
        <time>2022-05-31T08:14:50Z</time>
      </trkpt>
      <trkpt lat="49.02192" lon="2.04345">
        <ele>14.2</ele>
        <time>2022-05-31T08:14:53Z</time>
      </trkpt>
      <trkpt lat="49.02194" lon="2.04338">
        <ele>13.6</ele>
        <time>2022-05-31T08:14:57Z</time>
      </trkpt>
      <trkpt lat="49.02197" lon="2.04331">
        <ele>12.7</ele>
        <time>2022-05-31T08:15:01Z</time>
      </trkpt>
      <trkpt lat="49.022" lon="2.04324">
        <ele>15.5</ele>
        <time>2022-05-31T08:15:05Z</time>
      </trkpt>
      <trkpt lat="49.02203" lon="2.04316">
        <ele>17.3</ele>
        <time>2022-05-31T08:15:09Z</time>
      </trkpt>
      <trkpt lat="49.02206" lon="2.04309">
        <ele>17.6</ele>
        <time>2022-05-31T08:15:13Z</time>
      </trkpt>
      <trkpt lat="49.02209" lon="2.04304">
        <ele>18.4</ele>
        <time>2022-05-31T08:15:16Z</time>
      </trkpt>
      <trkpt lat="49.02213" lon="2.04299">
        <ele>18.8</ele>
        <time>2022-05-31T08:15:20Z</time>
      </trkpt>
      <trkpt lat="49.02216" lon="2.04294">
        <ele>20.2</ele>
        <time>2022-05-31T08:15:23Z</time>
      </trkpt>
      <trkpt lat="49.0222" lon="2.0429">
        <ele>21.7</ele>
        <time>2022-05-31T08:15:27Z</time>
      </trkpt>
      <trkpt lat="49.02224" lon="2.04285">
        <ele>20.6</ele>
        <time>2022-05-31T08:15:31Z</time>
      </trkpt>
      <trkpt lat="49.02228" lon="2.04281">
        <ele>21.1</ele>
        <time>2022-05-31T08:15:34Z</time>
      </trkpt>
      <trkpt lat="49.02232" lon="2.04277">
        <ele>21.5</ele>
        <time>2022-05-31T08:15:37Z</time>
      </trkpt>
      <trkpt lat="49.02236" lon="2.04273">
        <ele>22.5</ele>
        <time>2022-05-31T08:15:41Z</time>
      </trkpt>
      <trkpt lat="49.02241" lon="2.0427">
        <ele>20.5</ele>
        <time>2022-05-31T08:15:45Z</time>
      </trkpt>
      <trkpt lat="49.02246" lon="2.04266">
        <ele>18.4</ele>
        <time>2022-05-31T08:15:50Z</time>
      </trkpt>
      <trkpt lat="49.0225" lon="2.0426">
        <ele>17.7</ele>
        <time>2022-05-31T08:15:54Z</time>
      </trkpt>
      <trkpt lat="49.02253" lon="2.04256">
        <ele>18.4</ele>
        <time>2022-05-31T08:15:58Z</time>
      </trkpt>
      <trkpt lat="49.02257" lon="2.04252">
        <ele>18</ele>
        <time>2022-05-31T08:16:01Z</time>
      </trkpt>
      <trkpt lat="49.0226" lon="2.04247">
        <ele>16.4</ele>
        <time>2022-05-31T08:16:05Z</time>
      </trkpt>
      <trkpt lat="49.02263" lon="2.04241">
        <ele>17.6</ele>
        <time>2022-05-31T08:16:09Z</time>
      </trkpt>
      <trkpt lat="49.02266" lon="2.04234">
        <ele>18.3</ele>
        <time>2022-05-31T08:16:12Z</time>
      </trkpt>
      <trkpt lat="49.02269" lon="2.04228">
        <ele>17.8</ele>
        <time>2022-05-31T08:16:16Z</time>
      </trkpt>
      <trkpt lat="49.02274" lon="2.04225">
        <ele>17.9</ele>
        <time>2022-05-31T08:16:20Z</time>
      </trkpt>
      <trkpt lat="49.02279" lon="2.04222">
        <ele>17.2</ele>
        <time>2022-05-31T08:16:24Z</time>
      </trkpt>
      <trkpt lat="49.02283" lon="2.04218">
        <ele>14.4</ele>
        <time>2022-05-31T08:16:27Z</time>
      </trkpt>
      <trkpt lat="49.02286" lon="2.04213">
        <ele>15.5</ele>
        <time>2022-05-31T08:16:31Z</time>
      </trkpt>
      <trkpt lat="49.0229" lon="2.04208">
        <ele>18.7</ele>
        <time>2022-05-31T08:16:34Z</time>
      </trkpt>
      <trkpt lat="49.02293" lon="2.04204">
        <ele>17.1</ele>
        <time>2022-05-31T08:16:38Z</time>
      </trkpt>
      <trkpt lat="49.02298" lon="2.04201">
        <ele>16.2</ele>
        <time>2022-05-31T08:16:42Z</time>
      </trkpt>
      <trkpt lat="49.02303" lon="2.04197">
        <ele>16.5</ele>
        <time>2022-05-31T08:16:46Z</time>
      </trkpt>
      <trkpt lat="49.02308" lon="2.04194">
        <ele>16.3</ele>
        <time>2022-05-31T08:16:51Z</time>
      </trkpt>
      <trkpt lat="49.02313" lon="2.04192">
        <ele>15.2</ele>
        <time>2022-05-31T08:16:55Z</time>
      </trkpt>
      <trkpt lat="49.02316" lon="2.04187">
        <ele>17.1</ele>
        <time>2022-05-31T08:17:00Z</time>
      </trkpt>
      <trkpt lat="49.02321" lon="2.04183">
        <ele>17.4</ele>
        <time>2022-05-31T08:17:06Z</time>
      </trkpt>
      <trkpt lat="49.02325" lon="2.04178">
        <ele>17.4</ele>
        <time>2022-05-31T08:17:13Z</time>
      </trkpt>
      <trkpt lat="49.02329" lon="2.04172">
        <ele>15.5</ele>
        <time>2022-05-31T08:17:19Z</time>
      </trkpt>
      <trkpt lat="49.02333" lon="2.04173">
        <ele>16.4</ele>
        <time>2022-05-31T08:17:24Z</time>
      </trkpt>
      <trkpt lat="49.02339" lon="2.04172">
        <ele>16.6</ele>
        <time>2022-05-31T08:17:29Z</time>
      </trkpt>
      <trkpt lat="49.02343" lon="2.04169">
        <ele>16.8</ele>
        <time>2022-05-31T08:17:33Z</time>
      </trkpt>
      <trkpt lat="49.02347" lon="2.04165">
        <ele>16.3</ele>
        <time>2022-05-31T08:17:38Z</time>
      </trkpt>
      <trkpt lat="49.02352" lon="2.04163">
        <ele>16.3</ele>
        <time>2022-05-31T08:17:43Z</time>
      </trkpt>
      <trkpt lat="49.02353" lon="2.0417">
        <ele>16.8</ele>
        <time>2022-05-31T08:17:53Z</time>
      </trkpt>
      <trkpt lat="49.02359" lon="2.04167">
        <ele>16.2</ele>
        <time>2022-05-31T08:17:57Z</time>
      </trkpt>
      <trkpt lat="49.02364" lon="2.04164">
        <ele>16.8</ele>
        <time>2022-05-31T08:18:01Z</time>
      </trkpt>
      <trkpt lat="49.0237" lon="2.04161">
        <ele>14.2</ele>
        <time>2022-05-31T08:18:06Z</time>
      </trkpt>
      <trkpt lat="49.02375" lon="2.04159">
        <ele>12.5</ele>
        <time>2022-05-31T08:18:10Z</time>
      </trkpt>
      <trkpt lat="49.0238" lon="2.04157">
        <ele>14.6</ele>
        <time>2022-05-31T08:18:14Z</time>
      </trkpt>
      <trkpt lat="49.02385" lon="2.04153">
        <ele>13.6</ele>
        <time>2022-05-31T08:18:18Z</time>
      </trkpt>
      <trkpt lat="49.02389" lon="2.04148">
        <ele>15.1</ele>
        <time>2022-05-31T08:18:23Z</time>
      </trkpt>
      <trkpt lat="49.02393" lon="2.04145">
        <ele>15.9</ele>
        <time>2022-05-31T08:18:27Z</time>
      </trkpt>
      <trkpt lat="49.02398" lon="2.04142">
        <ele>16.1</ele>
        <time>2022-05-31T08:18:31Z</time>
      </trkpt>
      <trkpt lat="49.02403" lon="2.04139">
        <ele>15.5</ele>
        <time>2022-05-31T08:18:35Z</time>
      </trkpt>
      <trkpt lat="49.02408" lon="2.04136">
        <ele>16.9</ele>
        <time>2022-05-31T08:18:39Z</time>
      </trkpt>
      <trkpt lat="49.02412" lon="2.04132">
        <ele>16.3</ele>
        <time>2022-05-31T08:18:43Z</time>
      </trkpt>
      <trkpt lat="49.02416" lon="2.04127">
        <ele>15.9</ele>
        <time>2022-05-31T08:18:47Z</time>
      </trkpt>
      <trkpt lat="49.02421" lon="2.04123">
        <ele>15.7</ele>
        <time>2022-05-31T08:18:52Z</time>
      </trkpt>
      <trkpt lat="49.02425" lon="2.04118">
        <ele>15.4</ele>
        <time>2022-05-31T08:18:56Z</time>
      </trkpt>
      <trkpt lat="49.02431" lon="2.04116">
        <ele>16.6</ele>
        <time>2022-05-31T08:19:01Z</time>
      </trkpt>
      <trkpt lat="49.02436" lon="2.04114">
        <ele>16.5</ele>
        <time>2022-05-31T08:19:05Z</time>
      </trkpt>
      <trkpt lat="49.0244" lon="2.04112">
        <ele>16.5</ele>
        <time>2022-05-31T08:19:09Z</time>
      </trkpt>
      <trkpt lat="49.02445" lon="2.04108">
        <ele>17.2</ele>
        <time>2022-05-31T08:19:14Z</time>
      </trkpt>
      <trkpt lat="49.0245" lon="2.04107">
        <ele>16.4</ele>
        <time>2022-05-31T08:19:19Z</time>
      </trkpt>
      <trkpt lat="49.02454" lon="2.04104">
        <ele>16.2</ele>
        <time>2022-05-31T08:19:23Z</time>
      </trkpt>
      <trkpt lat="49.02458" lon="2.041">
        <ele>16.9</ele>
        <time>2022-05-31T08:19:27Z</time>
      </trkpt>
      <trkpt lat="49.02462" lon="2.04095">
        <ele>16.4</ele>
        <time>2022-05-31T08:19:32Z</time>
      </trkpt>
      <trkpt lat="49.02467" lon="2.04093">
        <ele>16.1</ele>
        <time>2022-05-31T08:19:36Z</time>
      </trkpt>
      <trkpt lat="49.02471" lon="2.04088">
        <ele>15.3</ele>
        <time>2022-05-31T08:19:41Z</time>
      </trkpt>
      <trkpt lat="49.02476" lon="2.04084">
        <ele>15.5</ele>
        <time>2022-05-31T08:19:45Z</time>
      </trkpt>
      <trkpt lat="49.02481" lon="2.04081">
        <ele>15.2</ele>
        <time>2022-05-31T08:19:50Z</time>
      </trkpt>
      <trkpt lat="49.02486" lon="2.04077">
        <ele>17.5</ele>
        <time>2022-05-31T08:19:54Z</time>
      </trkpt>
      <trkpt lat="49.02491" lon="2.04072">
        <ele>18</ele>
        <time>2022-05-31T08:19:59Z</time>
      </trkpt>
      <trkpt lat="49.02496" lon="2.04069">
        <ele>18.6</ele>
        <time>2022-05-31T08:20:03Z</time>
      </trkpt>
      <trkpt lat="49.02501" lon="2.04065">
        <ele>18.4</ele>
        <time>2022-05-31T08:20:07Z</time>
      </trkpt>
      <trkpt lat="49.02505" lon="2.04061">
        <ele>18</ele>
        <time>2022-05-31T08:20:10Z</time>
      </trkpt>
      <trkpt lat="49.02509" lon="2.04055">
        <ele>18.6</ele>
        <time>2022-05-31T08:20:14Z</time>
      </trkpt>
      <trkpt lat="49.02513" lon="2.04052">
        <ele>18.6</ele>
        <time>2022-05-31T08:20:18Z</time>
      </trkpt>
      <trkpt lat="49.02518" lon="2.04047">
        <ele>18.3</ele>
        <time>2022-05-31T08:20:23Z</time>
      </trkpt>
      <trkpt lat="49.02522" lon="2.04043">
        <ele>18.6</ele>
        <time>2022-05-31T08:20:27Z</time>
      </trkpt>
      <trkpt lat="49.02526" lon="2.04039">
        <ele>17.7</ele>
        <time>2022-05-31T08:20:31Z</time>
      </trkpt>
      <trkpt lat="49.02531" lon="2.04035">
        <ele>17.7</ele>
        <time>2022-05-31T08:20:35Z</time>
      </trkpt>
      <trkpt lat="49.02537" lon="2.04035">
        <ele>17.8</ele>
        <time>2022-05-31T08:20:39Z</time>
      </trkpt>
      <trkpt lat="49.02541" lon="2.04033">
        <ele>19.4</ele>
        <time>2022-05-31T08:20:44Z</time>
      </trkpt>
      <trkpt lat="49.02547" lon="2.04031">
        <ele>16.1</ele>
        <time>2022-05-31T08:21:13Z</time>
      </trkpt>
      <trkpt lat="49.02551" lon="2.04026">
        <ele>17.7</ele>
        <time>2022-05-31T08:21:18Z</time>
      </trkpt>
      <trkpt lat="49.02555" lon="2.0402">
        <ele>16.8</ele>
        <time>2022-05-31T08:21:22Z</time>
      </trkpt>
      <trkpt lat="49.02559" lon="2.04014">
        <ele>16.2</ele>
        <time>2022-05-31T08:21:26Z</time>
      </trkpt>
      <trkpt lat="49.02563" lon="2.04009">
        <ele>16.9</ele>
        <time>2022-05-31T08:21:30Z</time>
      </trkpt>
      <trkpt lat="49.02568" lon="2.04007">
        <ele>17</ele>
        <time>2022-05-31T08:21:35Z</time>
      </trkpt>
      <trkpt lat="49.02573" lon="2.04003">
        <ele>18.7</ele>
        <time>2022-05-31T08:21:40Z</time>
      </trkpt>
      <trkpt lat="49.02577" lon="2.03998">
        <ele>18.7</ele>
        <time>2022-05-31T08:21:44Z</time>
      </trkpt>
      <trkpt lat="49.02582" lon="2.03995">
        <ele>19</ele>
        <time>2022-05-31T08:21:49Z</time>
      </trkpt>
      <trkpt lat="49.02587" lon="2.03992">
        <ele>20.1</ele>
        <time>2022-05-31T08:21:53Z</time>
      </trkpt>
      <trkpt lat="49.02591" lon="2.03988">
        <ele>19.1</ele>
        <time>2022-05-31T08:21:57Z</time>
      </trkpt>
      <trkpt lat="49.02596" lon="2.03986">
        <ele>17.2</ele>
        <time>2022-05-31T08:22:00Z</time>
      </trkpt>
      <trkpt lat="49.026" lon="2.03982">
        <ele>18.7</ele>
        <time>2022-05-31T08:22:04Z</time>
      </trkpt>
      <trkpt lat="49.02604" lon="2.03978">
        <ele>17.6</ele>
        <time>2022-05-31T08:22:07Z</time>
      </trkpt>
      <trkpt lat="49.02608" lon="2.03974">
        <ele>16.7</ele>
        <time>2022-05-31T08:22:11Z</time>
      </trkpt>
      <trkpt lat="49.02614" lon="2.03971">
        <ele>17.4</ele>
        <time>2022-05-31T08:22:16Z</time>
      </trkpt>
      <trkpt lat="49.02619" lon="2.03967">
        <ele>16.7</ele>
        <time>2022-05-31T08:22:20Z</time>
      </trkpt>
      <trkpt lat="49.02623" lon="2.03964">
        <ele>16.4</ele>
        <time>2022-05-31T08:22:24Z</time>
      </trkpt>
      <trkpt lat="49.02628" lon="2.03959">
        <ele>16.3</ele>
        <time>2022-05-31T08:22:28Z</time>
      </trkpt>
      <trkpt lat="49.02632" lon="2.03954">
        <ele>16.5</ele>
        <time>2022-05-31T08:22:33Z</time>
      </trkpt>
      <trkpt lat="49.02637" lon="2.03951">
        <ele>18.8</ele>
        <time>2022-05-31T08:22:37Z</time>
      </trkpt>
      <trkpt lat="49.0264" lon="2.03947">
        <ele>18.5</ele>
        <time>2022-05-31T08:22:41Z</time>
      </trkpt>
      <trkpt lat="49.02645" lon="2.03942">
        <ele>17.5</ele>
        <time>2022-05-31T08:22:45Z</time>
      </trkpt>
      <trkpt lat="49.0265" lon="2.03938">
        <ele>16.7</ele>
        <time>2022-05-31T08:22:49Z</time>
      </trkpt>
      <trkpt lat="49.02655" lon="2.03933">
        <ele>16.3</ele>
        <time>2022-05-31T08:22:54Z</time>
      </trkpt>
      <trkpt lat="49.0266" lon="2.0393">
        <ele>17.3</ele>
        <time>2022-05-31T08:22:58Z</time>
      </trkpt>
      <trkpt lat="49.02665" lon="2.03927">
        <ele>17.7</ele>
        <time>2022-05-31T08:23:03Z</time>
      </trkpt>
      <trkpt lat="49.02671" lon="2.03923">
        <ele>17.4</ele>
        <time>2022-05-31T08:23:08Z</time>
      </trkpt>
      <trkpt lat="49.02676" lon="2.03918">
        <ele>17.6</ele>
        <time>2022-05-31T08:23:13Z</time>
      </trkpt>
      <trkpt lat="49.0268" lon="2.03913">
        <ele>18.6</ele>
        <time>2022-05-31T08:23:17Z</time>
      </trkpt>
      <trkpt lat="49.02684" lon="2.03908">
        <ele>17.7</ele>
        <time>2022-05-31T08:23:21Z</time>
      </trkpt>
      <trkpt lat="49.02689" lon="2.03908">
        <ele>16.4</ele>
        <time>2022-05-31T08:23:32Z</time>
      </trkpt>
      <trkpt lat="49.02692" lon="2.03901">
        <ele>17.7</ele>
        <time>2022-05-31T08:23:36Z</time>
      </trkpt>
      <trkpt lat="49.02694" lon="2.03894">
        <ele>17</ele>
        <time>2022-05-31T08:23:40Z</time>
      </trkpt>
      <trkpt lat="49.02698" lon="2.0389">
        <ele>16.5</ele>
        <time>2022-05-31T08:23:44Z</time>
      </trkpt>
      <trkpt lat="49.02702" lon="2.03885">
        <ele>16.1</ele>
        <time>2022-05-31T08:23:49Z</time>
      </trkpt>
      <trkpt lat="49.02706" lon="2.03883">
        <ele>17.3</ele>
        <time>2022-05-31T08:24:05Z</time>
      </trkpt>
      <trkpt lat="49.0271" lon="2.03877">
        <ele>17.5</ele>
        <time>2022-05-31T08:24:10Z</time>
      </trkpt>
      <trkpt lat="49.02714" lon="2.03873">
        <ele>17.8</ele>
        <time>2022-05-31T08:24:14Z</time>
      </trkpt>
      <trkpt lat="49.0272" lon="2.0387">
        <ele>19.3</ele>
        <time>2022-05-31T08:24:20Z</time>
      </trkpt>
      <trkpt lat="49.02723" lon="2.03864">
        <ele>18.9</ele>
        <time>2022-05-31T08:24:24Z</time>
      </trkpt>
      <trkpt lat="49.02727" lon="2.03859">
        <ele>18.1</ele>
        <time>2022-05-31T08:24:29Z</time>
      </trkpt>
      <trkpt lat="49.02732" lon="2.03855">
        <ele>17.3</ele>
        <time>2022-05-31T08:24:34Z</time>
      </trkpt>
      <trkpt lat="49.02734" lon="2.03849">
        <ele>17.4</ele>
        <time>2022-05-31T08:24:39Z</time>
      </trkpt>
      <trkpt lat="49.02738" lon="2.03845">
        <ele>18</ele>
        <time>2022-05-31T08:24:44Z</time>
      </trkpt>
      <trkpt lat="49.0274" lon="2.03839">
        <ele>18.3</ele>
        <time>2022-05-31T08:24:53Z</time>
      </trkpt>
      <trkpt lat="49.02745" lon="2.03834">
        <ele>18.4</ele>
        <time>2022-05-31T08:24:58Z</time>
      </trkpt>
      <trkpt lat="49.0275" lon="2.03832">
        <ele>18.5</ele>
        <time>2022-05-31T08:25:02Z</time>
      </trkpt>
      <trkpt lat="49.02754" lon="2.03828">
        <ele>17.2</ele>
        <time>2022-05-31T08:25:05Z</time>
      </trkpt>
      <trkpt lat="49.02758" lon="2.03824">
        <ele>18.2</ele>
        <time>2022-05-31T08:25:09Z</time>
      </trkpt>
      <trkpt lat="49.02762" lon="2.0382">
        <ele>18</ele>
        <time>2022-05-31T08:25:12Z</time>
      </trkpt>
      <trkpt lat="49.02767" lon="2.03816">
        <ele>18.9</ele>
        <time>2022-05-31T08:25:16Z</time>
      </trkpt>
      <trkpt lat="49.0277" lon="2.03812">
        <ele>18.7</ele>
        <time>2022-05-31T08:25:19Z</time>
      </trkpt>
      <trkpt lat="49.02774" lon="2.03808">
        <ele>17.9</ele>
        <time>2022-05-31T08:25:23Z</time>
      </trkpt>
      <trkpt lat="49.02779" lon="2.03806">
        <ele>17.9</ele>
        <time>2022-05-31T08:25:27Z</time>
      </trkpt>
      <trkpt lat="49.02783" lon="2.03804">
        <ele>17.5</ele>
        <time>2022-05-31T08:25:31Z</time>
      </trkpt>
      <trkpt lat="49.02788" lon="2.038">
        <ele>18</ele>
        <time>2022-05-31T08:25:36Z</time>
      </trkpt>
      <trkpt lat="49.02791" lon="2.03794">
        <ele>19</ele>
        <time>2022-05-31T08:25:40Z</time>
      </trkpt>
      <trkpt lat="49.02794" lon="2.03787">
        <ele>18.5</ele>
        <time>2022-05-31T08:25:45Z</time>
      </trkpt>
      <trkpt lat="49.02798" lon="2.03783">
        <ele>19.3</ele>
        <time>2022-05-31T08:25:49Z</time>
      </trkpt>
      <trkpt lat="49.02802" lon="2.03777">
        <ele>18.2</ele>
        <time>2022-05-31T08:25:53Z</time>
      </trkpt>
      <trkpt lat="49.02806" lon="2.03771">
        <ele>19.8</ele>
        <time>2022-05-31T08:25:58Z</time>
      </trkpt>
      <trkpt lat="49.0281" lon="2.03768">
        <ele>20.5</ele>
        <time>2022-05-31T08:26:03Z</time>
      </trkpt>
      <trkpt lat="49.02814" lon="2.03763">
        <ele>17.7</ele>
        <time>2022-05-31T08:26:08Z</time>
      </trkpt>
      <trkpt lat="49.02818" lon="2.03759">
        <ele>16.5</ele>
        <time>2022-05-31T08:26:12Z</time>
      </trkpt>
      <trkpt lat="49.02822" lon="2.03754">
        <ele>15.3</ele>
        <time>2022-05-31T08:26:37Z</time>
      </trkpt>
      <trkpt lat="49.02827" lon="2.03751">
        <ele>14.6</ele>
        <time>2022-05-31T08:26:40Z</time>
      </trkpt>
      <trkpt lat="49.02831" lon="2.03749">
        <ele>15.8</ele>
        <time>2022-05-31T08:26:44Z</time>
      </trkpt>
      <trkpt lat="49.02836" lon="2.03746">
        <ele>13.9</ele>
        <time>2022-05-31T08:26:48Z</time>
      </trkpt>
      <trkpt lat="49.02839" lon="2.03741">
        <ele>14.1</ele>
        <time>2022-05-31T08:26:54Z</time>
      </trkpt>
      <trkpt lat="49.02842" lon="2.03736">
        <ele>15.4</ele>
        <time>2022-05-31T08:26:58Z</time>
      </trkpt>
      <trkpt lat="49.02846" lon="2.03729">
        <ele>16</ele>
        <time>2022-05-31T08:27:03Z</time>
      </trkpt>
      <trkpt lat="49.0285" lon="2.03724">
        <ele>15.3</ele>
        <time>2022-05-31T08:27:08Z</time>
      </trkpt>
      <trkpt lat="49.02854" lon="2.03718">
        <ele>13.7</ele>
        <time>2022-05-31T08:27:12Z</time>
      </trkpt>
      <trkpt lat="49.02857" lon="2.03713">
        <ele>14.5</ele>
        <time>2022-05-31T08:27:16Z</time>
      </trkpt>
      <trkpt lat="49.02861" lon="2.03708">
        <ele>14.7</ele>
        <time>2022-05-31T08:27:20Z</time>
      </trkpt>
      <trkpt lat="49.02866" lon="2.03705">
        <ele>14.6</ele>
        <time>2022-05-31T08:27:23Z</time>
      </trkpt>
      <trkpt lat="49.0287" lon="2.03701">
        <ele>15.7</ele>
        <time>2022-05-31T08:27:26Z</time>
      </trkpt>
      <trkpt lat="49.02876" lon="2.03698">
        <ele>15.4</ele>
        <time>2022-05-31T08:27:31Z</time>
      </trkpt>
      <trkpt lat="49.02881" lon="2.03695">
        <ele>15.1</ele>
        <time>2022-05-31T08:27:34Z</time>
      </trkpt>
      <trkpt lat="49.02885" lon="2.0369">
        <ele>14.5</ele>
        <time>2022-05-31T08:27:39Z</time>
      </trkpt>
      <trkpt lat="49.02888" lon="2.03684">
        <ele>15.6</ele>
        <time>2022-05-31T08:27:43Z</time>
      </trkpt>
      <trkpt lat="49.02892" lon="2.0368">
        <ele>14.4</ele>
        <time>2022-05-31T08:27:47Z</time>
      </trkpt>
      <trkpt lat="49.02896" lon="2.03676">
        <ele>16.6</ele>
        <time>2022-05-31T08:27:51Z</time>
      </trkpt>
      <trkpt lat="49.02901" lon="2.03675">
        <ele>16.4</ele>
        <time>2022-05-31T08:27:55Z</time>
      </trkpt>
      <trkpt lat="49.02907" lon="2.03677">
        <ele>15.4</ele>
        <time>2022-05-31T08:28:00Z</time>
      </trkpt>
      <trkpt lat="49.02911" lon="2.03673">
        <ele>17.5</ele>
        <time>2022-05-31T08:28:03Z</time>
      </trkpt>
      <trkpt lat="49.02915" lon="2.03668">
        <ele>18.1</ele>
        <time>2022-05-31T08:28:07Z</time>
      </trkpt>
      <trkpt lat="49.02919" lon="2.03662">
        <ele>17.2</ele>
        <time>2022-05-31T08:28:11Z</time>
      </trkpt>
      <trkpt lat="49.02923" lon="2.03658">
        <ele>17</ele>
        <time>2022-05-31T08:28:15Z</time>
      </trkpt>
      <trkpt lat="49.02925" lon="2.03652">
        <ele>16.1</ele>
        <time>2022-05-31T08:28:20Z</time>
      </trkpt>
      <trkpt lat="49.0293" lon="2.03649">
        <ele>15.9</ele>
        <time>2022-05-31T08:28:24Z</time>
      </trkpt>
      <trkpt lat="49.02934" lon="2.03652">
        <ele>17.6</ele>
        <time>2022-05-31T08:28:28Z</time>
      </trkpt>
      <trkpt lat="49.02939" lon="2.0365">
        <ele>18.1</ele>
        <time>2022-05-31T08:28:33Z</time>
      </trkpt>
      <trkpt lat="49.02945" lon="2.03647">
        <ele>18.3</ele>
        <time>2022-05-31T08:28:44Z</time>
      </trkpt>
      <trkpt lat="49.02941" lon="2.03649">
        <ele>15.8</ele>
        <time>2022-05-31T08:29:00Z</time>
      </trkpt>
      <trkpt lat="49.02936" lon="2.03654">
        <ele>16.6</ele>
        <time>2022-05-31T08:29:05Z</time>
      </trkpt>
      <trkpt lat="49.02937" lon="2.03647">
        <ele>17</ele>
        <time>2022-05-31T08:29:30Z</time>
      </trkpt>
      <trkpt lat="49.02941" lon="2.03641">
        <ele>15.9</ele>
        <time>2022-05-31T08:29:35Z</time>
      </trkpt>
      <trkpt lat="49.02945" lon="2.03638">
        <ele>14.3</ele>
        <time>2022-05-31T08:29:40Z</time>
      </trkpt>
      <trkpt lat="49.02948" lon="2.03631">
        <ele>13.3</ele>
        <time>2022-05-31T08:29:46Z</time>
      </trkpt>
      <trkpt lat="49.02952" lon="2.03628">
        <ele>15</ele>
        <time>2022-05-31T08:29:52Z</time>
      </trkpt>
      <trkpt lat="49.02956" lon="2.03625">
        <ele>18.1</ele>
        <time>2022-05-31T08:29:58Z</time>
      </trkpt>
      <trkpt lat="49.02957" lon="2.03617">
        <ele>17.8</ele>
        <time>2022-05-31T08:30:07Z</time>
      </trkpt>
      <trkpt lat="49.02952" lon="2.03613">
        <ele>18.3</ele>
        <time>2022-05-31T08:30:13Z</time>
      </trkpt>
      <trkpt lat="49.02957" lon="2.03609">
        <ele>22.1</ele>
        <time>2022-05-31T08:30:37Z</time>
      </trkpt>
      <trkpt lat="49.02963" lon="2.03608">
        <ele>22</ele>
        <time>2022-05-31T08:30:42Z</time>
      </trkpt>
      <trkpt lat="49.02968" lon="2.0361">
        <ele>23.4</ele>
        <time>2022-05-31T08:30:50Z</time>
      </trkpt>
      <trkpt lat="49.02972" lon="2.03605">
        <ele>23.8</ele>
        <time>2022-05-31T08:30:54Z</time>
      </trkpt>
      <trkpt lat="49.02974" lon="2.03599">
        <ele>23.9</ele>
        <time>2022-05-31T08:30:59Z</time>
      </trkpt>
      <trkpt lat="49.02978" lon="2.03595">
        <ele>21.2</ele>
        <time>2022-05-31T08:31:03Z</time>
      </trkpt>
      <trkpt lat="49.02981" lon="2.03588">
        <ele>17.9</ele>
        <time>2022-05-31T08:31:08Z</time>
      </trkpt>
      <trkpt lat="49.02985" lon="2.03583">
        <ele>16.2</ele>
        <time>2022-05-31T08:31:13Z</time>
      </trkpt>
      <trkpt lat="49.02989" lon="2.03579">
        <ele>15.1</ele>
        <time>2022-05-31T08:31:17Z</time>
      </trkpt>
      <trkpt lat="49.02994" lon="2.03576">
        <ele>14.6</ele>
        <time>2022-05-31T08:31:22Z</time>
      </trkpt>
      <trkpt lat="49.02998" lon="2.03572">
        <ele>13.5</ele>
        <time>2022-05-31T08:31:26Z</time>
      </trkpt>
      <trkpt lat="49.03003" lon="2.03568">
        <ele>12.7</ele>
        <time>2022-05-31T08:31:30Z</time>
      </trkpt>
      <trkpt lat="49.03007" lon="2.03564">
        <ele>11.3</ele>
        <time>2022-05-31T08:31:33Z</time>
      </trkpt>
      <trkpt lat="49.03012" lon="2.03561">
        <ele>10.4</ele>
        <time>2022-05-31T08:31:38Z</time>
      </trkpt>
      <trkpt lat="49.03018" lon="2.03559">
        <ele>9.1</ele>
        <time>2022-05-31T08:31:43Z</time>
      </trkpt>
      <trkpt lat="49.03023" lon="2.03557">
        <ele>8.6</ele>
        <time>2022-05-31T08:31:48Z</time>
      </trkpt>
      <trkpt lat="49.03028" lon="2.03556">
        <ele>9.7</ele>
        <time>2022-05-31T08:31:52Z</time>
      </trkpt>
      <trkpt lat="49.03033" lon="2.03554">
        <ele>9.8</ele>
        <time>2022-05-31T08:31:56Z</time>
      </trkpt>
      <trkpt lat="49.03038" lon="2.03552">
        <ele>9.9</ele>
        <time>2022-05-31T08:32:00Z</time>
      </trkpt>
      <trkpt lat="49.03044" lon="2.03549">
        <ele>11.7</ele>
        <time>2022-05-31T08:32:05Z</time>
      </trkpt>
      <trkpt lat="49.03049" lon="2.03547">
        <ele>12</ele>
        <time>2022-05-31T08:32:09Z</time>
      </trkpt>
      <trkpt lat="49.03055" lon="2.03544">
        <ele>13.8</ele>
        <time>2022-05-31T08:32:14Z</time>
      </trkpt>
      <trkpt lat="49.0306" lon="2.03541">
        <ele>12.4</ele>
        <time>2022-05-31T08:32:18Z</time>
      </trkpt>
      <trkpt lat="49.03065" lon="2.03538">
        <ele>12</ele>
        <time>2022-05-31T08:32:23Z</time>
      </trkpt>
      <trkpt lat="49.0307" lon="2.03535">
        <ele>11.5</ele>
        <time>2022-05-31T08:32:27Z</time>
      </trkpt>
      <trkpt lat="49.03075" lon="2.03532">
        <ele>13.9</ele>
        <time>2022-05-31T08:32:32Z</time>
      </trkpt>
      <trkpt lat="49.03079" lon="2.03529">
        <ele>16.3</ele>
        <time>2022-05-31T08:32:35Z</time>
      </trkpt>
      <trkpt lat="49.03083" lon="2.03524">
        <ele>19.3</ele>
        <time>2022-05-31T08:32:39Z</time>
      </trkpt>
      <trkpt lat="49.03088" lon="2.03521">
        <ele>23</ele>
        <time>2022-05-31T08:32:43Z</time>
      </trkpt>
      <trkpt lat="49.03094" lon="2.03521">
        <ele>21.5</ele>
        <time>2022-05-31T08:32:48Z</time>
      </trkpt>
      <trkpt lat="49.03099" lon="2.03521">
        <ele>20.7</ele>
        <time>2022-05-31T08:32:52Z</time>
      </trkpt>
      <trkpt lat="49.03104" lon="2.03523">
        <ele>16.4</ele>
        <time>2022-05-31T08:32:58Z</time>
      </trkpt>
      <trkpt lat="49.03107" lon="2.03529">
        <ele>14.4</ele>
        <time>2022-05-31T08:33:02Z</time>
      </trkpt>
      <trkpt lat="49.03109" lon="2.03538">
        <ele>13.3</ele>
        <time>2022-05-31T08:33:07Z</time>
      </trkpt>
      <trkpt lat="49.03112" lon="2.03544">
        <ele>12.5</ele>
        <time>2022-05-31T08:33:13Z</time>
      </trkpt>
      <trkpt lat="49.03115" lon="2.03549">
        <ele>12.3</ele>
        <time>2022-05-31T08:33:17Z</time>
      </trkpt>
      <trkpt lat="49.03119" lon="2.03552">
        <ele>13.5</ele>
        <time>2022-05-31T08:33:22Z</time>
      </trkpt>
      <trkpt lat="49.03124" lon="2.03555">
        <ele>12.5</ele>
        <time>2022-05-31T08:33:27Z</time>
      </trkpt>
      <trkpt lat="49.0313" lon="2.03558">
        <ele>11.3</ele>
        <time>2022-05-31T08:33:31Z</time>
      </trkpt>
      <trkpt lat="49.03135" lon="2.0356">
        <ele>13.3</ele>
        <time>2022-05-31T08:33:37Z</time>
      </trkpt>
      <trkpt lat="49.03139" lon="2.03563">
        <ele>15.6</ele>
        <time>2022-05-31T08:33:43Z</time>
      </trkpt>
      <trkpt lat="49.03135" lon="2.03559">
        <ele>16.4</ele>
        <time>2022-05-31T08:34:01Z</time>
      </trkpt>
      <trkpt lat="49.03139" lon="2.03564">
        <ele>16.4</ele>
        <time>2022-05-31T08:34:45Z</time>
      </trkpt>
      <trkpt lat="49.03144" lon="2.03565">
        <ele>17.6</ele>
        <time>2022-05-31T08:34:50Z</time>
      </trkpt>
      <trkpt lat="49.03148" lon="2.03561">
        <ele>18.7</ele>
        <time>2022-05-31T08:35:01Z</time>
      </trkpt>
      <trkpt lat="49.03153" lon="2.03559">
        <ele>20.5</ele>
        <time>2022-05-31T08:35:08Z</time>
      </trkpt>
      <trkpt lat="49.03158" lon="2.03561">
        <ele>21.9</ele>
        <time>2022-05-31T08:35:13Z</time>
      </trkpt>
      <trkpt lat="49.03164" lon="2.03564">
        <ele>22.6</ele>
        <time>2022-05-31T08:35:19Z</time>
      </trkpt>
      <trkpt lat="49.03168" lon="2.03565">
        <ele>19.8</ele>
        <time>2022-05-31T08:35:24Z</time>
      </trkpt>
      <trkpt lat="49.03173" lon="2.03568">
        <ele>17.4</ele>
        <time>2022-05-31T08:35:28Z</time>
      </trkpt>
      <trkpt lat="49.03178" lon="2.0357">
        <ele>14.2</ele>
        <time>2022-05-31T08:35:32Z</time>
      </trkpt>
      <trkpt lat="49.03183" lon="2.03571">
        <ele>12.9</ele>
        <time>2022-05-31T08:35:36Z</time>
      </trkpt>
      <trkpt lat="49.03188" lon="2.03571">
        <ele>14.5</ele>
        <time>2022-05-31T08:35:39Z</time>
      </trkpt>
      <trkpt lat="49.03193" lon="2.03573">
        <ele>16.1</ele>
        <time>2022-05-31T08:35:44Z</time>
      </trkpt>
      <trkpt lat="49.03198" lon="2.03574">
        <ele>15.1</ele>
        <time>2022-05-31T08:35:48Z</time>
      </trkpt>
      <trkpt lat="49.03202" lon="2.03577">
        <ele>14.9</ele>
        <time>2022-05-31T08:35:52Z</time>
      </trkpt>
      <trkpt lat="49.03207" lon="2.0358">
        <ele>15</ele>
        <time>2022-05-31T08:35:57Z</time>
      </trkpt>
      <trkpt lat="49.03211" lon="2.03583">
        <ele>14.5</ele>
        <time>2022-05-31T08:36:00Z</time>
      </trkpt>
      <trkpt lat="49.03216" lon="2.03585">
        <ele>13.3</ele>
        <time>2022-05-31T08:36:04Z</time>
      </trkpt>
      <trkpt lat="49.03219" lon="2.0359">
        <ele>13.7</ele>
        <time>2022-05-31T08:36:08Z</time>
      </trkpt>
      <trkpt lat="49.03224" lon="2.03594">
        <ele>13.4</ele>
        <time>2022-05-31T08:36:12Z</time>
      </trkpt>
      <trkpt lat="49.0323" lon="2.03597">
        <ele>16.1</ele>
        <time>2022-05-31T08:36:16Z</time>
      </trkpt>
      <trkpt lat="49.03234" lon="2.03601">
        <ele>18.6</ele>
        <time>2022-05-31T08:36:20Z</time>
      </trkpt>
      <trkpt lat="49.03239" lon="2.03605">
        <ele>18.9</ele>
        <time>2022-05-31T08:36:25Z</time>
      </trkpt>
      <trkpt lat="49.03244" lon="2.03608">
        <ele>18.9</ele>
        <time>2022-05-31T08:36:29Z</time>
      </trkpt>
      <trkpt lat="49.03249" lon="2.03611">
        <ele>17.3</ele>
        <time>2022-05-31T08:36:33Z</time>
      </trkpt>
      <trkpt lat="49.03253" lon="2.03615">
        <ele>15.7</ele>
        <time>2022-05-31T08:36:38Z</time>
      </trkpt>
      <trkpt lat="49.03257" lon="2.03619">
        <ele>15.2</ele>
        <time>2022-05-31T08:36:41Z</time>
      </trkpt>
      <trkpt lat="49.03262" lon="2.03623">
        <ele>14.1</ele>
        <time>2022-05-31T08:36:45Z</time>
      </trkpt>
      <trkpt lat="49.03266" lon="2.03625">
        <ele>12.4</ele>
        <time>2022-05-31T08:36:49Z</time>
      </trkpt>
      <trkpt lat="49.0327" lon="2.0363">
        <ele>11</ele>
        <time>2022-05-31T08:36:53Z</time>
      </trkpt>
      <trkpt lat="49.03275" lon="2.03634">
        <ele>10.5</ele>
        <time>2022-05-31T08:36:57Z</time>
      </trkpt>
      <trkpt lat="49.03281" lon="2.03633">
        <ele>9.3</ele>
        <time>2022-05-31T08:37:14Z</time>
      </trkpt>
      <trkpt lat="49.03286" lon="2.03635">
        <ele>11.3</ele>
        <time>2022-05-31T08:37:18Z</time>
      </trkpt>
      <trkpt lat="49.03289" lon="2.03641">
        <ele>12</ele>
        <time>2022-05-31T08:37:21Z</time>
      </trkpt>
      <trkpt lat="49.03292" lon="2.03646">
        <ele>14.2</ele>
        <time>2022-05-31T08:37:25Z</time>
      </trkpt>
      <trkpt lat="49.03298" lon="2.03649">
        <ele>12.2</ele>
        <time>2022-05-31T08:37:30Z</time>
      </trkpt>
      <trkpt lat="49.03303" lon="2.03652">
        <ele>11.4</ele>
        <time>2022-05-31T08:37:34Z</time>
      </trkpt>
      <trkpt lat="49.03307" lon="2.03656">
        <ele>13.2</ele>
        <time>2022-05-31T08:37:38Z</time>
      </trkpt>
      <trkpt lat="49.03312" lon="2.0366">
        <ele>14</ele>
        <time>2022-05-31T08:37:42Z</time>
      </trkpt>
      <trkpt lat="49.03315" lon="2.03666">
        <ele>12.6</ele>
        <time>2022-05-31T08:37:46Z</time>
      </trkpt>
      <trkpt lat="49.03318" lon="2.03672">
        <ele>14.8</ele>
        <time>2022-05-31T08:37:51Z</time>
      </trkpt>
      <trkpt lat="49.03322" lon="2.03677">
        <ele>21.1</ele>
        <time>2022-05-31T08:37:55Z</time>
      </trkpt>
      <trkpt lat="49.03325" lon="2.03684">
        <ele>21.1</ele>
        <time>2022-05-31T08:38:00Z</time>
      </trkpt>
      <trkpt lat="49.03328" lon="2.03689">
        <ele>21</ele>
        <time>2022-05-31T08:38:04Z</time>
      </trkpt>
      <trkpt lat="49.03333" lon="2.03692">
        <ele>18.2</ele>
        <time>2022-05-31T08:38:09Z</time>
      </trkpt>
      <trkpt lat="49.03338" lon="2.03696">
        <ele>16.2</ele>
        <time>2022-05-31T08:38:13Z</time>
      </trkpt>
      <trkpt lat="49.03343" lon="2.037">
        <ele>16.2</ele>
        <time>2022-05-31T08:38:17Z</time>
      </trkpt>
      <trkpt lat="49.03347" lon="2.03704">
        <ele>16.5</ele>
        <time>2022-05-31T08:38:22Z</time>
      </trkpt>
      <trkpt lat="49.03352" lon="2.03708">
        <ele>14</ele>
        <time>2022-05-31T08:38:26Z</time>
      </trkpt>
      <trkpt lat="49.03356" lon="2.03713">
        <ele>12.1</ele>
        <time>2022-05-31T08:38:30Z</time>
      </trkpt>
      <trkpt lat="49.03359" lon="2.03718">
        <ele>9.4</ele>
        <time>2022-05-31T08:38:35Z</time>
      </trkpt>
      <trkpt lat="49.03364" lon="2.03721">
        <ele>9.2</ele>
        <time>2022-05-31T08:38:39Z</time>
      </trkpt>
      <trkpt lat="49.03368" lon="2.03725">
        <ele>10.2</ele>
        <time>2022-05-31T08:38:44Z</time>
      </trkpt>
      <trkpt lat="49.03373" lon="2.0373">
        <ele>11.9</ele>
        <time>2022-05-31T08:38:48Z</time>
      </trkpt>
      <trkpt lat="49.03379" lon="2.03734">
        <ele>14.4</ele>
        <time>2022-05-31T08:38:53Z</time>
      </trkpt>
      <trkpt lat="49.03383" lon="2.03739">
        <ele>13.5</ele>
        <time>2022-05-31T08:38:58Z</time>
      </trkpt>
      <trkpt lat="49.03389" lon="2.03742">
        <ele>14.5</ele>
        <time>2022-05-31T08:39:02Z</time>
      </trkpt>
      <trkpt lat="49.03393" lon="2.03746">
        <ele>16</ele>
        <time>2022-05-31T08:39:07Z</time>
      </trkpt>
      <trkpt lat="49.03398" lon="2.03752">
        <ele>14.2</ele>
        <time>2022-05-31T08:39:11Z</time>
      </trkpt>
      <trkpt lat="49.03402" lon="2.03757">
        <ele>13</ele>
        <time>2022-05-31T08:39:16Z</time>
      </trkpt>
      <trkpt lat="49.03407" lon="2.03762">
        <ele>13.7</ele>
        <time>2022-05-31T08:39:20Z</time>
      </trkpt>
      <trkpt lat="49.03411" lon="2.03764">
        <ele>14.1</ele>
        <time>2022-05-31T08:39:24Z</time>
      </trkpt>
      <trkpt lat="49.03415" lon="2.03767">
        <ele>15.2</ele>
        <time>2022-05-31T08:39:27Z</time>
      </trkpt>
      <trkpt lat="49.0342" lon="2.03771">
        <ele>19</ele>
        <time>2022-05-31T08:39:31Z</time>
      </trkpt>
      <trkpt lat="49.03424" lon="2.03776">
        <ele>19.5</ele>
        <time>2022-05-31T08:39:35Z</time>
      </trkpt>
      <trkpt lat="49.03428" lon="2.03779">
        <ele>19</ele>
        <time>2022-05-31T08:39:39Z</time>
      </trkpt>
      <trkpt lat="49.03434" lon="2.03783">
        <ele>20.2</ele>
        <time>2022-05-31T08:39:44Z</time>
      </trkpt>
      <trkpt lat="49.03439" lon="2.03787">
        <ele>19.1</ele>
        <time>2022-05-31T08:39:48Z</time>
      </trkpt>
      <trkpt lat="49.03444" lon="2.03792">
        <ele>16.2</ele>
        <time>2022-05-31T08:39:53Z</time>
      </trkpt>
      <trkpt lat="49.03448" lon="2.03795">
        <ele>14.3</ele>
        <time>2022-05-31T08:39:56Z</time>
      </trkpt>
      <trkpt lat="49.03452" lon="2.03799">
        <ele>14.3</ele>
        <time>2022-05-31T08:40:00Z</time>
      </trkpt>
      <trkpt lat="49.03457" lon="2.03803">
        <ele>15</ele>
        <time>2022-05-31T08:40:04Z</time>
      </trkpt>
      <trkpt lat="49.03462" lon="2.03807">
        <ele>14.9</ele>
        <time>2022-05-31T08:40:08Z</time>
      </trkpt>
      <trkpt lat="49.03466" lon="2.03812">
        <ele>17.2</ele>
        <time>2022-05-31T08:40:13Z</time>
      </trkpt>
      <trkpt lat="49.0347" lon="2.03818">
        <ele>13.7</ele>
        <time>2022-05-31T08:40:17Z</time>
      </trkpt>
      <trkpt lat="49.03475" lon="2.03822">
        <ele>15.9</ele>
        <time>2022-05-31T08:40:21Z</time>
      </trkpt>
      <trkpt lat="49.03479" lon="2.03827">
        <ele>15.4</ele>
        <time>2022-05-31T08:40:25Z</time>
      </trkpt>
      <trkpt lat="49.03483" lon="2.03831">
        <ele>14.4</ele>
        <time>2022-05-31T08:40:29Z</time>
      </trkpt>
      <trkpt lat="49.03487" lon="2.03837">
        <ele>12.2</ele>
        <time>2022-05-31T08:40:32Z</time>
      </trkpt>
      <trkpt lat="49.03491" lon="2.03842">
        <ele>11.8</ele>
        <time>2022-05-31T08:40:37Z</time>
      </trkpt>
      <trkpt lat="49.03495" lon="2.03848">
        <ele>11.6</ele>
        <time>2022-05-31T08:40:42Z</time>
      </trkpt>
      <trkpt lat="49.03499" lon="2.03853">
        <ele>12</ele>
        <time>2022-05-31T08:40:46Z</time>
      </trkpt>
      <trkpt lat="49.03503" lon="2.03857">
        <ele>10.4</ele>
        <time>2022-05-31T08:40:51Z</time>
      </trkpt>
      <trkpt lat="49.03508" lon="2.03862">
        <ele>10.1</ele>
        <time>2022-05-31T08:40:56Z</time>
      </trkpt>
      <trkpt lat="49.03512" lon="2.03867">
        <ele>11.7</ele>
        <time>2022-05-31T08:41:00Z</time>
      </trkpt>
      <trkpt lat="49.03516" lon="2.03872">
        <ele>13</ele>
        <time>2022-05-31T08:41:03Z</time>
      </trkpt>
      <trkpt lat="49.03519" lon="2.03879">
        <ele>10.5</ele>
        <time>2022-05-31T08:41:07Z</time>
      </trkpt>
      <trkpt lat="49.03522" lon="2.03885">
        <ele>8.6</ele>
        <time>2022-05-31T08:41:11Z</time>
      </trkpt>
      <trkpt lat="49.03525" lon="2.03891">
        <ele>7.8</ele>
        <time>2022-05-31T08:41:14Z</time>
      </trkpt>
      <trkpt lat="49.03529" lon="2.03895">
        <ele>10</ele>
        <time>2022-05-31T08:41:18Z</time>
      </trkpt>
      <trkpt lat="49.03533" lon="2.039">
        <ele>9.9</ele>
        <time>2022-05-31T08:41:21Z</time>
      </trkpt>
      <trkpt lat="49.03538" lon="2.03905">
        <ele>8</ele>
        <time>2022-05-31T08:41:24Z</time>
      </trkpt>
      <trkpt lat="49.03542" lon="2.03908">
        <ele>8.9</ele>
        <time>2022-05-31T08:41:27Z</time>
      </trkpt>
      <trkpt lat="49.03547" lon="2.03913">
        <ele>11.6</ele>
        <time>2022-05-31T08:41:31Z</time>
      </trkpt>
      <trkpt lat="49.03552" lon="2.03917">
        <ele>16.5</ele>
        <time>2022-05-31T08:41:35Z</time>
      </trkpt>
      <trkpt lat="49.03556" lon="2.03921">
        <ele>15.9</ele>
        <time>2022-05-31T08:41:38Z</time>
      </trkpt>
      <trkpt lat="49.03562" lon="2.03924">
        <ele>16.6</ele>
        <time>2022-05-31T08:41:42Z</time>
      </trkpt>
      <trkpt lat="49.03567" lon="2.03926">
        <ele>17.3</ele>
        <time>2022-05-31T08:41:45Z</time>
      </trkpt>
      <trkpt lat="49.03572" lon="2.03929">
        <ele>14.3</ele>
        <time>2022-05-31T08:41:49Z</time>
      </trkpt>
      <trkpt lat="49.03577" lon="2.03933">
        <ele>16.4</ele>
        <time>2022-05-31T08:41:53Z</time>
      </trkpt>
      <trkpt lat="49.03581" lon="2.03936">
        <ele>16.3</ele>
        <time>2022-05-31T08:41:56Z</time>
      </trkpt>
      <trkpt lat="49.03586" lon="2.03939">
        <ele>14.7</ele>
        <time>2022-05-31T08:42:00Z</time>
      </trkpt>
      <trkpt lat="49.03591" lon="2.03942">
        <ele>16.5</ele>
        <time>2022-05-31T08:42:05Z</time>
      </trkpt>
      <trkpt lat="49.03597" lon="2.03946">
        <ele>17.2</ele>
        <time>2022-05-31T08:42:10Z</time>
      </trkpt>
      <trkpt lat="49.03602" lon="2.03949">
        <ele>19.7</ele>
        <time>2022-05-31T08:42:13Z</time>
      </trkpt>
      <trkpt lat="49.03608" lon="2.03951">
        <ele>21.7</ele>
        <time>2022-05-31T08:42:17Z</time>
      </trkpt>
      <trkpt lat="49.03612" lon="2.03956">
        <ele>22.3</ele>
        <time>2022-05-31T08:42:21Z</time>
      </trkpt>
      <trkpt lat="49.03616" lon="2.0396">
        <ele>22</ele>
        <time>2022-05-31T08:42:26Z</time>
      </trkpt>
      <trkpt lat="49.03621" lon="2.03959">
        <ele>25.4</ele>
        <time>2022-05-31T08:43:48Z</time>
      </trkpt>
      <trkpt lat="49.03627" lon="2.03962">
        <ele>23.3</ele>
        <time>2022-05-31T08:43:53Z</time>
      </trkpt>
      <trkpt lat="49.03631" lon="2.03967">
        <ele>24.6</ele>
        <time>2022-05-31T08:43:56Z</time>
      </trkpt>
      <trkpt lat="49.03636" lon="2.03971">
        <ele>25.5</ele>
        <time>2022-05-31T08:44:00Z</time>
      </trkpt>
      <trkpt lat="49.0364" lon="2.03975">
        <ele>23.3</ele>
        <time>2022-05-31T08:44:04Z</time>
      </trkpt>
      <trkpt lat="49.03644" lon="2.03979">
        <ele>22.7</ele>
        <time>2022-05-31T08:44:08Z</time>
      </trkpt>
      <trkpt lat="49.03648" lon="2.03982">
        <ele>20.7</ele>
        <time>2022-05-31T08:44:11Z</time>
      </trkpt>
      <trkpt lat="49.03653" lon="2.03984">
        <ele>18.6</ele>
        <time>2022-05-31T08:44:15Z</time>
      </trkpt>
      <trkpt lat="49.03654" lon="2.03977">
        <ele>18.9</ele>
        <time>2022-05-31T08:44:18Z</time>
      </trkpt>
      <trkpt lat="49.0366" lon="2.03979">
        <ele>16.6</ele>
        <time>2022-05-31T08:44:20Z</time>
      </trkpt>
      <trkpt lat="49.03662" lon="2.03985">
        <ele>16.8</ele>
        <time>2022-05-31T08:44:23Z</time>
      </trkpt>
      <trkpt lat="49.03666" lon="2.03991">
        <ele>17.8</ele>
        <time>2022-05-31T08:44:27Z</time>
      </trkpt>
      <trkpt lat="49.0367" lon="2.03996">
        <ele>20.6</ele>
        <time>2022-05-31T08:44:31Z</time>
      </trkpt>
      <trkpt lat="49.03675" lon="2.04001">
        <ele>23.6</ele>
        <time>2022-05-31T08:44:36Z</time>
      </trkpt>
      <trkpt lat="49.03679" lon="2.04006">
        <ele>23.4</ele>
        <time>2022-05-31T08:44:40Z</time>
      </trkpt>
      <trkpt lat="49.03684" lon="2.04011">
        <ele>20.7</ele>
        <time>2022-05-31T08:44:45Z</time>
      </trkpt>
      <trkpt lat="49.03688" lon="2.04015">
        <ele>20.3</ele>
        <time>2022-05-31T08:44:49Z</time>
      </trkpt>
      <trkpt lat="49.03692" lon="2.04019">
        <ele>20.4</ele>
        <time>2022-05-31T08:44:52Z</time>
      </trkpt>
      <trkpt lat="49.03695" lon="2.04025">
        <ele>21</ele>
        <time>2022-05-31T08:44:56Z</time>
      </trkpt>
      <trkpt lat="49.03698" lon="2.04032">
        <ele>21.4</ele>
        <time>2022-05-31T08:45:00Z</time>
      </trkpt>
      <trkpt lat="49.03701" lon="2.04039">
        <ele>20.5</ele>
        <time>2022-05-31T08:45:05Z</time>
      </trkpt>
      <trkpt lat="49.03705" lon="2.04046">
        <ele>17.3</ele>
        <time>2022-05-31T08:45:09Z</time>
      </trkpt>
      <trkpt lat="49.03709" lon="2.04052">
        <ele>19.3</ele>
        <time>2022-05-31T08:45:14Z</time>
      </trkpt>
      <trkpt lat="49.03714" lon="2.04053">
        <ele>18.6</ele>
        <time>2022-05-31T08:45:18Z</time>
      </trkpt>
      <trkpt lat="49.03718" lon="2.0405">
        <ele>12.8</ele>
        <time>2022-05-31T08:45:40Z</time>
      </trkpt>
      <trkpt lat="49.03713" lon="2.04049">
        <ele>10.3</ele>
        <time>2022-05-31T08:46:00Z</time>
      </trkpt>
      <trkpt lat="49.03708" lon="2.04046">
        <ele>11.5</ele>
        <time>2022-05-31T08:46:47Z</time>
      </trkpt>
      <trkpt lat="49.03704" lon="2.04045">
        <ele>7.7</ele>
        <time>2022-05-31T08:46:52Z</time>
      </trkpt>
      <trkpt lat="49.03701" lon="2.04051">
        <ele>5.3</ele>
        <time>2022-05-31T08:46:56Z</time>
      </trkpt>
      <trkpt lat="49.03705" lon="2.04057">
        <ele>8.6</ele>
        <time>2022-05-31T08:47:02Z</time>
      </trkpt>
      <trkpt lat="49.03707" lon="2.04063">
        <ele>18.9</ele>
        <time>2022-05-31T08:47:15Z</time>
      </trkpt>
      <trkpt lat="49.0371" lon="2.04069">
        <ele>21.2</ele>
        <time>2022-05-31T08:47:19Z</time>
      </trkpt>
      <trkpt lat="49.03703" lon="2.04072">
        <ele>19.1</ele>
        <time>2022-05-31T08:47:23Z</time>
      </trkpt>
      <trkpt lat="49.03728" lon="2.04087">
        <ele>17.6</ele>
        <time>2022-05-31T08:47:26Z</time>
      </trkpt>
      <trkpt lat="49.0374" lon="2.04094">
        <ele>18</ele>
        <time>2022-05-31T08:47:27Z</time>
      </trkpt>
      <trkpt lat="49.03746" lon="2.04098">
        <ele>17.7</ele>
        <time>2022-05-31T08:47:28Z</time>
      </trkpt>
      <trkpt lat="49.0375" lon="2.04102">
        <ele>19.3</ele>
        <time>2022-05-31T08:47:31Z</time>
      </trkpt>
      <trkpt lat="49.03754" lon="2.04107">
        <ele>19.4</ele>
        <time>2022-05-31T08:47:34Z</time>
      </trkpt>
      <trkpt lat="49.03758" lon="2.04111">
        <ele>17.6</ele>
        <time>2022-05-31T08:47:37Z</time>
      </trkpt>
      <trkpt lat="49.03763" lon="2.04116">
        <ele>17.4</ele>
        <time>2022-05-31T08:47:41Z</time>
      </trkpt>
      <trkpt lat="49.03767" lon="2.0412">
        <ele>17.7</ele>
        <time>2022-05-31T08:47:45Z</time>
      </trkpt>
      <trkpt lat="49.03771" lon="2.04125">
        <ele>15.8</ele>
        <time>2022-05-31T08:47:49Z</time>
      </trkpt>
      <trkpt lat="49.03774" lon="2.04133">
        <ele>15.7</ele>
        <time>2022-05-31T08:47:54Z</time>
      </trkpt>
      <trkpt lat="49.03776" lon="2.0414">
        <ele>16.7</ele>
        <time>2022-05-31T08:47:57Z</time>
      </trkpt>
      <trkpt lat="49.03778" lon="2.04146">
        <ele>15.7</ele>
        <time>2022-05-31T08:48:01Z</time>
      </trkpt>
      <trkpt lat="49.0378" lon="2.04153">
        <ele>11.6</ele>
        <time>2022-05-31T08:48:05Z</time>
      </trkpt>
      <trkpt lat="49.03786" lon="2.04153">
        <ele>10.5</ele>
        <time>2022-05-31T08:48:11Z</time>
      </trkpt>
      <trkpt lat="49.0379" lon="2.04148">
        <ele>11.6</ele>
        <time>2022-05-31T08:48:16Z</time>
      </trkpt>
      <trkpt lat="49.03794" lon="2.04143">
        <ele>15.1</ele>
        <time>2022-05-31T08:48:20Z</time>
      </trkpt>
      <trkpt lat="49.03797" lon="2.04136">
        <ele>13.8</ele>
        <time>2022-05-31T08:49:12Z</time>
      </trkpt>
      <trkpt lat="49.038" lon="2.04129">
        <ele>15</ele>
        <time>2022-05-31T08:49:17Z</time>
      </trkpt>
      <trkpt lat="49.03804" lon="2.04124">
        <ele>15.3</ele>
        <time>2022-05-31T08:49:20Z</time>
      </trkpt>
      <trkpt lat="49.03808" lon="2.0412">
        <ele>13.8</ele>
        <time>2022-05-31T08:49:25Z</time>
      </trkpt>
      <trkpt lat="49.03812" lon="2.04116">
        <ele>13.4</ele>
        <time>2022-05-31T08:49:29Z</time>
      </trkpt>
      <trkpt lat="49.03818" lon="2.04114">
        <ele>15.2</ele>
        <time>2022-05-31T08:49:35Z</time>
      </trkpt>
      <trkpt lat="49.03822" lon="2.04118">
        <ele>18.6</ele>
        <time>2022-05-31T08:49:39Z</time>
      </trkpt>
      <trkpt lat="49.03826" lon="2.04115">
        <ele>14.5</ele>
        <time>2022-05-31T08:49:44Z</time>
      </trkpt>
      <trkpt lat="49.0383" lon="2.04109">
        <ele>16.9</ele>
        <time>2022-05-31T08:49:48Z</time>
      </trkpt>
      <trkpt lat="49.03835" lon="2.04107">
        <ele>16.7</ele>
        <time>2022-05-31T08:49:54Z</time>
      </trkpt>
      <trkpt lat="49.0384" lon="2.04109">
        <ele>15.1</ele>
        <time>2022-05-31T08:49:59Z</time>
      </trkpt>
      <trkpt lat="49.0384" lon="2.04118">
        <ele>15.6</ele>
        <time>2022-05-31T08:51:53Z</time>
      </trkpt>
      <trkpt lat="49.03842" lon="2.0411">
        <ele>15.4</ele>
        <time>2022-05-31T08:52:06Z</time>
      </trkpt>
      <trkpt lat="49.03846" lon="2.04103">
        <ele>18</ele>
        <time>2022-05-31T08:52:09Z</time>
      </trkpt>
      <trkpt lat="49.0385" lon="2.041">
        <ele>20.8</ele>
        <time>2022-05-31T08:52:13Z</time>
      </trkpt>
      <trkpt lat="49.03852" lon="2.04093">
        <ele>18.9</ele>
        <time>2022-05-31T08:52:27Z</time>
      </trkpt>
      <trkpt lat="49.03853" lon="2.04085">
        <ele>18.3</ele>
        <time>2022-05-31T08:52:32Z</time>
      </trkpt>
      <trkpt lat="49.03858" lon="2.04082">
        <ele>18.4</ele>
        <time>2022-05-31T08:52:39Z</time>
      </trkpt>
      <trkpt lat="49.03863" lon="2.04082">
        <ele>16.3</ele>
        <time>2022-05-31T08:52:59Z</time>
      </trkpt>
      <trkpt lat="49.03868" lon="2.04081">
        <ele>16.9</ele>
        <time>2022-05-31T08:53:02Z</time>
      </trkpt>
      <trkpt lat="49.03872" lon="2.04078">
        <ele>17.2</ele>
        <time>2022-05-31T08:53:05Z</time>
      </trkpt>
      <trkpt lat="49.03877" lon="2.04074">
        <ele>17</ele>
        <time>2022-05-31T08:53:08Z</time>
      </trkpt>
      <trkpt lat="49.03881" lon="2.04071">
        <ele>19</ele>
        <time>2022-05-31T08:53:12Z</time>
      </trkpt>
      <trkpt lat="49.03885" lon="2.04068">
        <ele>20.1</ele>
        <time>2022-05-31T08:53:15Z</time>
      </trkpt>
      <trkpt lat="49.0389" lon="2.04066">
        <ele>17.1</ele>
        <time>2022-05-31T08:53:20Z</time>
      </trkpt>
      <trkpt lat="49.03895" lon="2.04062">
        <ele>17</ele>
        <time>2022-05-31T08:53:25Z</time>
      </trkpt>
      <trkpt lat="49.039" lon="2.04061">
        <ele>16.8</ele>
        <time>2022-05-31T08:53:29Z</time>
      </trkpt>
      <trkpt lat="49.03905" lon="2.0406">
        <ele>14.1</ele>
        <time>2022-05-31T08:53:33Z</time>
      </trkpt>
      <trkpt lat="49.03908" lon="2.04065">
        <ele>14.3</ele>
        <time>2022-05-31T08:53:37Z</time>
      </trkpt>
      <trkpt lat="49.03912" lon="2.04072">
        <ele>16.4</ele>
        <time>2022-05-31T08:53:41Z</time>
      </trkpt>
      <trkpt lat="49.03915" lon="2.04079">
        <ele>16.9</ele>
        <time>2022-05-31T08:53:44Z</time>
      </trkpt>
      <trkpt lat="49.03918" lon="2.04087">
        <ele>16.1</ele>
        <time>2022-05-31T08:53:48Z</time>
      </trkpt>
      <trkpt lat="49.03921" lon="2.04094">
        <ele>15.6</ele>
        <time>2022-05-31T08:53:52Z</time>
      </trkpt>
      <trkpt lat="49.03923" lon="2.04101">
        <ele>15.2</ele>
        <time>2022-05-31T08:53:56Z</time>
      </trkpt>
      <trkpt lat="49.03925" lon="2.04108">
        <ele>15.1</ele>
        <time>2022-05-31T08:53:59Z</time>
      </trkpt>
      <trkpt lat="49.03926" lon="2.04116">
        <ele>15</ele>
        <time>2022-05-31T08:54:03Z</time>
      </trkpt>
      <trkpt lat="49.03928" lon="2.04123">
        <ele>15</ele>
        <time>2022-05-31T08:54:07Z</time>
      </trkpt>
      <trkpt lat="49.03932" lon="2.04129">
        <ele>15.5</ele>
        <time>2022-05-31T08:54:11Z</time>
      </trkpt>
      <trkpt lat="49.03936" lon="2.04133">
        <ele>14.7</ele>
        <time>2022-05-31T08:54:16Z</time>
      </trkpt>
      <trkpt lat="49.0394" lon="2.04138">
        <ele>14.6</ele>
        <time>2022-05-31T08:54:20Z</time>
      </trkpt>
      <trkpt lat="49.03943" lon="2.04145">
        <ele>15</ele>
        <time>2022-05-31T08:54:25Z</time>
      </trkpt>
      <trkpt lat="49.03946" lon="2.04151">
        <ele>16.2</ele>
        <time>2022-05-31T08:54:29Z</time>
      </trkpt>
      <trkpt lat="49.0395" lon="2.04153">
        <ele>21.2</ele>
        <time>2022-05-31T08:54:47Z</time>
      </trkpt>
      <trkpt lat="49.03953" lon="2.04161">
        <ele>22.3</ele>
        <time>2022-05-31T08:54:51Z</time>
      </trkpt>
      <trkpt lat="49.03956" lon="2.04167">
        <ele>23.6</ele>
        <time>2022-05-31T08:55:20Z</time>
      </trkpt>
      <trkpt lat="49.0396" lon="2.04176">
        <ele>20.5</ele>
        <time>2022-05-31T08:55:25Z</time>
      </trkpt>
      <trkpt lat="49.03963" lon="2.04182">
        <ele>19.7</ele>
        <time>2022-05-31T08:55:32Z</time>
      </trkpt>
      <trkpt lat="49.03967" lon="2.04187">
        <ele>17.8</ele>
        <time>2022-05-31T08:55:48Z</time>
      </trkpt>
      <trkpt lat="49.0397" lon="2.04192">
        <ele>18.4</ele>
        <time>2022-05-31T08:55:53Z</time>
      </trkpt>
      <trkpt lat="49.03974" lon="2.04187">
        <ele>19.6</ele>
        <time>2022-05-31T08:55:58Z</time>
      </trkpt>
      <trkpt lat="49.03973" lon="2.04181">
        <ele>17.3</ele>
        <time>2022-05-31T08:56:04Z</time>
      </trkpt>
      <trkpt lat="49.03977" lon="2.04175">
        <ele>15.9</ele>
        <time>2022-05-31T08:56:15Z</time>
      </trkpt>
      <trkpt lat="49.03974" lon="2.04169">
        <ele>13.9</ele>
        <time>2022-05-31T08:56:25Z</time>
      </trkpt>
      <trkpt lat="49.03974" lon="2.04161">
        <ele>15.9</ele>
        <time>2022-05-31T08:56:30Z</time>
      </trkpt>
      <trkpt lat="49.03977" lon="2.04153">
        <ele>18.2</ele>
        <time>2022-05-31T08:56:36Z</time>
      </trkpt>
      <trkpt lat="49.03979" lon="2.04146">
        <ele>19.7</ele>
        <time>2022-05-31T08:56:41Z</time>
      </trkpt>
      <trkpt lat="49.03979" lon="2.04139">
        <ele>21.3</ele>
        <time>2022-05-31T08:56:47Z</time>
      </trkpt>
      <trkpt lat="49.03979" lon="2.04132">
        <ele>24.9</ele>
        <time>2022-05-31T08:56:54Z</time>
      </trkpt>
      <trkpt lat="49.03981" lon="2.04124">
        <ele>27.2</ele>
        <time>2022-05-31T08:57:19Z</time>
      </trkpt>
      <trkpt lat="49.03983" lon="2.04116">
        <ele>26.5</ele>
        <time>2022-05-31T08:57:35Z</time>
      </trkpt>
      <trkpt lat="49.03982" lon="2.04108">
        <ele>26.5</ele>
        <time>2022-05-31T08:57:40Z</time>
      </trkpt>
      <trkpt lat="49.03979" lon="2.04102">
        <ele>26.7</ele>
        <time>2022-05-31T08:57:45Z</time>
      </trkpt>
      <trkpt lat="49.03977" lon="2.04095">
        <ele>28.2</ele>
        <time>2022-05-31T08:57:49Z</time>
      </trkpt>
      <trkpt lat="49.03974" lon="2.04088">
        <ele>28.9</ele>
        <time>2022-05-31T08:57:53Z</time>
      </trkpt>
      <trkpt lat="49.03971" lon="2.04081">
        <ele>28.6</ele>
        <time>2022-05-31T08:57:56Z</time>
      </trkpt>
      <trkpt lat="49.03972" lon="2.04074">
        <ele>29.3</ele>
        <time>2022-05-31T08:58:00Z</time>
      </trkpt>
      <trkpt lat="49.03976" lon="2.04069">
        <ele>29.7</ele>
        <time>2022-05-31T08:58:05Z</time>
      </trkpt>
      <trkpt lat="49.03981" lon="2.04064">
        <ele>30.3</ele>
        <time>2022-05-31T08:58:10Z</time>
      </trkpt>
      <trkpt lat="49.03984" lon="2.0406">
        <ele>30.5</ele>
        <time>2022-05-31T08:58:14Z</time>
      </trkpt>
      <trkpt lat="49.03989" lon="2.04055">
        <ele>31.3</ele>
        <time>2022-05-31T08:58:18Z</time>
      </trkpt>
      <trkpt lat="49.03993" lon="2.04051">
        <ele>32.2</ele>
        <time>2022-05-31T08:58:22Z</time>
      </trkpt>
      <trkpt lat="49.03997" lon="2.04046">
        <ele>32.6</ele>
        <time>2022-05-31T08:58:27Z</time>
      </trkpt>
      <trkpt lat="49.04001" lon="2.04042">
        <ele>32.4</ele>
        <time>2022-05-31T08:58:31Z</time>
      </trkpt>
      <trkpt lat="49.04005" lon="2.04037">
        <ele>33.1</ele>
        <time>2022-05-31T08:58:35Z</time>
      </trkpt>
      <trkpt lat="49.04009" lon="2.0403">
        <ele>33.9</ele>
        <time>2022-05-31T08:58:39Z</time>
      </trkpt>
      <trkpt lat="49.04013" lon="2.04027">
        <ele>33.6</ele>
        <time>2022-05-31T08:58:43Z</time>
      </trkpt>
      <trkpt lat="49.04017" lon="2.04023">
        <ele>35</ele>
        <time>2022-05-31T08:58:47Z</time>
      </trkpt>
      <trkpt lat="49.04022" lon="2.04018">
        <ele>34.4</ele>
        <time>2022-05-31T08:58:51Z</time>
      </trkpt>
      <trkpt lat="49.04026" lon="2.04014">
        <ele>34.3</ele>
        <time>2022-05-31T08:58:56Z</time>
      </trkpt>
      <trkpt lat="49.04031" lon="2.0401">
        <ele>36.8</ele>
        <time>2022-05-31T08:59:00Z</time>
      </trkpt>
      <trkpt lat="49.04033" lon="2.04003">
        <ele>40.6</ele>
        <time>2022-05-31T08:59:04Z</time>
      </trkpt>
      <trkpt lat="49.04034" lon="2.03996">
        <ele>41.2</ele>
        <time>2022-05-31T08:59:09Z</time>
      </trkpt>
      <trkpt lat="49.04037" lon="2.03991">
        <ele>39.9</ele>
        <time>2022-05-31T08:59:13Z</time>
      </trkpt>
      <trkpt lat="49.04043" lon="2.03986">
        <ele>40</ele>
        <time>2022-05-31T08:59:20Z</time>
      </trkpt>
      <trkpt lat="49.04047" lon="2.03982">
        <ele>40.2</ele>
        <time>2022-05-31T08:59:25Z</time>
      </trkpt>
      <trkpt lat="49.04051" lon="2.03978">
        <ele>40.4</ele>
        <time>2022-05-31T08:59:29Z</time>
      </trkpt>
      <trkpt lat="49.04056" lon="2.03973">
        <ele>41.7</ele>
        <time>2022-05-31T08:59:34Z</time>
      </trkpt>
      <trkpt lat="49.0406" lon="2.03969">
        <ele>41.7</ele>
        <time>2022-05-31T08:59:38Z</time>
      </trkpt>
      <trkpt lat="49.04065" lon="2.03965">
        <ele>42.8</ele>
        <time>2022-05-31T08:59:42Z</time>
      </trkpt>
      <trkpt lat="49.04069" lon="2.0396">
        <ele>43.4</ele>
        <time>2022-05-31T08:59:47Z</time>
      </trkpt>
      <trkpt lat="49.04073" lon="2.03957">
        <ele>43.8</ele>
        <time>2022-05-31T08:59:51Z</time>
      </trkpt>
      <trkpt lat="49.04078" lon="2.03953">
        <ele>44.2</ele>
        <time>2022-05-31T08:59:55Z</time>
      </trkpt>
      <trkpt lat="49.04081" lon="2.03948">
        <ele>43.8</ele>
        <time>2022-05-31T08:59:59Z</time>
      </trkpt>
      <trkpt lat="49.04085" lon="2.03943">
        <ele>43.4</ele>
        <time>2022-05-31T09:00:03Z</time>
      </trkpt>
      <trkpt lat="49.04088" lon="2.03938">
        <ele>44.1</ele>
        <time>2022-05-31T09:00:06Z</time>
      </trkpt>
      <trkpt lat="49.04093" lon="2.03934">
        <ele>46.1</ele>
        <time>2022-05-31T09:00:10Z</time>
      </trkpt>
      <trkpt lat="49.04096" lon="2.03928">
        <ele>46.7</ele>
        <time>2022-05-31T09:00:15Z</time>
      </trkpt>
      <trkpt lat="49.04099" lon="2.03922">
        <ele>47.6</ele>
        <time>2022-05-31T09:00:19Z</time>
      </trkpt>
      <trkpt lat="49.04101" lon="2.03915">
        <ele>48.6</ele>
        <time>2022-05-31T09:00:26Z</time>
      </trkpt>
      <trkpt lat="49.04105" lon="2.03911">
        <ele>51.6</ele>
        <time>2022-05-31T09:00:31Z</time>
      </trkpt>
      <trkpt lat="49.04111" lon="2.03908">
        <ele>53.9</ele>
        <time>2022-05-31T09:00:37Z</time>
      </trkpt>
      <trkpt lat="49.04115" lon="2.03905">
        <ele>56.1</ele>
        <time>2022-05-31T09:00:41Z</time>
      </trkpt>
      <trkpt lat="49.04119" lon="2.03901">
        <ele>58.2</ele>
        <time>2022-05-31T09:00:46Z</time>
      </trkpt>
      <trkpt lat="49.04124" lon="2.03896">
        <ele>60.7</ele>
        <time>2022-05-31T09:00:51Z</time>
      </trkpt>
      <trkpt lat="49.04128" lon="2.0389">
        <ele>61.6</ele>
        <time>2022-05-31T09:00:56Z</time>
      </trkpt>
      <trkpt lat="49.04131" lon="2.03885">
        <ele>60.6</ele>
        <time>2022-05-31T09:01:00Z</time>
      </trkpt>
      <trkpt lat="49.04136" lon="2.03882">
        <ele>61.4</ele>
        <time>2022-05-31T09:01:06Z</time>
      </trkpt>
      <trkpt lat="49.0414" lon="2.0388">
        <ele>61.4</ele>
        <time>2022-05-31T09:01:12Z</time>
      </trkpt>
      <trkpt lat="49.04145" lon="2.03875">
        <ele>62.3</ele>
        <time>2022-05-31T09:01:19Z</time>
      </trkpt>
      <trkpt lat="49.04148" lon="2.03868">
        <ele>63.2</ele>
        <time>2022-05-31T09:01:26Z</time>
      </trkpt>
      <trkpt lat="49.04149" lon="2.03862">
        <ele>64.6</ele>
        <time>2022-05-31T09:01:32Z</time>
      </trkpt>
      <trkpt lat="49.04151" lon="2.03855">
        <ele>63.5</ele>
        <time>2022-05-31T09:01:38Z</time>
      </trkpt>
      <trkpt lat="49.04154" lon="2.0385">
        <ele>63.9</ele>
        <time>2022-05-31T09:01:46Z</time>
      </trkpt>
      <trkpt lat="49.04158" lon="2.03844">
        <ele>65.7</ele>
        <time>2022-05-31T09:01:53Z</time>
      </trkpt>
      <trkpt lat="49.04161" lon="2.03838">
        <ele>65.7</ele>
        <time>2022-05-31T09:02:02Z</time>
      </trkpt>
      <trkpt lat="49.04161" lon="2.03846">
        <ele>57.3</ele>
        <time>2022-05-31T09:02:36Z</time>
      </trkpt>
      <trkpt lat="49.0416" lon="2.03852">
        <ele>57.5</ele>
        <time>2022-05-31T09:02:49Z</time>
      </trkpt>
      <trkpt lat="49.04157" lon="2.03845">
        <ele>62.4</ele>
        <time>2022-05-31T09:05:15Z</time>
      </trkpt>
      <trkpt lat="49.04153" lon="2.03842">
        <ele>62.9</ele>
        <time>2022-05-31T09:05:20Z</time>
      </trkpt>
      <trkpt lat="49.04149" lon="2.03837">
        <ele>63.5</ele>
        <time>2022-05-31T09:05:25Z</time>
      </trkpt>
      <trkpt lat="49.04146" lon="2.03831">
        <ele>63.1</ele>
        <time>2022-05-31T09:05:29Z</time>
      </trkpt>
      <trkpt lat="49.04143" lon="2.03825">
        <ele>64.9</ele>
        <time>2022-05-31T09:05:33Z</time>
      </trkpt>
      <trkpt lat="49.0414" lon="2.03819">
        <ele>64</ele>
        <time>2022-05-31T09:05:37Z</time>
      </trkpt>
      <trkpt lat="49.04137" lon="2.03814">
        <ele>63</ele>
        <time>2022-05-31T09:05:40Z</time>
      </trkpt>
      <trkpt lat="49.04132" lon="2.03811">
        <ele>61.9</ele>
        <time>2022-05-31T09:05:45Z</time>
      </trkpt>
      <trkpt lat="49.04133" lon="2.0382">
        <ele>68.1</ele>
        <time>2022-05-31T09:05:56Z</time>
      </trkpt>
      <trkpt lat="49.04132" lon="2.03828">
        <ele>68.8</ele>
        <time>2022-05-31T09:06:00Z</time>
      </trkpt>
      <trkpt lat="49.04131" lon="2.0382">
        <ele>67.9</ele>
        <time>2022-05-31T09:06:37Z</time>
      </trkpt>
      <trkpt lat="49.04129" lon="2.03813">
        <ele>68.1</ele>
        <time>2022-05-31T09:06:42Z</time>
      </trkpt>
      <trkpt lat="49.04126" lon="2.03806">
        <ele>66.4</ele>
        <time>2022-05-31T09:06:47Z</time>
      </trkpt>
      <trkpt lat="49.04122" lon="2.038">
        <ele>63.8</ele>
        <time>2022-05-31T09:06:50Z</time>
      </trkpt>
      <trkpt lat="49.04118" lon="2.03794">
        <ele>62.5</ele>
        <time>2022-05-31T09:06:54Z</time>
      </trkpt>
      <trkpt lat="49.04115" lon="2.03789">
        <ele>63.3</ele>
        <time>2022-05-31T09:06:57Z</time>
      </trkpt>
      <trkpt lat="49.04101" lon="2.03766">
        <ele>58.3</ele>
        <time>2022-05-31T09:07:17Z</time>
      </trkpt>
      <trkpt lat="49.04097" lon="2.0376">
        <ele>58.9</ele>
        <time>2022-05-31T09:07:21Z</time>
      </trkpt>
      <trkpt lat="49.04091" lon="2.03747">
        <ele>56.2</ele>
        <time>2022-05-31T09:07:28Z</time>
      </trkpt>
      <trkpt lat="49.04078" lon="2.03723">
        <ele>51</ele>
        <time>2022-05-31T09:07:43Z</time>
      </trkpt>
      <trkpt lat="49.04074" lon="2.03719">
        <ele>49.9</ele>
        <time>2022-05-31T09:07:47Z</time>
      </trkpt>
      <trkpt lat="49.0407" lon="2.03714">
        <ele>49.7</ele>
        <time>2022-05-31T09:07:51Z</time>
      </trkpt>
      <trkpt lat="49.04066" lon="2.03709">
        <ele>52.9</ele>
        <time>2022-05-31T09:07:55Z</time>
      </trkpt>
      <trkpt lat="49.04062" lon="2.03703">
        <ele>52.7</ele>
        <time>2022-05-31T09:07:59Z</time>
      </trkpt>
      <trkpt lat="49.04058" lon="2.03699">
        <ele>54.2</ele>
        <time>2022-05-31T09:08:03Z</time>
      </trkpt>
      <trkpt lat="49.04054" lon="2.03694">
        <ele>50.9</ele>
        <time>2022-05-31T09:08:07Z</time>
      </trkpt>
      <trkpt lat="49.0405" lon="2.03689">
        <ele>52.1</ele>
        <time>2022-05-31T09:08:11Z</time>
      </trkpt>
      <trkpt lat="49.04046" lon="2.03684">
        <ele>52</ele>
        <time>2022-05-31T09:08:15Z</time>
      </trkpt>
      <trkpt lat="49.04041" lon="2.03679">
        <ele>50.9</ele>
        <time>2022-05-31T09:08:20Z</time>
      </trkpt>
      <trkpt lat="49.04037" lon="2.03674">
        <ele>50.9</ele>
        <time>2022-05-31T09:08:24Z</time>
      </trkpt>
      <trkpt lat="49.04033" lon="2.0367">
        <ele>50.8</ele>
        <time>2022-05-31T09:08:27Z</time>
      </trkpt>
      <trkpt lat="49.04029" lon="2.03664">
        <ele>51.2</ele>
        <time>2022-05-31T09:08:32Z</time>
      </trkpt>
      <trkpt lat="49.0402" lon="2.03651">
        <ele>55.8</ele>
        <time>2022-05-31T09:08:43Z</time>
      </trkpt>
      <trkpt lat="49.04015" lon="2.03648">
        <ele>56.9</ele>
        <time>2022-05-31T09:08:47Z</time>
      </trkpt>
      <trkpt lat="49.04011" lon="2.03646">
        <ele>56.2</ele>
        <time>2022-05-31T09:08:51Z</time>
      </trkpt>
      <trkpt lat="49.04007" lon="2.03642">
        <ele>55.9</ele>
        <time>2022-05-31T09:08:54Z</time>
      </trkpt>
      <trkpt lat="49.04002" lon="2.03637">
        <ele>57.1</ele>
        <time>2022-05-31T09:08:58Z</time>
      </trkpt>
      <trkpt lat="49.03999" lon="2.03631">
        <ele>57.4</ele>
        <time>2022-05-31T09:09:02Z</time>
      </trkpt>
      <trkpt lat="49.03996" lon="2.03625">
        <ele>57.9</ele>
        <time>2022-05-31T09:09:05Z</time>
      </trkpt>
      <trkpt lat="49.03992" lon="2.03619">
        <ele>58.6</ele>
        <time>2022-05-31T09:09:09Z</time>
      </trkpt>
      <trkpt lat="49.03988" lon="2.03612">
        <ele>56.6</ele>
        <time>2022-05-31T09:09:14Z</time>
      </trkpt>
      <trkpt lat="49.03985" lon="2.03608">
        <ele>56.6</ele>
        <time>2022-05-31T09:09:17Z</time>
      </trkpt>
      <trkpt lat="49.03981" lon="2.03604">
        <ele>56.8</ele>
        <time>2022-05-31T09:09:21Z</time>
      </trkpt>
      <trkpt lat="49.03977" lon="2.03599">
        <ele>55.6</ele>
        <time>2022-05-31T09:09:24Z</time>
      </trkpt>
      <trkpt lat="49.03973" lon="2.03595">
        <ele>55.7</ele>
        <time>2022-05-31T09:09:28Z</time>
      </trkpt>
      <trkpt lat="49.03969" lon="2.03591">
        <ele>55.8</ele>
        <time>2022-05-31T09:09:32Z</time>
      </trkpt>
      <trkpt lat="49.03964" lon="2.03586">
        <ele>55.8</ele>
        <time>2022-05-31T09:09:36Z</time>
      </trkpt>
      <trkpt lat="49.03961" lon="2.03582">
        <ele>56.4</ele>
        <time>2022-05-31T09:09:40Z</time>
      </trkpt>
      <trkpt lat="49.03957" lon="2.03578">
        <ele>56.1</ele>
        <time>2022-05-31T09:09:43Z</time>
      </trkpt>
      <trkpt lat="49.03944" lon="2.03566">
        <ele>53.1</ele>
        <time>2022-05-31T09:09:54Z</time>
      </trkpt>
      <trkpt lat="49.03939" lon="2.03562">
        <ele>50.6</ele>
        <time>2022-05-31T09:09:57Z</time>
      </trkpt>
      <trkpt lat="49.03935" lon="2.03557">
        <ele>51.7</ele>
        <time>2022-05-31T09:10:01Z</time>
      </trkpt>
      <trkpt lat="49.03863" lon="2.03492">
        <ele>51.1</ele>
        <time>2022-05-31T09:11:00Z</time>
      </trkpt>
      <trkpt lat="49.03858" lon="2.03489">
        <ele>49.9</ele>
        <time>2022-05-31T09:11:02Z</time>
      </trkpt>
      <trkpt lat="49.03853" lon="2.03486">
        <ele>49</ele>
        <time>2022-05-31T09:11:06Z</time>
      </trkpt>
      <trkpt lat="49.03849" lon="2.03483">
        <ele>49.2</ele>
        <time>2022-05-31T09:11:09Z</time>
      </trkpt>
      <trkpt lat="49.03845" lon="2.03478">
        <ele>48</ele>
        <time>2022-05-31T09:11:13Z</time>
      </trkpt>
      <trkpt lat="49.0384" lon="2.03475">
        <ele>48.2</ele>
        <time>2022-05-31T09:11:17Z</time>
      </trkpt>
      <trkpt lat="49.03836" lon="2.03471">
        <ele>48.8</ele>
        <time>2022-05-31T09:11:20Z</time>
      </trkpt>
      <trkpt lat="49.03832" lon="2.03467">
        <ele>50.7</ele>
        <time>2022-05-31T09:11:23Z</time>
      </trkpt>
      <trkpt lat="49.03826" lon="2.03463">
        <ele>49.2</ele>
        <time>2022-05-31T09:11:27Z</time>
      </trkpt>
      <trkpt lat="49.03822" lon="2.0346">
        <ele>49.3</ele>
        <time>2022-05-31T09:11:31Z</time>
      </trkpt>
      <trkpt lat="49.03817" lon="2.03455">
        <ele>50.1</ele>
        <time>2022-05-31T09:11:34Z</time>
      </trkpt>
      <trkpt lat="49.03812" lon="2.0345">
        <ele>49</ele>
        <time>2022-05-31T09:11:39Z</time>
      </trkpt>
      <trkpt lat="49.03808" lon="2.03446">
        <ele>48.9</ele>
        <time>2022-05-31T09:11:42Z</time>
      </trkpt>
      <trkpt lat="49.03804" lon="2.03443">
        <ele>48.5</ele>
        <time>2022-05-31T09:11:45Z</time>
      </trkpt>
      <trkpt lat="49.03799" lon="2.0344">
        <ele>49.2</ele>
        <time>2022-05-31T09:11:48Z</time>
      </trkpt>
      <trkpt lat="49.03794" lon="2.03436">
        <ele>48.6</ele>
        <time>2022-05-31T09:11:51Z</time>
      </trkpt>
      <trkpt lat="49.03789" lon="2.03433">
        <ele>47.1</ele>
        <time>2022-05-31T09:11:55Z</time>
      </trkpt>
      <trkpt lat="49.03784" lon="2.03427">
        <ele>46.4</ele>
        <time>2022-05-31T09:12:00Z</time>
      </trkpt>
      <trkpt lat="49.03779" lon="2.03423">
        <ele>46</ele>
        <time>2022-05-31T09:12:03Z</time>
      </trkpt>
      <trkpt lat="49.03774" lon="2.03418">
        <ele>43.1</ele>
        <time>2022-05-31T09:12:07Z</time>
      </trkpt>
      <trkpt lat="49.0377" lon="2.03414">
        <ele>43.4</ele>
        <time>2022-05-31T09:12:10Z</time>
      </trkpt>
      <trkpt lat="49.03766" lon="2.03407">
        <ele>44.5</ele>
        <time>2022-05-31T09:12:15Z</time>
      </trkpt>
      <trkpt lat="49.03762" lon="2.03402">
        <ele>45.9</ele>
        <time>2022-05-31T09:12:18Z</time>
      </trkpt>
      <trkpt lat="49.03758" lon="2.03397">
        <ele>43.3</ele>
        <time>2022-05-31T09:12:22Z</time>
      </trkpt>
      <trkpt lat="49.03754" lon="2.03392">
        <ele>41.4</ele>
        <time>2022-05-31T09:12:25Z</time>
      </trkpt>
      <trkpt lat="49.03572" lon="2.02963">
        <ele>38.5</ele>
        <time>2022-05-31T09:16:32Z</time>
      </trkpt>
      <trkpt lat="49.03566" lon="2.02964">
        <ele>33.6</ele>
        <time>2022-05-31T09:16:36Z</time>
      </trkpt>
      <trkpt lat="49.03561" lon="2.02963">
        <ele>32.1</ele>
        <time>2022-05-31T09:16:39Z</time>
      </trkpt>
      <trkpt lat="49.03556" lon="2.02961">
        <ele>31.7</ele>
        <time>2022-05-31T09:16:43Z</time>
      </trkpt>
      <trkpt lat="49.03551" lon="2.0296">
        <ele>30.6</ele>
        <time>2022-05-31T09:16:46Z</time>
      </trkpt>
      <trkpt lat="49.03545" lon="2.0296">
        <ele>32</ele>
        <time>2022-05-31T09:16:50Z</time>
      </trkpt>
      <trkpt lat="49.0354" lon="2.02962">
        <ele>35.5</ele>
        <time>2022-05-31T09:16:53Z</time>
      </trkpt>
      <trkpt lat="49.03534" lon="2.02963">
        <ele>34</ele>
        <time>2022-05-31T09:16:57Z</time>
      </trkpt>
      <trkpt lat="49.03529" lon="2.02965">
        <ele>31.5</ele>
        <time>2022-05-31T09:17:01Z</time>
      </trkpt>
      <trkpt lat="49.03524" lon="2.02966">
        <ele>31.5</ele>
        <time>2022-05-31T09:17:04Z</time>
      </trkpt>
      <trkpt lat="49.03519" lon="2.02968">
        <ele>32.8</ele>
        <time>2022-05-31T09:17:07Z</time>
      </trkpt>
      <trkpt lat="49.03513" lon="2.0297">
        <ele>32.7</ele>
        <time>2022-05-31T09:17:11Z</time>
      </trkpt>
      <trkpt lat="49.03508" lon="2.02973">
        <ele>34.1</ele>
        <time>2022-05-31T09:17:15Z</time>
      </trkpt>
      <trkpt lat="49.03503" lon="2.02978">
        <ele>34.8</ele>
        <time>2022-05-31T09:17:19Z</time>
      </trkpt>
      <trkpt lat="49.03499" lon="2.02983">
        <ele>34.7</ele>
        <time>2022-05-31T09:17:23Z</time>
      </trkpt>
      <trkpt lat="49.03494" lon="2.02986">
        <ele>34.4</ele>
        <time>2022-05-31T09:17:28Z</time>
      </trkpt>
      <trkpt lat="49.03495" lon="2.02993">
        <ele>35.8</ele>
        <time>2022-05-31T09:17:45Z</time>
      </trkpt>
      <trkpt lat="49.03493" lon="2.03">
        <ele>32.1</ele>
        <time>2022-05-31T09:20:56Z</time>
      </trkpt>
      <trkpt lat="49.03493" lon="2.03008">
        <ele>33.9</ele>
        <time>2022-05-31T09:21:02Z</time>
      </trkpt>
      <trkpt lat="49.03495" lon="2.03015">
        <ele>34.2</ele>
        <time>2022-05-31T09:21:05Z</time>
      </trkpt>
      <trkpt lat="49.03499" lon="2.03022">
        <ele>35.7</ele>
        <time>2022-05-31T09:21:09Z</time>
      </trkpt>
      <trkpt lat="49.03503" lon="2.03027">
        <ele>34.7</ele>
        <time>2022-05-31T09:21:13Z</time>
      </trkpt>
      <trkpt lat="49.03505" lon="2.03034">
        <ele>35.5</ele>
        <time>2022-05-31T09:21:17Z</time>
      </trkpt>
      <trkpt lat="49.03502" lon="2.03041">
        <ele>36.1</ele>
        <time>2022-05-31T09:21:23Z</time>
      </trkpt>
      <trkpt lat="49.03498" lon="2.03048">
        <ele>35.6</ele>
        <time>2022-05-31T09:21:27Z</time>
      </trkpt>
      <trkpt lat="49.03498" lon="2.03055">
        <ele>30.8</ele>
        <time>2022-05-31T09:21:33Z</time>
      </trkpt>
      <trkpt lat="49.03494" lon="2.0306">
        <ele>30.7</ele>
        <time>2022-05-31T09:21:38Z</time>
      </trkpt>
      <trkpt lat="49.03496" lon="2.03067">
        <ele>31.9</ele>
        <time>2022-05-31T09:21:44Z</time>
      </trkpt>
      <trkpt lat="49.03493" lon="2.03073">
        <ele>32.9</ele>
        <time>2022-05-31T09:21:48Z</time>
      </trkpt>
      <trkpt lat="49.0349" lon="2.03079">
        <ele>32.7</ele>
        <time>2022-05-31T09:21:52Z</time>
      </trkpt>
      <trkpt lat="49.03487" lon="2.03085">
        <ele>31.5</ele>
        <time>2022-05-31T09:21:56Z</time>
      </trkpt>
      <trkpt lat="49.03483" lon="2.03091">
        <ele>31.5</ele>
        <time>2022-05-31T09:22:01Z</time>
      </trkpt>
      <trkpt lat="49.03481" lon="2.03098">
        <ele>31.6</ele>
        <time>2022-05-31T09:22:06Z</time>
      </trkpt>
      <trkpt lat="49.03478" lon="2.03105">
        <ele>31.2</ele>
        <time>2022-05-31T09:22:10Z</time>
      </trkpt>
      <trkpt lat="49.03476" lon="2.03112">
        <ele>30.2</ele>
        <time>2022-05-31T09:22:14Z</time>
      </trkpt>
      <trkpt lat="49.03472" lon="2.03119">
        <ele>29.9</ele>
        <time>2022-05-31T09:22:19Z</time>
      </trkpt>
      <trkpt lat="49.03469" lon="2.03126">
        <ele>31.8</ele>
        <time>2022-05-31T09:22:24Z</time>
      </trkpt>
      <trkpt lat="49.03467" lon="2.03133">
        <ele>32.1</ele>
        <time>2022-05-31T09:22:27Z</time>
      </trkpt>
      <trkpt lat="49.03462" lon="2.03134">
        <ele>32</ele>
        <time>2022-05-31T09:22:31Z</time>
      </trkpt>
      <trkpt lat="49.03457" lon="2.03132">
        <ele>29.1</ele>
        <time>2022-05-31T09:22:35Z</time>
      </trkpt>
      <trkpt lat="49.03452" lon="2.0313">
        <ele>28.6</ele>
        <time>2022-05-31T09:22:41Z</time>
      </trkpt>
      <trkpt lat="49.03447" lon="2.03129">
        <ele>31.7</ele>
        <time>2022-05-31T09:22:46Z</time>
      </trkpt>
      <trkpt lat="49.03442" lon="2.03129">
        <ele>30.8</ele>
        <time>2022-05-31T09:22:51Z</time>
      </trkpt>
      <trkpt lat="49.03437" lon="2.0313">
        <ele>31.3</ele>
        <time>2022-05-31T09:22:55Z</time>
      </trkpt>
      <trkpt lat="49.03432" lon="2.03131">
        <ele>32.5</ele>
        <time>2022-05-31T09:23:00Z</time>
      </trkpt>
      <trkpt lat="49.03427" lon="2.03131">
        <ele>35</ele>
        <time>2022-05-31T09:23:05Z</time>
      </trkpt>
      <trkpt lat="49.03422" lon="2.03132">
        <ele>36.5</ele>
        <time>2022-05-31T09:23:09Z</time>
      </trkpt>
      <trkpt lat="49.03417" lon="2.03134">
        <ele>36</ele>
        <time>2022-05-31T09:23:14Z</time>
      </trkpt>
      <trkpt lat="49.03413" lon="2.03138">
        <ele>35.5</ele>
        <time>2022-05-31T09:23:18Z</time>
      </trkpt>
      <trkpt lat="49.03409" lon="2.03144">
        <ele>35</ele>
        <time>2022-05-31T09:23:23Z</time>
      </trkpt>
      <trkpt lat="49.03404" lon="2.03148">
        <ele>34.4</ele>
        <time>2022-05-31T09:23:27Z</time>
      </trkpt>
      <trkpt lat="49.03398" lon="2.03151">
        <ele>34.2</ele>
        <time>2022-05-31T09:23:32Z</time>
      </trkpt>
      <trkpt lat="49.03393" lon="2.03154">
        <ele>34.2</ele>
        <time>2022-05-31T09:23:36Z</time>
      </trkpt>
      <trkpt lat="49.03389" lon="2.03156">
        <ele>36</ele>
        <time>2022-05-31T09:23:40Z</time>
      </trkpt>
      <trkpt lat="49.03384" lon="2.03159">
        <ele>35.7</ele>
        <time>2022-05-31T09:23:44Z</time>
      </trkpt>
      <trkpt lat="49.03379" lon="2.03159">
        <ele>35.1</ele>
        <time>2022-05-31T09:23:48Z</time>
      </trkpt>
      <trkpt lat="49.03374" lon="2.0316">
        <ele>37.2</ele>
        <time>2022-05-31T09:23:52Z</time>
      </trkpt>
      <trkpt lat="49.0337" lon="2.03164">
        <ele>38.9</ele>
        <time>2022-05-31T09:23:57Z</time>
      </trkpt>
      <trkpt lat="49.03365" lon="2.03165">
        <ele>40</ele>
        <time>2022-05-31T09:24:02Z</time>
      </trkpt>
      <trkpt lat="49.03369" lon="2.03159">
        <ele>43.6</ele>
        <time>2022-05-31T09:24:05Z</time>
      </trkpt>
      <trkpt lat="49.03371" lon="2.03149">
        <ele>43.3</ele>
        <time>2022-05-31T09:24:22Z</time>
      </trkpt>
      <trkpt lat="49.0337" lon="2.03141">
        <ele>41.9</ele>
        <time>2022-05-31T09:24:27Z</time>
      </trkpt>
      <trkpt lat="49.03368" lon="2.03134">
        <ele>43.9</ele>
        <time>2022-05-31T09:24:34Z</time>
      </trkpt>
      <trkpt lat="49.03368" lon="2.03126">
        <ele>47.3</ele>
        <time>2022-05-31T09:24:39Z</time>
      </trkpt>
      <trkpt lat="49.03371" lon="2.03119">
        <ele>48.3</ele>
        <time>2022-05-31T09:24:43Z</time>
      </trkpt>
      <trkpt lat="49.03375" lon="2.03115">
        <ele>46.7</ele>
        <time>2022-05-31T09:24:53Z</time>
      </trkpt>
      <trkpt lat="49.03378" lon="2.03109">
        <ele>49</ele>
        <time>2022-05-31T09:24:57Z</time>
      </trkpt>
      <trkpt lat="49.0338" lon="2.03101">
        <ele>49.6</ele>
        <time>2022-05-31T09:25:02Z</time>
      </trkpt>
      <trkpt lat="49.03381" lon="2.03093">
        <ele>49.8</ele>
        <time>2022-05-31T09:25:07Z</time>
      </trkpt>
      <trkpt lat="49.03381" lon="2.03086">
        <ele>48.2</ele>
        <time>2022-05-31T09:25:12Z</time>
      </trkpt>
      <trkpt lat="49.03381" lon="2.03078">
        <ele>51.1</ele>
        <time>2022-05-31T09:25:16Z</time>
      </trkpt>
      <trkpt lat="49.03384" lon="2.03071">
        <ele>54.7</ele>
        <time>2022-05-31T09:25:21Z</time>
      </trkpt>
      <trkpt lat="49.03387" lon="2.03064">
        <ele>54.7</ele>
        <time>2022-05-31T09:25:26Z</time>
      </trkpt>
      <trkpt lat="49.03389" lon="2.03056">
        <ele>52.6</ele>
        <time>2022-05-31T09:25:31Z</time>
      </trkpt>
      <trkpt lat="49.03391" lon="2.03048">
        <ele>53.2</ele>
        <time>2022-05-31T09:25:36Z</time>
      </trkpt>
      <trkpt lat="49.03393" lon="2.0304">
        <ele>55.3</ele>
        <time>2022-05-31T09:25:41Z</time>
      </trkpt>
      <trkpt lat="49.03395" lon="2.03032">
        <ele>56</ele>
        <time>2022-05-31T09:25:45Z</time>
      </trkpt>
      <trkpt lat="49.03398" lon="2.03025">
        <ele>55.8</ele>
        <time>2022-05-31T09:25:50Z</time>
      </trkpt>
      <trkpt lat="49.03399" lon="2.03018">
        <ele>56.5</ele>
        <time>2022-05-31T09:25:55Z</time>
      </trkpt>
      <trkpt lat="49.03401" lon="2.03009">
        <ele>56.3</ele>
        <time>2022-05-31T09:25:59Z</time>
      </trkpt>
      <trkpt lat="49.03403" lon="2.03001">
        <ele>55.3</ele>
        <time>2022-05-31T09:26:05Z</time>
      </trkpt>
      <trkpt lat="49.03406" lon="2.02995">
        <ele>56</ele>
        <time>2022-05-31T09:26:09Z</time>
      </trkpt>
      <trkpt lat="49.03408" lon="2.02988">
        <ele>56.5</ele>
        <time>2022-05-31T09:26:14Z</time>
      </trkpt>
      <trkpt lat="49.03409" lon="2.02979">
        <ele>60.5</ele>
        <time>2022-05-31T09:26:19Z</time>
      </trkpt>
      <trkpt lat="49.0341" lon="2.02972">
        <ele>59.4</ele>
        <time>2022-05-31T09:26:23Z</time>
      </trkpt>
      <trkpt lat="49.03409" lon="2.02962">
        <ele>60.9</ele>
        <time>2022-05-31T09:26:28Z</time>
      </trkpt>
      <trkpt lat="49.03406" lon="2.02956">
        <ele>57.6</ele>
        <time>2022-05-31T09:26:32Z</time>
      </trkpt>
      <trkpt lat="49.03404" lon="2.02963">
        <ele>57.5</ele>
        <time>2022-05-31T09:26:37Z</time>
      </trkpt>
      <trkpt lat="49.03403" lon="2.02972">
        <ele>59.3</ele>
        <time>2022-05-31T09:26:41Z</time>
      </trkpt>
      <trkpt lat="49.034" lon="2.0298">
        <ele>59.4</ele>
        <time>2022-05-31T09:26:46Z</time>
      </trkpt>
      <trkpt lat="49.03399" lon="2.02987">
        <ele>60.6</ele>
        <time>2022-05-31T09:26:50Z</time>
      </trkpt>
      <trkpt lat="49.03396" lon="2.02994">
        <ele>61.2</ele>
        <time>2022-05-31T09:26:55Z</time>
      </trkpt>
      <trkpt lat="49.03391" lon="2.02998">
        <ele>61.5</ele>
        <time>2022-05-31T09:27:00Z</time>
      </trkpt>
      <trkpt lat="49.03387" lon="2.03001">
        <ele>62.9</ele>
        <time>2022-05-31T09:27:06Z</time>
      </trkpt>
      <trkpt lat="49.03381" lon="2.03001">
        <ele>62.6</ele>
        <time>2022-05-31T09:27:11Z</time>
      </trkpt>
      <trkpt lat="49.03377" lon="2.02999">
        <ele>62.7</ele>
        <time>2022-05-31T09:27:16Z</time>
      </trkpt>
      <trkpt lat="49.03372" lon="2.02995">
        <ele>65.5</ele>
        <time>2022-05-31T09:27:22Z</time>
      </trkpt>
      <trkpt lat="49.03368" lon="2.02991">
        <ele>64.4</ele>
        <time>2022-05-31T09:27:28Z</time>
      </trkpt>
      <trkpt lat="49.03363" lon="2.02988">
        <ele>67.5</ele>
        <time>2022-05-31T09:27:35Z</time>
      </trkpt>
      <trkpt lat="49.03359" lon="2.02986">
        <ele>67.5</ele>
        <time>2022-05-31T09:27:41Z</time>
      </trkpt>
      <trkpt lat="49.03355" lon="2.02985">
        <ele>69.9</ele>
        <time>2022-05-31T09:27:46Z</time>
      </trkpt>
      <trkpt lat="49.0335" lon="2.02985">
        <ele>67.9</ele>
        <time>2022-05-31T09:27:51Z</time>
      </trkpt>
      <trkpt lat="49.03345" lon="2.02989">
        <ele>69.7</ele>
        <time>2022-05-31T09:27:56Z</time>
      </trkpt>
      <trkpt lat="49.0334" lon="2.02989">
        <ele>70.9</ele>
        <time>2022-05-31T09:28:02Z</time>
      </trkpt>
      <trkpt lat="49.03334" lon="2.02987">
        <ele>70.8</ele>
        <time>2022-05-31T09:28:08Z</time>
      </trkpt>
      <trkpt lat="49.0333" lon="2.02983">
        <ele>71.3</ele>
        <time>2022-05-31T09:28:13Z</time>
      </trkpt>
      <trkpt lat="49.03328" lon="2.02975">
        <ele>66.8</ele>
        <time>2022-05-31T09:28:19Z</time>
      </trkpt>
      <trkpt lat="49.03326" lon="2.02969">
        <ele>65.8</ele>
        <time>2022-05-31T09:28:23Z</time>
      </trkpt>
      <trkpt lat="49.03323" lon="2.02962">
        <ele>63.5</ele>
        <time>2022-05-31T09:28:29Z</time>
      </trkpt>
      <trkpt lat="49.03321" lon="2.02954">
        <ele>67.2</ele>
        <time>2022-05-31T09:28:34Z</time>
      </trkpt>
      <trkpt lat="49.03324" lon="2.02947">
        <ele>66.6</ele>
        <time>2022-05-31T09:29:51Z</time>
      </trkpt>
      <trkpt lat="49.03322" lon="2.0294">
        <ele>67.2</ele>
        <time>2022-05-31T09:29:56Z</time>
      </trkpt>
      <trkpt lat="49.03317" lon="2.02939">
        <ele>69.1</ele>
        <time>2022-05-31T09:30:01Z</time>
      </trkpt>
      <trkpt lat="49.03312" lon="2.02937">
        <ele>72.2</ele>
        <time>2022-05-31T09:30:05Z</time>
      </trkpt>
      <trkpt lat="49.03308" lon="2.0294">
        <ele>71</ele>
        <time>2022-05-31T09:30:09Z</time>
      </trkpt>
      <trkpt lat="49.03302" lon="2.02942">
        <ele>70.3</ele>
        <time>2022-05-31T09:30:14Z</time>
      </trkpt>
      <trkpt lat="49.03298" lon="2.02943">
        <ele>72.3</ele>
        <time>2022-05-31T09:30:19Z</time>
      </trkpt>
      <trkpt lat="49.03293" lon="2.02942">
        <ele>72.9</ele>
        <time>2022-05-31T09:30:23Z</time>
      </trkpt>
      <trkpt lat="49.03289" lon="2.02937">
        <ele>73.5</ele>
        <time>2022-05-31T09:30:28Z</time>
      </trkpt>
      <trkpt lat="49.03283" lon="2.02936">
        <ele>74</ele>
        <time>2022-05-31T09:30:32Z</time>
      </trkpt>
      <trkpt lat="49.03279" lon="2.0294">
        <ele>75.2</ele>
        <time>2022-05-31T09:30:38Z</time>
      </trkpt>
      <trkpt lat="49.03275" lon="2.02945">
        <ele>76.8</ele>
        <time>2022-05-31T09:30:42Z</time>
      </trkpt>
      <trkpt lat="49.0327" lon="2.02945">
        <ele>80.7</ele>
        <time>2022-05-31T09:30:47Z</time>
      </trkpt>
      <trkpt lat="49.03266" lon="2.02942">
        <ele>80.5</ele>
        <time>2022-05-31T09:30:52Z</time>
      </trkpt>
      <trkpt lat="49.03262" lon="2.02938">
        <ele>80</ele>
        <time>2022-05-31T09:30:56Z</time>
      </trkpt>
      <trkpt lat="49.03257" lon="2.02936">
        <ele>78.4</ele>
        <time>2022-05-31T09:31:00Z</time>
      </trkpt>
      <trkpt lat="49.03253" lon="2.02931">
        <ele>79.2</ele>
        <time>2022-05-31T09:31:05Z</time>
      </trkpt>
      <trkpt lat="49.03248" lon="2.02928">
        <ele>78.6</ele>
        <time>2022-05-31T09:31:10Z</time>
      </trkpt>
      <trkpt lat="49.03243" lon="2.02927">
        <ele>79.1</ele>
        <time>2022-05-31T09:31:14Z</time>
      </trkpt>
      <trkpt lat="49.03239" lon="2.02924">
        <ele>79.4</ele>
        <time>2022-05-31T09:31:19Z</time>
      </trkpt>
      <trkpt lat="49.03234" lon="2.02921">
        <ele>78.6</ele>
        <time>2022-05-31T09:31:23Z</time>
      </trkpt>
      <trkpt lat="49.03229" lon="2.02921">
        <ele>80.1</ele>
        <time>2022-05-31T09:31:28Z</time>
      </trkpt>
      <trkpt lat="49.03224" lon="2.02921">
        <ele>79.6</ele>
        <time>2022-05-31T09:31:32Z</time>
      </trkpt>
      <trkpt lat="49.03219" lon="2.02921">
        <ele>79.3</ele>
        <time>2022-05-31T09:31:36Z</time>
      </trkpt>
      <trkpt lat="49.03214" lon="2.02919">
        <ele>79.1</ele>
        <time>2022-05-31T09:31:41Z</time>
      </trkpt>
      <trkpt lat="49.0321" lon="2.02914">
        <ele>77.9</ele>
        <time>2022-05-31T09:31:46Z</time>
      </trkpt>
      <trkpt lat="49.03212" lon="2.02907">
        <ele>78.2</ele>
        <time>2022-05-31T09:32:15Z</time>
      </trkpt>
      <trkpt lat="49.03209" lon="2.02901">
        <ele>78.9</ele>
        <time>2022-05-31T09:32:22Z</time>
      </trkpt>
      <trkpt lat="49.03206" lon="2.02897">
        <ele>76.8</ele>
        <time>2022-05-31T09:32:25Z</time>
      </trkpt>
      <trkpt lat="49.03202" lon="2.0289">
        <ele>76.3</ele>
        <time>2022-05-31T09:32:30Z</time>
      </trkpt>
      <trkpt lat="49.03199" lon="2.02885">
        <ele>77.1</ele>
        <time>2022-05-31T09:32:33Z</time>
      </trkpt>
      <trkpt lat="49.03196" lon="2.02879">
        <ele>78.8</ele>
        <time>2022-05-31T09:32:38Z</time>
      </trkpt>
      <trkpt lat="49.03198" lon="2.02871">
        <ele>81.7</ele>
        <time>2022-05-31T09:32:49Z</time>
      </trkpt>
      <trkpt lat="49.03196" lon="2.02865">
        <ele>81.6</ele>
        <time>2022-05-31T09:32:53Z</time>
      </trkpt>
      <trkpt lat="49.03195" lon="2.02858">
        <ele>81.1</ele>
        <time>2022-05-31T09:32:57Z</time>
      </trkpt>
      <trkpt lat="49.03191" lon="2.02854">
        <ele>79.8</ele>
        <time>2022-05-31T09:33:02Z</time>
      </trkpt>
      <trkpt lat="49.03188" lon="2.02858">
        <ele>79</ele>
        <time>2022-05-31T09:33:10Z</time>
      </trkpt>
      <trkpt lat="49.03183" lon="2.02859">
        <ele>78</ele>
        <time>2022-05-31T09:33:15Z</time>
      </trkpt>
      <trkpt lat="49.03178" lon="2.0286">
        <ele>75.2</ele>
        <time>2022-05-31T09:33:19Z</time>
      </trkpt>
      <trkpt lat="49.03173" lon="2.0286">
        <ele>74.9</ele>
        <time>2022-05-31T09:33:23Z</time>
      </trkpt>
      <trkpt lat="49.03168" lon="2.02861">
        <ele>71.9</ele>
        <time>2022-05-31T09:33:28Z</time>
      </trkpt>
      <trkpt lat="49.03163" lon="2.02864">
        <ele>73.1</ele>
        <time>2022-05-31T09:33:32Z</time>
      </trkpt>
      <trkpt lat="49.03159" lon="2.02867">
        <ele>75.6</ele>
        <time>2022-05-31T09:33:37Z</time>
      </trkpt>
      <trkpt lat="49.03153" lon="2.02868">
        <ele>77.7</ele>
        <time>2022-05-31T09:33:41Z</time>
      </trkpt>
      <trkpt lat="49.03148" lon="2.02871">
        <ele>77.4</ele>
        <time>2022-05-31T09:33:45Z</time>
      </trkpt>
      <trkpt lat="49.03144" lon="2.02873">
        <ele>77.9</ele>
        <time>2022-05-31T09:33:50Z</time>
      </trkpt>
      <trkpt lat="49.03139" lon="2.02874">
        <ele>77.6</ele>
        <time>2022-05-31T09:33:54Z</time>
      </trkpt>
      <trkpt lat="49.03134" lon="2.02876">
        <ele>79.5</ele>
        <time>2022-05-31T09:33:59Z</time>
      </trkpt>
      <trkpt lat="49.03129" lon="2.02879">
        <ele>79.4</ele>
        <time>2022-05-31T09:34:12Z</time>
      </trkpt>
      <trkpt lat="49.03124" lon="2.02881">
        <ele>80.2</ele>
        <time>2022-05-31T09:34:17Z</time>
      </trkpt>
      <trkpt lat="49.03119" lon="2.02883">
        <ele>78.9</ele>
        <time>2022-05-31T09:34:21Z</time>
      </trkpt>
      <trkpt lat="49.03114" lon="2.02885">
        <ele>78.9</ele>
        <time>2022-05-31T09:34:26Z</time>
      </trkpt>
      <trkpt lat="49.0311" lon="2.02884">
        <ele>78.5</ele>
        <time>2022-05-31T09:34:31Z</time>
      </trkpt>
      <trkpt lat="49.03105" lon="2.02882">
        <ele>78.7</ele>
        <time>2022-05-31T09:34:37Z</time>
      </trkpt>
      <trkpt lat="49.031" lon="2.0288">
        <ele>79.1</ele>
        <time>2022-05-31T09:34:44Z</time>
      </trkpt>
      <trkpt lat="49.03095" lon="2.02883">
        <ele>80.4</ele>
        <time>2022-05-31T09:34:49Z</time>
      </trkpt>
      <trkpt lat="49.03091" lon="2.02887">
        <ele>83.5</ele>
        <time>2022-05-31T09:34:55Z</time>
      </trkpt>
      <trkpt lat="49.03088" lon="2.02892">
        <ele>80.7</ele>
        <time>2022-05-31T09:36:16Z</time>
      </trkpt>
      <trkpt lat="49.03083" lon="2.0289">
        <ele>83.7</ele>
        <time>2022-05-31T09:36:50Z</time>
      </trkpt>
      <trkpt lat="49.03079" lon="2.02895">
        <ele>83.8</ele>
        <time>2022-05-31T09:37:01Z</time>
      </trkpt>
      <trkpt lat="49.03074" lon="2.02893">
        <ele>84</ele>
        <time>2022-05-31T09:37:30Z</time>
      </trkpt>
      <trkpt lat="49.03069" lon="2.02893">
        <ele>86.3</ele>
        <time>2022-05-31T09:37:35Z</time>
      </trkpt>
      <trkpt lat="49.03065" lon="2.02895">
        <ele>85.9</ele>
        <time>2022-05-31T09:37:40Z</time>
      </trkpt>
      <trkpt lat="49.0306" lon="2.02896">
        <ele>83.4</ele>
        <time>2022-05-31T09:37:46Z</time>
      </trkpt>
      <trkpt lat="49.03054" lon="2.02893">
        <ele>84.5</ele>
        <time>2022-05-31T09:38:01Z</time>
      </trkpt>
      <trkpt lat="49.03049" lon="2.02892">
        <ele>84.8</ele>
        <time>2022-05-31T09:38:04Z</time>
      </trkpt>
      <trkpt lat="49.03044" lon="2.02894">
        <ele>85.3</ele>
        <time>2022-05-31T09:38:08Z</time>
      </trkpt>
      <trkpt lat="49.03039" lon="2.02896">
        <ele>87.3</ele>
        <time>2022-05-31T09:38:12Z</time>
      </trkpt>
      <trkpt lat="49.03035" lon="2.02896">
        <ele>86.6</ele>
        <time>2022-05-31T09:38:17Z</time>
      </trkpt>
      <trkpt lat="49.0303" lon="2.02897">
        <ele>87.2</ele>
        <time>2022-05-31T09:38:21Z</time>
      </trkpt>
      <trkpt lat="49.03025" lon="2.02898">
        <ele>88.8</ele>
        <time>2022-05-31T09:38:27Z</time>
      </trkpt>
      <trkpt lat="49.03021" lon="2.029">
        <ele>87</ele>
        <time>2022-05-31T09:38:32Z</time>
      </trkpt>
      <trkpt lat="49.03016" lon="2.02902">
        <ele>86</ele>
        <time>2022-05-31T09:38:38Z</time>
      </trkpt>
      <trkpt lat="49.03011" lon="2.02904">
        <ele>87.2</ele>
        <time>2022-05-31T09:38:45Z</time>
      </trkpt>
      <trkpt lat="49.03007" lon="2.02906">
        <ele>88.8</ele>
        <time>2022-05-31T09:38:50Z</time>
      </trkpt>
      <trkpt lat="49.03002" lon="2.02908">
        <ele>87.9</ele>
        <time>2022-05-31T09:38:55Z</time>
      </trkpt>
      <trkpt lat="49.02997" lon="2.0291">
        <ele>85.7</ele>
        <time>2022-05-31T09:39:00Z</time>
      </trkpt>
      <trkpt lat="49.02992" lon="2.02912">
        <ele>84.3</ele>
        <time>2022-05-31T09:39:07Z</time>
      </trkpt>
      <trkpt lat="49.02987" lon="2.02912">
        <ele>84</ele>
        <time>2022-05-31T09:39:12Z</time>
      </trkpt>
      <trkpt lat="49.02983" lon="2.02914">
        <ele>84.9</ele>
        <time>2022-05-31T09:39:17Z</time>
      </trkpt>
      <trkpt lat="49.02978" lon="2.02915">
        <ele>86.6</ele>
        <time>2022-05-31T09:39:22Z</time>
      </trkpt>
      <trkpt lat="49.02973" lon="2.02916">
        <ele>86.3</ele>
        <time>2022-05-31T09:39:26Z</time>
      </trkpt>
      <trkpt lat="49.02968" lon="2.02916">
        <ele>85.9</ele>
        <time>2022-05-31T09:39:32Z</time>
      </trkpt>
      <trkpt lat="49.02963" lon="2.02917">
        <ele>88.9</ele>
        <time>2022-05-31T09:39:37Z</time>
      </trkpt>
      <trkpt lat="49.02958" lon="2.02917">
        <ele>89.3</ele>
        <time>2022-05-31T09:39:42Z</time>
      </trkpt>
      <trkpt lat="49.02953" lon="2.02918">
        <ele>90</ele>
        <time>2022-05-31T09:39:46Z</time>
      </trkpt>
      <trkpt lat="49.02947" lon="2.02918">
        <ele>89.7</ele>
        <time>2022-05-31T09:39:52Z</time>
      </trkpt>
      <trkpt lat="49.02943" lon="2.02921">
        <ele>91.2</ele>
        <time>2022-05-31T09:39:57Z</time>
      </trkpt>
      <trkpt lat="49.02938" lon="2.02923">
        <ele>92.1</ele>
        <time>2022-05-31T09:40:01Z</time>
      </trkpt>
      <trkpt lat="49.02933" lon="2.02925">
        <ele>92.6</ele>
        <time>2022-05-31T09:40:06Z</time>
      </trkpt>
      <trkpt lat="49.02929" lon="2.02927">
        <ele>92.8</ele>
        <time>2022-05-31T09:40:12Z</time>
      </trkpt>
      <trkpt lat="49.02924" lon="2.02928">
        <ele>92.7</ele>
        <time>2022-05-31T09:40:16Z</time>
      </trkpt>
      <trkpt lat="49.02919" lon="2.0293">
        <ele>92.7</ele>
        <time>2022-05-31T09:40:22Z</time>
      </trkpt>
      <trkpt lat="49.02914" lon="2.02932">
        <ele>94.7</ele>
        <time>2022-05-31T09:40:27Z</time>
      </trkpt>
      <trkpt lat="49.02909" lon="2.02934">
        <ele>94.3</ele>
        <time>2022-05-31T09:40:32Z</time>
      </trkpt>
      <trkpt lat="49.02904" lon="2.0294">
        <ele>94</ele>
        <time>2022-05-31T09:40:36Z</time>
      </trkpt>
      <trkpt lat="49.029" lon="2.02943">
        <ele>93.1</ele>
        <time>2022-05-31T09:40:40Z</time>
      </trkpt>
      <trkpt lat="49.02896" lon="2.02947">
        <ele>92</ele>
        <time>2022-05-31T09:40:45Z</time>
      </trkpt>
      <trkpt lat="49.02891" lon="2.0295">
        <ele>90.7</ele>
        <time>2022-05-31T09:40:50Z</time>
      </trkpt>
      <trkpt lat="49.02886" lon="2.02954">
        <ele>89.3</ele>
        <time>2022-05-31T09:40:56Z</time>
      </trkpt>
      <trkpt lat="49.02882" lon="2.02957">
        <ele>86.4</ele>
        <time>2022-05-31T09:41:01Z</time>
      </trkpt>
      <trkpt lat="49.02877" lon="2.02956">
        <ele>87</ele>
        <time>2022-05-31T09:41:05Z</time>
      </trkpt>
      <trkpt lat="49.02873" lon="2.02953">
        <ele>87.5</ele>
        <time>2022-05-31T09:41:10Z</time>
      </trkpt>
      <trkpt lat="49.02868" lon="2.0295">
        <ele>89.1</ele>
        <time>2022-05-31T09:41:16Z</time>
      </trkpt>
      <trkpt lat="49.02863" lon="2.0295">
        <ele>87.6</ele>
        <time>2022-05-31T09:41:20Z</time>
      </trkpt>
      <trkpt lat="49.02858" lon="2.02949">
        <ele>87.3</ele>
        <time>2022-05-31T09:41:25Z</time>
      </trkpt>
      <trkpt lat="49.02853" lon="2.02946">
        <ele>89.1</ele>
        <time>2022-05-31T09:41:31Z</time>
      </trkpt>
      <trkpt lat="49.02849" lon="2.02943">
        <ele>90.8</ele>
        <time>2022-05-31T09:41:36Z</time>
      </trkpt>
      <trkpt lat="49.02848" lon="2.02936">
        <ele>90.7</ele>
        <time>2022-05-31T09:41:42Z</time>
      </trkpt>
      <trkpt lat="49.02847" lon="2.02929">
        <ele>91.1</ele>
        <time>2022-05-31T09:41:47Z</time>
      </trkpt>
      <trkpt lat="49.02842" lon="2.02926">
        <ele>91.4</ele>
        <time>2022-05-31T09:41:54Z</time>
      </trkpt>
      <trkpt lat="49.02837" lon="2.02926">
        <ele>88.2</ele>
        <time>2022-05-31T09:42:00Z</time>
      </trkpt>
      <trkpt lat="49.02832" lon="2.02925">
        <ele>89.2</ele>
        <time>2022-05-31T09:42:04Z</time>
      </trkpt>
      <trkpt lat="49.02827" lon="2.02924">
        <ele>90.4</ele>
        <time>2022-05-31T09:42:09Z</time>
      </trkpt>
      <trkpt lat="49.02822" lon="2.02926">
        <ele>91.4</ele>
        <time>2022-05-31T09:42:13Z</time>
      </trkpt>
      <trkpt lat="49.02819" lon="2.02933">
        <ele>88.5</ele>
        <time>2022-05-31T09:42:19Z</time>
      </trkpt>
      <trkpt lat="49.02814" lon="2.02935">
        <ele>89.8</ele>
        <time>2022-05-31T09:42:24Z</time>
      </trkpt>
      <trkpt lat="49.02809" lon="2.02936">
        <ele>90.5</ele>
        <time>2022-05-31T09:42:29Z</time>
      </trkpt>
      <trkpt lat="49.02805" lon="2.02938">
        <ele>90.1</ele>
        <time>2022-05-31T09:42:33Z</time>
      </trkpt>
      <trkpt lat="49.028" lon="2.02941">
        <ele>89.4</ele>
        <time>2022-05-31T09:42:38Z</time>
      </trkpt>
      <trkpt lat="49.02796" lon="2.02943">
        <ele>88.2</ele>
        <time>2022-05-31T09:42:42Z</time>
      </trkpt>
      <trkpt lat="49.02791" lon="2.02945">
        <ele>87.3</ele>
        <time>2022-05-31T09:42:47Z</time>
      </trkpt>
      <trkpt lat="49.02787" lon="2.02949">
        <ele>87.3</ele>
        <time>2022-05-31T09:42:51Z</time>
      </trkpt>
      <trkpt lat="49.02783" lon="2.02952">
        <ele>87.3</ele>
        <time>2022-05-31T09:42:55Z</time>
      </trkpt>
      <trkpt lat="49.02778" lon="2.02955">
        <ele>86.1</ele>
        <time>2022-05-31T09:43:01Z</time>
      </trkpt>
      <trkpt lat="49.02772" lon="2.02958">
        <ele>88</ele>
        <time>2022-05-31T09:43:13Z</time>
      </trkpt>
      <trkpt lat="49.02767" lon="2.0296">
        <ele>88.6</ele>
        <time>2022-05-31T09:43:18Z</time>
      </trkpt>
      <trkpt lat="49.02762" lon="2.02963">
        <ele>88</ele>
        <time>2022-05-31T09:43:21Z</time>
      </trkpt>
      <trkpt lat="49.02757" lon="2.02968">
        <ele>88.2</ele>
        <time>2022-05-31T09:43:25Z</time>
      </trkpt>
      <trkpt lat="49.02754" lon="2.02973">
        <ele>88.9</ele>
        <time>2022-05-31T09:43:28Z</time>
      </trkpt>
      <trkpt lat="49.02751" lon="2.02978">
        <ele>90</ele>
        <time>2022-05-31T09:43:31Z</time>
      </trkpt>
      <trkpt lat="49.02749" lon="2.02986">
        <ele>89.2</ele>
        <time>2022-05-31T09:43:35Z</time>
      </trkpt>
      <trkpt lat="49.02747" lon="2.02993">
        <ele>90.2</ele>
        <time>2022-05-31T09:43:40Z</time>
      </trkpt>
      <trkpt lat="49.02745" lon="2.02985">
        <ele>90.3</ele>
        <time>2022-05-31T09:43:46Z</time>
      </trkpt>
      <trkpt lat="49.02743" lon="2.02979">
        <ele>87.9</ele>
        <time>2022-05-31T09:43:51Z</time>
      </trkpt>
      <trkpt lat="49.02738" lon="2.0298">
        <ele>87.5</ele>
        <time>2022-05-31T09:43:55Z</time>
      </trkpt>
      <trkpt lat="49.02733" lon="2.02984">
        <ele>87.5</ele>
        <time>2022-05-31T09:44:00Z</time>
      </trkpt>
      <trkpt lat="49.02728" lon="2.02986">
        <ele>87.7</ele>
        <time>2022-05-31T09:44:04Z</time>
      </trkpt>
      <trkpt lat="49.02724" lon="2.02989">
        <ele>85.8</ele>
        <time>2022-05-31T09:44:08Z</time>
      </trkpt>
      <trkpt lat="49.02719" lon="2.02993">
        <ele>87.1</ele>
        <time>2022-05-31T09:44:13Z</time>
      </trkpt>
      <trkpt lat="49.02714" lon="2.02998">
        <ele>86.8</ele>
        <time>2022-05-31T09:44:17Z</time>
      </trkpt>
      <trkpt lat="49.0271" lon="2.03005">
        <ele>86.7</ele>
        <time>2022-05-31T09:44:22Z</time>
      </trkpt>
      <trkpt lat="49.02706" lon="2.0301">
        <ele>87.4</ele>
        <time>2022-05-31T09:44:26Z</time>
      </trkpt>
      <trkpt lat="49.02702" lon="2.03014">
        <ele>86.6</ele>
        <time>2022-05-31T09:44:30Z</time>
      </trkpt>
      <trkpt lat="49.02696" lon="2.03017">
        <ele>86.2</ele>
        <time>2022-05-31T09:44:34Z</time>
      </trkpt>
      <trkpt lat="49.02692" lon="2.03018">
        <ele>85.9</ele>
        <time>2022-05-31T09:44:38Z</time>
      </trkpt>
      <trkpt lat="49.02687" lon="2.0302">
        <ele>88.3</ele>
        <time>2022-05-31T09:44:43Z</time>
      </trkpt>
      <trkpt lat="49.02682" lon="2.03023">
        <ele>89.9</ele>
        <time>2022-05-31T09:44:47Z</time>
      </trkpt>
      <trkpt lat="49.02677" lon="2.03027">
        <ele>90</ele>
        <time>2022-05-31T09:44:51Z</time>
      </trkpt>
      <trkpt lat="49.02673" lon="2.03031">
        <ele>89.7</ele>
        <time>2022-05-31T09:44:55Z</time>
      </trkpt>
      <trkpt lat="49.02668" lon="2.03033">
        <ele>90</ele>
        <time>2022-05-31T09:44:59Z</time>
      </trkpt>
      <trkpt lat="49.02663" lon="2.03035">
        <ele>90.1</ele>
        <time>2022-05-31T09:45:03Z</time>
      </trkpt>
      <trkpt lat="49.02658" lon="2.03039">
        <ele>88</ele>
        <time>2022-05-31T09:45:07Z</time>
      </trkpt>
      <trkpt lat="49.02654" lon="2.03043">
        <ele>89.2</ele>
        <time>2022-05-31T09:45:11Z</time>
      </trkpt>
      <trkpt lat="49.02648" lon="2.03046">
        <ele>88</ele>
        <time>2022-05-31T09:45:15Z</time>
      </trkpt>
      <trkpt lat="49.02643" lon="2.03049">
        <ele>87.4</ele>
        <time>2022-05-31T09:45:20Z</time>
      </trkpt>
      <trkpt lat="49.02638" lon="2.03052">
        <ele>88</ele>
        <time>2022-05-31T09:45:24Z</time>
      </trkpt>
      <trkpt lat="49.02633" lon="2.03054">
        <ele>87.6</ele>
        <time>2022-05-31T09:45:29Z</time>
      </trkpt>
      <trkpt lat="49.02628" lon="2.03058">
        <ele>85.2</ele>
        <time>2022-05-31T09:45:33Z</time>
      </trkpt>
      <trkpt lat="49.02623" lon="2.03063">
        <ele>85.2</ele>
        <time>2022-05-31T09:45:38Z</time>
      </trkpt>
      <trkpt lat="49.02619" lon="2.03066">
        <ele>86.5</ele>
        <time>2022-05-31T09:45:42Z</time>
      </trkpt>
      <trkpt lat="49.02614" lon="2.03068">
        <ele>86.1</ele>
        <time>2022-05-31T09:45:46Z</time>
      </trkpt>
      <trkpt lat="49.02609" lon="2.03072">
        <ele>87.6</ele>
        <time>2022-05-31T09:45:51Z</time>
      </trkpt>
      <trkpt lat="49.02604" lon="2.03075">
        <ele>89</ele>
        <time>2022-05-31T09:45:55Z</time>
      </trkpt>
      <trkpt lat="49.02609" lon="2.03077">
        <ele>88.9</ele>
        <time>2022-05-31T09:46:04Z</time>
      </trkpt>
      <trkpt lat="49.02605" lon="2.03083">
        <ele>87.3</ele>
        <time>2022-05-31T09:46:19Z</time>
      </trkpt>
      <trkpt lat="49.02601" lon="2.03086">
        <ele>89</ele>
        <time>2022-05-31T09:46:21Z</time>
      </trkpt>
      <trkpt lat="49.02595" lon="2.03088">
        <ele>87.5</ele>
        <time>2022-05-31T09:46:23Z</time>
      </trkpt>
      <trkpt lat="49.02589" lon="2.0309">
        <ele>90.9</ele>
        <time>2022-05-31T09:46:27Z</time>
      </trkpt>
      <trkpt lat="49.02585" lon="2.03094">
        <ele>90.5</ele>
        <time>2022-05-31T09:46:30Z</time>
      </trkpt>
      <trkpt lat="49.0258" lon="2.03096">
        <ele>89.9</ele>
        <time>2022-05-31T09:46:35Z</time>
      </trkpt>
      <trkpt lat="49.02575" lon="2.03099">
        <ele>89.9</ele>
        <time>2022-05-31T09:46:39Z</time>
      </trkpt>
      <trkpt lat="49.02571" lon="2.03102">
        <ele>91</ele>
        <time>2022-05-31T09:46:43Z</time>
      </trkpt>
      <trkpt lat="49.02566" lon="2.03105">
        <ele>89.5</ele>
        <time>2022-05-31T09:46:48Z</time>
      </trkpt>
      <trkpt lat="49.02561" lon="2.03106">
        <ele>89.9</ele>
        <time>2022-05-31T09:46:53Z</time>
      </trkpt>
      <trkpt lat="49.02556" lon="2.03108">
        <ele>90.2</ele>
        <time>2022-05-31T09:47:00Z</time>
      </trkpt>
      <trkpt lat="49.02559" lon="2.03114">
        <ele>88.4</ele>
        <time>2022-05-31T09:47:05Z</time>
      </trkpt>
      <trkpt lat="49.02558" lon="2.03121">
        <ele>88.4</ele>
        <time>2022-05-31T09:47:10Z</time>
      </trkpt>
      <trkpt lat="49.02553" lon="2.03126">
        <ele>87</ele>
        <time>2022-05-31T09:47:15Z</time>
      </trkpt>
      <trkpt lat="49.02549" lon="2.03132">
        <ele>86.8</ele>
        <time>2022-05-31T09:47:21Z</time>
      </trkpt>
      <trkpt lat="49.02547" lon="2.03138">
        <ele>86.8</ele>
        <time>2022-05-31T09:47:25Z</time>
      </trkpt>
      <trkpt lat="49.02544" lon="2.03146">
        <ele>85</ele>
        <time>2022-05-31T09:47:29Z</time>
      </trkpt>
      <trkpt lat="49.02541" lon="2.03152">
        <ele>83.9</ele>
        <time>2022-05-31T09:47:33Z</time>
      </trkpt>
      <trkpt lat="49.02536" lon="2.03154">
        <ele>81.9</ele>
        <time>2022-05-31T09:47:40Z</time>
      </trkpt>
      <trkpt lat="49.02533" lon="2.03161">
        <ele>82.2</ele>
        <time>2022-05-31T09:47:45Z</time>
      </trkpt>
      <trkpt lat="49.02529" lon="2.03165">
        <ele>83</ele>
        <time>2022-05-31T09:47:49Z</time>
      </trkpt>
      <trkpt lat="49.02525" lon="2.03169">
        <ele>82.3</ele>
        <time>2022-05-31T09:47:53Z</time>
      </trkpt>
      <trkpt lat="49.0252" lon="2.03173">
        <ele>81.8</ele>
        <time>2022-05-31T09:47:58Z</time>
      </trkpt>
      <trkpt lat="49.02516" lon="2.03178">
        <ele>82.3</ele>
        <time>2022-05-31T09:48:02Z</time>
      </trkpt>
      <trkpt lat="49.02512" lon="2.03182">
        <ele>84.1</ele>
        <time>2022-05-31T09:48:06Z</time>
      </trkpt>
      <trkpt lat="49.02508" lon="2.03187">
        <ele>86.9</ele>
        <time>2022-05-31T09:48:10Z</time>
      </trkpt>
      <trkpt lat="49.02502" lon="2.03191">
        <ele>86.3</ele>
        <time>2022-05-31T09:48:14Z</time>
      </trkpt>
      <trkpt lat="49.02499" lon="2.03195">
        <ele>84.5</ele>
        <time>2022-05-31T09:48:18Z</time>
      </trkpt>
      <trkpt lat="49.02494" lon="2.03198">
        <ele>85.5</ele>
        <time>2022-05-31T09:48:22Z</time>
      </trkpt>
      <trkpt lat="49.02489" lon="2.03201">
        <ele>85.9</ele>
        <time>2022-05-31T09:48:27Z</time>
      </trkpt>
      <trkpt lat="49.02485" lon="2.03203">
        <ele>86.5</ele>
        <time>2022-05-31T09:48:31Z</time>
      </trkpt>
      <trkpt lat="49.0248" lon="2.03204">
        <ele>86.4</ele>
        <time>2022-05-31T09:48:36Z</time>
      </trkpt>
      <trkpt lat="49.02475" lon="2.03205">
        <ele>86.3</ele>
        <time>2022-05-31T09:48:40Z</time>
      </trkpt>
      <trkpt lat="49.02471" lon="2.03201">
        <ele>88.4</ele>
        <time>2022-05-31T09:48:44Z</time>
      </trkpt>
      <trkpt lat="49.02468" lon="2.03194">
        <ele>89.7</ele>
        <time>2022-05-31T09:48:48Z</time>
      </trkpt>
      <trkpt lat="49.02466" lon="2.03188">
        <ele>88.7</ele>
        <time>2022-05-31T09:48:52Z</time>
      </trkpt>
      <trkpt lat="49.02461" lon="2.03185">
        <ele>87.6</ele>
        <time>2022-05-31T09:48:58Z</time>
      </trkpt>
      <trkpt lat="49.02456" lon="2.03188">
        <ele>85.6</ele>
        <time>2022-05-31T09:49:02Z</time>
      </trkpt>
      <trkpt lat="49.02451" lon="2.03189">
        <ele>85.4</ele>
        <time>2022-05-31T09:49:07Z</time>
      </trkpt>
      <trkpt lat="49.02445" lon="2.03193">
        <ele>84.9</ele>
        <time>2022-05-31T09:49:11Z</time>
      </trkpt>
      <trkpt lat="49.02441" lon="2.03197">
        <ele>84.2</ele>
        <time>2022-05-31T09:49:16Z</time>
      </trkpt>
      <trkpt lat="49.02436" lon="2.032">
        <ele>82.5</ele>
        <time>2022-05-31T09:49:21Z</time>
      </trkpt>
      <trkpt lat="49.02432" lon="2.03203">
        <ele>81.6</ele>
        <time>2022-05-31T09:49:25Z</time>
      </trkpt>
      <trkpt lat="49.02427" lon="2.03206">
        <ele>81</ele>
        <time>2022-05-31T09:49:29Z</time>
      </trkpt>
      <trkpt lat="49.02423" lon="2.03208">
        <ele>82</ele>
        <time>2022-05-31T09:49:33Z</time>
      </trkpt>
      <trkpt lat="49.02418" lon="2.0321">
        <ele>82.9</ele>
        <time>2022-05-31T09:49:38Z</time>
      </trkpt>
      <trkpt lat="49.02413" lon="2.03213">
        <ele>82</ele>
        <time>2022-05-31T09:49:42Z</time>
      </trkpt>
      <trkpt lat="49.02409" lon="2.03217">
        <ele>82</ele>
        <time>2022-05-31T09:49:45Z</time>
      </trkpt>
      <trkpt lat="49.02404" lon="2.0322">
        <ele>80.6</ele>
        <time>2022-05-31T09:49:49Z</time>
      </trkpt>
      <trkpt lat="49.02399" lon="2.03223">
        <ele>82.8</ele>
        <time>2022-05-31T09:49:54Z</time>
      </trkpt>
      <trkpt lat="49.02394" lon="2.03227">
        <ele>82.9</ele>
        <time>2022-05-31T09:49:58Z</time>
      </trkpt>
      <trkpt lat="49.0239" lon="2.03233">
        <ele>83.3</ele>
        <time>2022-05-31T09:50:03Z</time>
      </trkpt>
      <trkpt lat="49.02386" lon="2.03239">
        <ele>82.9</ele>
        <time>2022-05-31T09:50:08Z</time>
      </trkpt>
      <trkpt lat="49.02382" lon="2.03245">
        <ele>81.9</ele>
        <time>2022-05-31T09:50:13Z</time>
      </trkpt>
      <trkpt lat="49.0238" lon="2.03252">
        <ele>82.9</ele>
        <time>2022-05-31T09:50:19Z</time>
      </trkpt>
      <trkpt lat="49.02383" lon="2.03256">
        <ele>83.9</ele>
        <time>2022-05-31T09:50:27Z</time>
      </trkpt>
      <trkpt lat="49.02385" lon="2.03262">
        <ele>83.9</ele>
        <time>2022-05-31T09:50:30Z</time>
      </trkpt>
      <trkpt lat="49.02388" lon="2.03269">
        <ele>83.6</ele>
        <time>2022-05-31T09:50:35Z</time>
      </trkpt>
      <trkpt lat="49.0239" lon="2.03277">
        <ele>83.8</ele>
        <time>2022-05-31T09:50:40Z</time>
      </trkpt>
      <trkpt lat="49.0239" lon="2.03284">
        <ele>85.6</ele>
        <time>2022-05-31T09:50:45Z</time>
      </trkpt>
      <trkpt lat="49.02387" lon="2.03277">
        <ele>87.4</ele>
        <time>2022-05-31T09:56:33Z</time>
      </trkpt>
      <trkpt lat="49.02382" lon="2.03273">
        <ele>87</ele>
        <time>2022-05-31T09:56:38Z</time>
      </trkpt>
      <trkpt lat="49.02383" lon="2.03266">
        <ele>84.7</ele>
        <time>2022-05-31T09:56:45Z</time>
      </trkpt>
      <trkpt lat="49.02379" lon="2.0326">
        <ele>84.5</ele>
        <time>2022-05-31T09:56:50Z</time>
      </trkpt>
      <trkpt lat="49.02377" lon="2.03252">
        <ele>84.9</ele>
        <time>2022-05-31T09:56:56Z</time>
      </trkpt>
      <trkpt lat="49.02375" lon="2.03245">
        <ele>82.6</ele>
        <time>2022-05-31T09:57:03Z</time>
      </trkpt>
      <trkpt lat="49.02374" lon="2.03236">
        <ele>81.7</ele>
        <time>2022-05-31T09:57:11Z</time>
      </trkpt>
      <trkpt lat="49.02372" lon="2.03228">
        <ele>84</ele>
        <time>2022-05-31T09:57:18Z</time>
      </trkpt>
      <trkpt lat="49.0237" lon="2.0322">
        <ele>85.3</ele>
        <time>2022-05-31T09:57:23Z</time>
      </trkpt>
      <trkpt lat="49.02368" lon="2.03214">
        <ele>88.3</ele>
        <time>2022-05-31T09:57:28Z</time>
      </trkpt>
      <trkpt lat="49.02366" lon="2.03206">
        <ele>88.7</ele>
        <time>2022-05-31T09:57:32Z</time>
      </trkpt>
      <trkpt lat="49.02364" lon="2.032">
        <ele>86.2</ele>
        <time>2022-05-31T09:57:38Z</time>
      </trkpt>
      <trkpt lat="49.02359" lon="2.03198">
        <ele>86.1</ele>
        <time>2022-05-31T09:57:42Z</time>
      </trkpt>
      <trkpt lat="49.02357" lon="2.03192">
        <ele>86.2</ele>
        <time>2022-05-31T09:57:52Z</time>
      </trkpt>
      <trkpt lat="49.02354" lon="2.03187">
        <ele>86.1</ele>
        <time>2022-05-31T09:57:57Z</time>
      </trkpt>
      <trkpt lat="49.0235" lon="2.03191">
        <ele>88</ele>
        <time>2022-05-31T09:58:04Z</time>
      </trkpt>
      <trkpt lat="49.02345" lon="2.03193">
        <ele>89.1</ele>
        <time>2022-05-31T09:58:10Z</time>
      </trkpt>
      <trkpt lat="49.0234" lon="2.03197">
        <ele>89.5</ele>
        <time>2022-05-31T09:58:15Z</time>
      </trkpt>
      <trkpt lat="49.02336" lon="2.03201">
        <ele>88.5</ele>
        <time>2022-05-31T09:58:19Z</time>
      </trkpt>
      <trkpt lat="49.02331" lon="2.03206">
        <ele>88.2</ele>
        <time>2022-05-31T09:58:24Z</time>
      </trkpt>
      <trkpt lat="49.02327" lon="2.0321">
        <ele>87.5</ele>
        <time>2022-05-31T09:58:29Z</time>
      </trkpt>
      <trkpt lat="49.02323" lon="2.03215">
        <ele>87.8</ele>
        <time>2022-05-31T09:58:33Z</time>
      </trkpt>
      <trkpt lat="49.02319" lon="2.03222">
        <ele>87.7</ele>
        <time>2022-05-31T09:58:39Z</time>
      </trkpt>
      <trkpt lat="49.02316" lon="2.03228">
        <ele>87.5</ele>
        <time>2022-05-31T09:58:43Z</time>
      </trkpt>
      <trkpt lat="49.02313" lon="2.03235">
        <ele>88.6</ele>
        <time>2022-05-31T09:58:47Z</time>
      </trkpt>
      <trkpt lat="49.02312" lon="2.03243">
        <ele>89</ele>
        <time>2022-05-31T09:58:51Z</time>
      </trkpt>
      <trkpt lat="49.02311" lon="2.0325">
        <ele>88.7</ele>
        <time>2022-05-31T09:58:55Z</time>
      </trkpt>
      <trkpt lat="49.02311" lon="2.03257">
        <ele>87.8</ele>
        <time>2022-05-31T09:59:00Z</time>
      </trkpt>
      <trkpt lat="49.02309" lon="2.03265">
        <ele>85.9</ele>
        <time>2022-05-31T09:59:05Z</time>
      </trkpt>
      <trkpt lat="49.02308" lon="2.03273">
        <ele>84.4</ele>
        <time>2022-05-31T09:59:09Z</time>
      </trkpt>
      <trkpt lat="49.02307" lon="2.0328">
        <ele>83.5</ele>
        <time>2022-05-31T09:59:13Z</time>
      </trkpt>
      <trkpt lat="49.02307" lon="2.03288">
        <ele>84</ele>
        <time>2022-05-31T09:59:18Z</time>
      </trkpt>
      <trkpt lat="49.02305" lon="2.03295">
        <ele>84.7</ele>
        <time>2022-05-31T09:59:21Z</time>
      </trkpt>
      <trkpt lat="49.02305" lon="2.03303">
        <ele>84.2</ele>
        <time>2022-05-31T09:59:26Z</time>
      </trkpt>
      <trkpt lat="49.02304" lon="2.0331">
        <ele>81.3</ele>
        <time>2022-05-31T09:59:31Z</time>
      </trkpt>
      <trkpt lat="49.02304" lon="2.03317">
        <ele>81.1</ele>
        <time>2022-05-31T09:59:36Z</time>
      </trkpt>
      <trkpt lat="49.02303" lon="2.03324">
        <ele>81.5</ele>
        <time>2022-05-31T09:59:40Z</time>
      </trkpt>
      <trkpt lat="49.02302" lon="2.03333">
        <ele>82.6</ele>
        <time>2022-05-31T09:59:46Z</time>
      </trkpt>
      <trkpt lat="49.02301" lon="2.03341">
        <ele>80.6</ele>
        <time>2022-05-31T09:59:51Z</time>
      </trkpt>
      <trkpt lat="49.02299" lon="2.03348">
        <ele>80.1</ele>
        <time>2022-05-31T09:59:55Z</time>
      </trkpt>
      <trkpt lat="49.02296" lon="2.03354">
        <ele>79.7</ele>
        <time>2022-05-31T09:59:59Z</time>
      </trkpt>
      <trkpt lat="49.02294" lon="2.03362">
        <ele>81</ele>
        <time>2022-05-31T10:00:03Z</time>
      </trkpt>
      <trkpt lat="49.0229" lon="2.0337">
        <ele>79.7</ele>
        <time>2022-05-31T10:00:07Z</time>
      </trkpt>
      <trkpt lat="49.02285" lon="2.03372">
        <ele>79.2</ele>
        <time>2022-05-31T10:00:11Z</time>
      </trkpt>
      <trkpt lat="49.02278" lon="2.03383">
        <ele>79.7</ele>
        <time>2022-05-31T10:00:21Z</time>
      </trkpt>
      <trkpt lat="49.02274" lon="2.03386">
        <ele>80.3</ele>
        <time>2022-05-31T10:00:24Z</time>
      </trkpt>
      <trkpt lat="49.0227" lon="2.03389">
        <ele>81.4</ele>
        <time>2022-05-31T10:00:27Z</time>
      </trkpt>
      <trkpt lat="49.02265" lon="2.03395">
        <ele>81.1</ele>
        <time>2022-05-31T10:00:32Z</time>
      </trkpt>
      <trkpt lat="49.02261" lon="2.03399">
        <ele>81</ele>
        <time>2022-05-31T10:00:35Z</time>
      </trkpt>
      <trkpt lat="49.02258" lon="2.03404">
        <ele>78.6</ele>
        <time>2022-05-31T10:00:39Z</time>
      </trkpt>
      <trkpt lat="49.02253" lon="2.03408">
        <ele>77.9</ele>
        <time>2022-05-31T10:00:43Z</time>
      </trkpt>
      <trkpt lat="49.02249" lon="2.03412">
        <ele>80.8</ele>
        <time>2022-05-31T10:00:48Z</time>
      </trkpt>
      <trkpt lat="49.02246" lon="2.03415">
        <ele>78.7</ele>
        <time>2022-05-31T10:00:51Z</time>
      </trkpt>
      <trkpt lat="49.02242" lon="2.03411">
        <ele>77</ele>
        <time>2022-05-31T10:00:56Z</time>
      </trkpt>
      <trkpt lat="49.02238" lon="2.03414">
        <ele>73.2</ele>
        <time>2022-05-31T10:01:01Z</time>
      </trkpt>
      <trkpt lat="49.02234" lon="2.03418">
        <ele>72</ele>
        <time>2022-05-31T10:01:05Z</time>
      </trkpt>
      <trkpt lat="49.02229" lon="2.03423">
        <ele>74.6</ele>
        <time>2022-05-31T10:01:11Z</time>
      </trkpt>
      <trkpt lat="49.02225" lon="2.03427">
        <ele>75.8</ele>
        <time>2022-05-31T10:01:16Z</time>
      </trkpt>
      <trkpt lat="49.02222" lon="2.03432">
        <ele>73.1</ele>
        <time>2022-05-31T10:01:20Z</time>
      </trkpt>
      <trkpt lat="49.02219" lon="2.03438">
        <ele>73.9</ele>
        <time>2022-05-31T10:01:24Z</time>
      </trkpt>
      <trkpt lat="49.02218" lon="2.03446">
        <ele>73</ele>
        <time>2022-05-31T10:01:29Z</time>
      </trkpt>
      <trkpt lat="49.02217" lon="2.03453">
        <ele>74.8</ele>
        <time>2022-05-31T10:01:33Z</time>
      </trkpt>
      <trkpt lat="49.02215" lon="2.0346">
        <ele>75</ele>
        <time>2022-05-31T10:01:37Z</time>
      </trkpt>
      <trkpt lat="49.02213" lon="2.03466">
        <ele>74.9</ele>
        <time>2022-05-31T10:01:41Z</time>
      </trkpt>
      <trkpt lat="49.02211" lon="2.03473">
        <ele>73.2</ele>
        <time>2022-05-31T10:01:44Z</time>
      </trkpt>
      <trkpt lat="49.02208" lon="2.03479">
        <ele>72.8</ele>
        <time>2022-05-31T10:01:49Z</time>
      </trkpt>
      <trkpt lat="49.02205" lon="2.03485">
        <ele>69.8</ele>
        <time>2022-05-31T10:01:54Z</time>
      </trkpt>
      <trkpt lat="49.02209" lon="2.03482">
        <ele>74.6</ele>
        <time>2022-05-31T10:02:00Z</time>
      </trkpt>
      <trkpt lat="49.02209" lon="2.03489">
        <ele>73.7</ele>
        <time>2022-05-31T10:02:15Z</time>
      </trkpt>
      <trkpt lat="49.02208" lon="2.03497">
        <ele>73.2</ele>
        <time>2022-05-31T10:02:18Z</time>
      </trkpt>
      <trkpt lat="49.02206" lon="2.03504">
        <ele>71</ele>
        <time>2022-05-31T10:02:21Z</time>
      </trkpt>
      <trkpt lat="49.02202" lon="2.03511">
        <ele>69.8</ele>
        <time>2022-05-31T10:02:24Z</time>
      </trkpt>
      <trkpt lat="49.02197" lon="2.03516">
        <ele>68.9</ele>
        <time>2022-05-31T10:02:28Z</time>
      </trkpt>
      <trkpt lat="49.02193" lon="2.03521">
        <ele>68</ele>
        <time>2022-05-31T10:02:31Z</time>
      </trkpt>
      <trkpt lat="49.02189" lon="2.03524">
        <ele>68.1</ele>
        <time>2022-05-31T10:02:34Z</time>
      </trkpt>
      <trkpt lat="49.02183" lon="2.03528">
        <ele>70.8</ele>
        <time>2022-05-31T10:02:39Z</time>
      </trkpt>
      <trkpt lat="49.02183" lon="2.03521">
        <ele>73.1</ele>
        <time>2022-05-31T10:02:43Z</time>
      </trkpt>
      <trkpt lat="49.02187" lon="2.03524">
        <ele>75.6</ele>
        <time>2022-05-31T10:03:19Z</time>
      </trkpt>
      <trkpt lat="49.02183" lon="2.0352">
        <ele>75.4</ele>
        <time>2022-05-31T10:03:32Z</time>
      </trkpt>
      <trkpt lat="49.02178" lon="2.03524">
        <ele>75.2</ele>
        <time>2022-05-31T10:03:36Z</time>
      </trkpt>
      <trkpt lat="49.02174" lon="2.03528">
        <ele>76.9</ele>
        <time>2022-05-31T10:03:39Z</time>
      </trkpt>
      <trkpt lat="49.02174" lon="2.03536">
        <ele>79.4</ele>
        <time>2022-05-31T10:03:41Z</time>
      </trkpt>
      <trkpt lat="49.02166" lon="2.03558">
        <ele>76.7</ele>
        <time>2022-05-31T10:03:48Z</time>
      </trkpt>
      <trkpt lat="49.02161" lon="2.03564">
        <ele>76.7</ele>
        <time>2022-05-31T10:03:52Z</time>
      </trkpt>
      <trkpt lat="49.02156" lon="2.03567">
        <ele>73.9</ele>
        <time>2022-05-31T10:03:55Z</time>
      </trkpt>
      <trkpt lat="49.02154" lon="2.03574">
        <ele>75.2</ele>
        <time>2022-05-31T10:04:00Z</time>
      </trkpt>
      <trkpt lat="49.0215" lon="2.03578">
        <ele>73.2</ele>
        <time>2022-05-31T10:04:03Z</time>
      </trkpt>
      <trkpt lat="49.02144" lon="2.03582">
        <ele>74.8</ele>
        <time>2022-05-31T10:04:07Z</time>
      </trkpt>
      <trkpt lat="49.02139" lon="2.03586">
        <ele>73.9</ele>
        <time>2022-05-31T10:04:11Z</time>
      </trkpt>
      <trkpt lat="49.02135" lon="2.03591">
        <ele>74</ele>
        <time>2022-05-31T10:04:15Z</time>
      </trkpt>
      <trkpt lat="49.0213" lon="2.03593">
        <ele>73.9</ele>
        <time>2022-05-31T10:04:18Z</time>
      </trkpt>
      <trkpt lat="49.02125" lon="2.03596">
        <ele>70.9</ele>
        <time>2022-05-31T10:04:23Z</time>
      </trkpt>
      <trkpt lat="49.0212" lon="2.036">
        <ele>68.4</ele>
        <time>2022-05-31T10:04:27Z</time>
      </trkpt>
      <trkpt lat="49.02116" lon="2.03605">
        <ele>68.4</ele>
        <time>2022-05-31T10:04:32Z</time>
      </trkpt>
      <trkpt lat="49.02112" lon="2.03609">
        <ele>69.6</ele>
        <time>2022-05-31T10:04:35Z</time>
      </trkpt>
      <trkpt lat="49.02108" lon="2.0361">
        <ele>70.6</ele>
        <time>2022-05-31T10:04:39Z</time>
      </trkpt>
      <trkpt lat="49.02103" lon="2.03613">
        <ele>69.1</ele>
        <time>2022-05-31T10:04:43Z</time>
      </trkpt>
      <trkpt lat="49.02101" lon="2.03621">
        <ele>67.3</ele>
        <time>2022-05-31T10:04:48Z</time>
      </trkpt>
      <trkpt lat="49.02096" lon="2.03627">
        <ele>66.9</ele>
        <time>2022-05-31T10:04:52Z</time>
      </trkpt>
      <trkpt lat="49.02091" lon="2.0363">
        <ele>66.2</ele>
        <time>2022-05-31T10:04:57Z</time>
      </trkpt>
      <trkpt lat="49.02087" lon="2.03634">
        <ele>66</ele>
        <time>2022-05-31T10:05:01Z</time>
      </trkpt>
      <trkpt lat="49.02084" lon="2.0364">
        <ele>67.2</ele>
        <time>2022-05-31T10:05:05Z</time>
      </trkpt>
      <trkpt lat="49.0208" lon="2.03646">
        <ele>67.3</ele>
        <time>2022-05-31T10:05:09Z</time>
      </trkpt>
      <trkpt lat="49.02077" lon="2.0365">
        <ele>68.9</ele>
        <time>2022-05-31T10:05:12Z</time>
      </trkpt>
      <trkpt lat="49.02072" lon="2.03655">
        <ele>67.3</ele>
        <time>2022-05-31T10:05:16Z</time>
      </trkpt>
      <trkpt lat="49.02068" lon="2.03661">
        <ele>67.8</ele>
        <time>2022-05-31T10:05:21Z</time>
      </trkpt>
      <trkpt lat="49.02065" lon="2.03667">
        <ele>67.7</ele>
        <time>2022-05-31T10:05:24Z</time>
      </trkpt>
      <trkpt lat="49.02061" lon="2.03673">
        <ele>68.4</ele>
        <time>2022-05-31T10:05:28Z</time>
      </trkpt>
      <trkpt lat="49.02058" lon="2.0368">
        <ele>66</ele>
        <time>2022-05-31T10:05:33Z</time>
      </trkpt>
      <trkpt lat="49.02056" lon="2.03688">
        <ele>65.7</ele>
        <time>2022-05-31T10:05:37Z</time>
      </trkpt>
      <trkpt lat="49.02054" lon="2.03695">
        <ele>65.8</ele>
        <time>2022-05-31T10:05:42Z</time>
      </trkpt>
      <trkpt lat="49.02052" lon="2.03703">
        <ele>66.3</ele>
        <time>2022-05-31T10:05:47Z</time>
      </trkpt>
      <trkpt lat="49.02049" lon="2.03711">
        <ele>66.2</ele>
        <time>2022-05-31T10:05:59Z</time>
      </trkpt>
      <trkpt lat="49.02047" lon="2.03717">
        <ele>65.8</ele>
        <time>2022-05-31T10:06:03Z</time>
      </trkpt>
      <trkpt lat="49.02043" lon="2.03724">
        <ele>64.8</ele>
        <time>2022-05-31T10:06:07Z</time>
      </trkpt>
      <trkpt lat="49.0204" lon="2.0373">
        <ele>64.9</ele>
        <time>2022-05-31T10:06:11Z</time>
      </trkpt>
      <trkpt lat="49.02038" lon="2.03737">
        <ele>65.4</ele>
        <time>2022-05-31T10:06:16Z</time>
      </trkpt>
      <trkpt lat="49.02034" lon="2.03742">
        <ele>62.9</ele>
        <time>2022-05-31T10:06:20Z</time>
      </trkpt>
      <trkpt lat="49.0203" lon="2.03748">
        <ele>61.6</ele>
        <time>2022-05-31T10:06:25Z</time>
      </trkpt>
      <trkpt lat="49.02026" lon="2.03752">
        <ele>60.5</ele>
        <time>2022-05-31T10:06:29Z</time>
      </trkpt>
      <trkpt lat="49.02021" lon="2.03757">
        <ele>58.1</ele>
        <time>2022-05-31T10:06:34Z</time>
      </trkpt>
      <trkpt lat="49.02022" lon="2.03764">
        <ele>58</ele>
        <time>2022-05-31T10:06:42Z</time>
      </trkpt>
      <trkpt lat="49.02025" lon="2.0377">
        <ele>60.6</ele>
        <time>2022-05-31T10:06:53Z</time>
      </trkpt>
      <trkpt lat="49.02026" lon="2.03778">
        <ele>62</ele>
        <time>2022-05-31T10:06:57Z</time>
      </trkpt>
      <trkpt lat="49.02026" lon="2.03785">
        <ele>63</ele>
        <time>2022-05-31T10:07:02Z</time>
      </trkpt>
      <trkpt lat="49.02024" lon="2.03793">
        <ele>63.2</ele>
        <time>2022-05-31T10:07:07Z</time>
      </trkpt>
      <trkpt lat="49.02025" lon="2.03801">
        <ele>63.8</ele>
        <time>2022-05-31T10:07:13Z</time>
      </trkpt>
      <trkpt lat="49.02026" lon="2.03809">
        <ele>64.2</ele>
        <time>2022-05-31T10:07:18Z</time>
      </trkpt>
      <trkpt lat="49.02027" lon="2.03817">
        <ele>62</ele>
        <time>2022-05-31T10:07:24Z</time>
      </trkpt>
      <trkpt lat="49.02027" lon="2.03826">
        <ele>64.5</ele>
        <time>2022-05-31T10:07:29Z</time>
      </trkpt>
      <trkpt lat="49.02029" lon="2.03833">
        <ele>64.3</ele>
        <time>2022-05-31T10:07:34Z</time>
      </trkpt>
      <trkpt lat="49.02029" lon="2.03841">
        <ele>64.5</ele>
        <time>2022-05-31T10:07:41Z</time>
      </trkpt>
      <trkpt lat="49.0203" lon="2.03848">
        <ele>62.3</ele>
        <time>2022-05-31T10:07:46Z</time>
      </trkpt>
      <trkpt lat="49.02028" lon="2.03855">
        <ele>55.8</ele>
        <time>2022-05-31T10:07:53Z</time>
      </trkpt>
      <trkpt lat="49.02032" lon="2.03859">
        <ele>56.4</ele>
        <time>2022-05-31T10:08:26Z</time>
      </trkpt>
      <trkpt lat="49.02031" lon="2.03866">
        <ele>53.2</ele>
        <time>2022-05-31T10:08:34Z</time>
      </trkpt>
      <trkpt lat="49.02029" lon="2.03874">
        <ele>54.8</ele>
        <time>2022-05-31T10:08:38Z</time>
      </trkpt>
      <trkpt lat="49.02028" lon="2.03881">
        <ele>57.2</ele>
        <time>2022-05-31T10:08:44Z</time>
      </trkpt>
      <trkpt lat="49.02028" lon="2.03888">
        <ele>55.7</ele>
        <time>2022-05-31T10:08:49Z</time>
      </trkpt>
      <trkpt lat="49.02024" lon="2.03894">
        <ele>50.7</ele>
        <time>2022-05-31T10:08:54Z</time>
      </trkpt>
      <trkpt lat="49.02024" lon="2.03902">
        <ele>50.4</ele>
        <time>2022-05-31T10:09:00Z</time>
      </trkpt>
      <trkpt lat="49.02024" lon="2.03909">
        <ele>49.3</ele>
        <time>2022-05-31T10:09:05Z</time>
      </trkpt>
      <trkpt lat="49.02023" lon="2.03916">
        <ele>48</ele>
        <time>2022-05-31T10:09:10Z</time>
      </trkpt>
      <trkpt lat="49.02022" lon="2.03924">
        <ele>48</ele>
        <time>2022-05-31T10:09:14Z</time>
      </trkpt>
      <trkpt lat="49.02022" lon="2.03931">
        <ele>44.7</ele>
        <time>2022-05-31T10:09:19Z</time>
      </trkpt>
      <trkpt lat="49.02021" lon="2.03939">
        <ele>40.9</ele>
        <time>2022-05-31T10:09:24Z</time>
      </trkpt>
      <trkpt lat="49.02022" lon="2.03946">
        <ele>40.2</ele>
        <time>2022-05-31T10:09:29Z</time>
      </trkpt>
      <trkpt lat="49.0202" lon="2.03953">
        <ele>39.1</ele>
        <time>2022-05-31T10:09:33Z</time>
      </trkpt>
      <trkpt lat="49.02019" lon="2.03961">
        <ele>38.4</ele>
        <time>2022-05-31T10:09:38Z</time>
      </trkpt>
      <trkpt lat="49.02018" lon="2.0397">
        <ele>38.1</ele>
        <time>2022-05-31T10:09:42Z</time>
      </trkpt>
      <trkpt lat="49.02018" lon="2.03978">
        <ele>38.1</ele>
        <time>2022-05-31T10:09:46Z</time>
      </trkpt>
      <trkpt lat="49.02018" lon="2.03985">
        <ele>38.4</ele>
        <time>2022-05-31T10:09:50Z</time>
      </trkpt>
      <trkpt lat="49.02015" lon="2.03992">
        <ele>36.2</ele>
        <time>2022-05-31T10:09:55Z</time>
      </trkpt>
      <trkpt lat="49.02012" lon="2.03999">
        <ele>34.8</ele>
        <time>2022-05-31T10:10:00Z</time>
      </trkpt>
      <trkpt lat="49.02001" lon="2.03998">
        <ele>32.2</ele>
        <time>2022-05-31T10:10:08Z</time>
      </trkpt>
      <trkpt lat="49.01996" lon="2.03998">
        <ele>30.7</ele>
        <time>2022-05-31T10:10:12Z</time>
      </trkpt>
      <trkpt lat="49.01991" lon="2.03999">
        <ele>29.2</ele>
        <time>2022-05-31T10:10:17Z</time>
      </trkpt>
      <trkpt lat="49.01986" lon="2.03999">
        <ele>29.4</ele>
        <time>2022-05-31T10:10:23Z</time>
      </trkpt>
      <trkpt lat="49.01981" lon="2.03998">
        <ele>28.2</ele>
        <time>2022-05-31T10:10:28Z</time>
      </trkpt>
      <trkpt lat="49.01976" lon="2.04">
        <ele>27</ele>
        <time>2022-05-31T10:10:33Z</time>
      </trkpt>
      <trkpt lat="49.0197" lon="2.04002">
        <ele>27</ele>
        <time>2022-05-31T10:10:37Z</time>
      </trkpt>
      <trkpt lat="49.01966" lon="2.04003">
        <ele>26.2</ele>
        <time>2022-05-31T10:10:42Z</time>
      </trkpt>
      <trkpt lat="49.01963" lon="2.0401">
        <ele>22.3</ele>
        <time>2022-05-31T10:10:47Z</time>
      </trkpt>
      <trkpt lat="49.01968" lon="2.04008">
        <ele>29</ele>
        <time>2022-05-31T10:11:01Z</time>
      </trkpt>
      <trkpt lat="49.0197" lon="2.04013">
        <ele>29.5</ele>
        <time>2022-05-31T10:11:07Z</time>
      </trkpt>
      <trkpt lat="49.01972" lon="2.04021">
        <ele>29.8</ele>
        <time>2022-05-31T10:11:12Z</time>
      </trkpt>
      <trkpt lat="49.01974" lon="2.04027">
        <ele>28.7</ele>
        <time>2022-05-31T10:11:16Z</time>
      </trkpt>
      <trkpt lat="49.01976" lon="2.04034">
        <ele>26.5</ele>
        <time>2022-05-31T10:11:21Z</time>
      </trkpt>
      <trkpt lat="49.0198" lon="2.0404">
        <ele>26.7</ele>
        <time>2022-05-31T10:11:26Z</time>
      </trkpt>
      <trkpt lat="49.01981" lon="2.04046">
        <ele>25.1</ele>
        <time>2022-05-31T10:11:31Z</time>
      </trkpt>
      <trkpt lat="49.01984" lon="2.04052">
        <ele>24.9</ele>
        <time>2022-05-31T10:11:35Z</time>
      </trkpt>
      <trkpt lat="49.01988" lon="2.04056">
        <ele>24.9</ele>
        <time>2022-05-31T10:11:40Z</time>
      </trkpt>
      <trkpt lat="49.01993" lon="2.04055">
        <ele>27.9</ele>
        <time>2022-05-31T10:11:45Z</time>
      </trkpt>
      <trkpt lat="49.01998" lon="2.04052">
        <ele>26.8</ele>
        <time>2022-05-31T10:11:49Z</time>
      </trkpt>
      <trkpt lat="49.02003" lon="2.0405">
        <ele>27.5</ele>
        <time>2022-05-31T10:11:53Z</time>
      </trkpt>
      <trkpt lat="49.02008" lon="2.04048">
        <ele>25.3</ele>
        <time>2022-05-31T10:11:59Z</time>
      </trkpt>
      <trkpt lat="49.02013" lon="2.04046">
        <ele>24.3</ele>
        <time>2022-05-31T10:12:04Z</time>
      </trkpt>
      <trkpt lat="49.02017" lon="2.04043">
        <ele>23.8</ele>
        <time>2022-05-31T10:12:09Z</time>
      </trkpt>
      <trkpt lat="49.02022" lon="2.04038">
        <ele>22.2</ele>
        <time>2022-05-31T10:12:14Z</time>
      </trkpt>
      <trkpt lat="49.02025" lon="2.04034">
        <ele>19.9</ele>
        <time>2022-05-31T10:12:19Z</time>
      </trkpt>
      <trkpt lat="49.0203" lon="2.04031">
        <ele>22.1</ele>
        <time>2022-05-31T10:12:23Z</time>
      </trkpt>
      <trkpt lat="49.02034" lon="2.04027">
        <ele>20.6</ele>
        <time>2022-05-31T10:12:28Z</time>
      </trkpt>
      <trkpt lat="49.02038" lon="2.04032">
        <ele>27.3</ele>
        <time>2022-05-31T10:12:36Z</time>
      </trkpt>
      <trkpt lat="49.02033" lon="2.04037">
        <ele>28.1</ele>
        <time>2022-05-31T10:12:42Z</time>
      </trkpt>
      <trkpt lat="49.02029" lon="2.04039">
        <ele>29</ele>
        <time>2022-05-31T10:12:48Z</time>
      </trkpt>
      <trkpt lat="49.02023" lon="2.04041">
        <ele>28.4</ele>
        <time>2022-05-31T10:12:53Z</time>
      </trkpt>
      <trkpt lat="49.02019" lon="2.04046">
        <ele>29.2</ele>
        <time>2022-05-31T10:12:58Z</time>
      </trkpt>
      <trkpt lat="49.02014" lon="2.0405">
        <ele>28</ele>
        <time>2022-05-31T10:13:03Z</time>
      </trkpt>
      <trkpt lat="49.0201" lon="2.04054">
        <ele>26.8</ele>
        <time>2022-05-31T10:13:07Z</time>
      </trkpt>
      <trkpt lat="49.02006" lon="2.04058">
        <ele>26.2</ele>
        <time>2022-05-31T10:13:11Z</time>
      </trkpt>
      <trkpt lat="49.02001" lon="2.04062">
        <ele>27.8</ele>
        <time>2022-05-31T10:13:17Z</time>
      </trkpt>
      <trkpt lat="49.01997" lon="2.04065">
        <ele>28.5</ele>
        <time>2022-05-31T10:13:21Z</time>
      </trkpt>
      <trkpt lat="49.01993" lon="2.0407">
        <ele>28.7</ele>
        <time>2022-05-31T10:13:25Z</time>
      </trkpt>
      <trkpt lat="49.01988" lon="2.04075">
        <ele>27.4</ele>
        <time>2022-05-31T10:13:30Z</time>
      </trkpt>
      <trkpt lat="49.01984" lon="2.04079">
        <ele>27.3</ele>
        <time>2022-05-31T10:13:34Z</time>
      </trkpt>
      <trkpt lat="49.01979" lon="2.04083">
        <ele>27.9</ele>
        <time>2022-05-31T10:13:39Z</time>
      </trkpt>
      <trkpt lat="49.01974" lon="2.04087">
        <ele>28.6</ele>
        <time>2022-05-31T10:13:44Z</time>
      </trkpt>
      <trkpt lat="49.0197" lon="2.04091">
        <ele>29.3</ele>
        <time>2022-05-31T10:13:48Z</time>
      </trkpt>
      <trkpt lat="49.01965" lon="2.04095">
        <ele>30.2</ele>
        <time>2022-05-31T10:13:53Z</time>
      </trkpt>
      <trkpt lat="49.01961" lon="2.04099">
        <ele>30.4</ele>
        <time>2022-05-31T10:13:57Z</time>
      </trkpt>
      <trkpt lat="49.01957" lon="2.04103">
        <ele>30.1</ele>
        <time>2022-05-31T10:14:00Z</time>
      </trkpt>
      <trkpt lat="49.01952" lon="2.04107">
        <ele>29.3</ele>
        <time>2022-05-31T10:14:04Z</time>
      </trkpt>
      <trkpt lat="49.01949" lon="2.04112">
        <ele>29.7</ele>
        <time>2022-05-31T10:14:07Z</time>
      </trkpt>
      <trkpt lat="49.01945" lon="2.04116">
        <ele>29.3</ele>
        <time>2022-05-31T10:14:11Z</time>
      </trkpt>
      <trkpt lat="49.01941" lon="2.0412">
        <ele>30</ele>
        <time>2022-05-31T10:14:15Z</time>
      </trkpt>
      <trkpt lat="49.01936" lon="2.04123">
        <ele>30.1</ele>
        <time>2022-05-31T10:14:19Z</time>
      </trkpt>
      <trkpt lat="49.01932" lon="2.04127">
        <ele>30</ele>
        <time>2022-05-31T10:14:23Z</time>
      </trkpt>
      <trkpt lat="49.01928" lon="2.04132">
        <ele>28.9</ele>
        <time>2022-05-31T10:14:27Z</time>
      </trkpt>
      <trkpt lat="49.01924" lon="2.04137">
        <ele>28.9</ele>
        <time>2022-05-31T10:14:32Z</time>
      </trkpt>
      <trkpt lat="49.01919" lon="2.04143">
        <ele>29.4</ele>
        <time>2022-05-31T10:14:36Z</time>
      </trkpt>
      <trkpt lat="49.01914" lon="2.04147">
        <ele>29.8</ele>
        <time>2022-05-31T10:14:40Z</time>
      </trkpt>
      <trkpt lat="49.01909" lon="2.04151">
        <ele>29.7</ele>
        <time>2022-05-31T10:14:45Z</time>
      </trkpt>
      <trkpt lat="49.01903" lon="2.04152">
        <ele>31.4</ele>
        <time>2022-05-31T10:14:59Z</time>
      </trkpt>
      <trkpt lat="49.019" lon="2.04157">
        <ele>30.9</ele>
        <time>2022-05-31T10:15:03Z</time>
      </trkpt>
      <trkpt lat="49.01895" lon="2.04162">
        <ele>31.1</ele>
        <time>2022-05-31T10:15:07Z</time>
      </trkpt>
      <trkpt lat="49.01892" lon="2.04166">
        <ele>30.1</ele>
        <time>2022-05-31T10:15:12Z</time>
      </trkpt>
      <trkpt lat="49.01887" lon="2.0417">
        <ele>30.1</ele>
        <time>2022-05-31T10:15:16Z</time>
      </trkpt>
      <trkpt lat="49.01883" lon="2.04174">
        <ele>31</ele>
        <time>2022-05-31T10:15:20Z</time>
      </trkpt>
      <trkpt lat="49.0188" lon="2.0418">
        <ele>31.7</ele>
        <time>2022-05-31T10:15:24Z</time>
      </trkpt>
      <trkpt lat="49.01875" lon="2.04186">
        <ele>31.7</ele>
        <time>2022-05-31T10:15:28Z</time>
      </trkpt>
      <trkpt lat="49.01872" lon="2.04191">
        <ele>32</ele>
        <time>2022-05-31T10:15:32Z</time>
      </trkpt>
      <trkpt lat="49.01868" lon="2.04196">
        <ele>33.1</ele>
        <time>2022-05-31T10:15:36Z</time>
      </trkpt>
      <trkpt lat="49.01863" lon="2.04199">
        <ele>32.3</ele>
        <time>2022-05-31T10:15:41Z</time>
      </trkpt>
      <trkpt lat="49.01859" lon="2.04202">
        <ele>31.7</ele>
        <time>2022-05-31T10:15:45Z</time>
      </trkpt>
      <trkpt lat="49.01855" lon="2.04206">
        <ele>31.7</ele>
        <time>2022-05-31T10:15:49Z</time>
      </trkpt>
      <trkpt lat="49.0185" lon="2.0421">
        <ele>31.8</ele>
        <time>2022-05-31T10:15:53Z</time>
      </trkpt>
      <trkpt lat="49.01846" lon="2.04216">
        <ele>34.6</ele>
        <time>2022-05-31T10:15:58Z</time>
      </trkpt>
      <trkpt lat="49.01842" lon="2.04222">
        <ele>36.2</ele>
        <time>2022-05-31T10:16:01Z</time>
      </trkpt>
      <trkpt lat="49.01838" lon="2.04226">
        <ele>35.6</ele>
        <time>2022-05-31T10:16:05Z</time>
      </trkpt>
      <trkpt lat="49.01833" lon="2.0423">
        <ele>37</ele>
        <time>2022-05-31T10:16:10Z</time>
      </trkpt>
      <trkpt lat="49.01829" lon="2.04233">
        <ele>36.7</ele>
        <time>2022-05-31T10:16:13Z</time>
      </trkpt>
      <trkpt lat="49.01825" lon="2.04236">
        <ele>34.8</ele>
        <time>2022-05-31T10:16:17Z</time>
      </trkpt>
      <trkpt lat="49.0182" lon="2.0424">
        <ele>35.4</ele>
        <time>2022-05-31T10:16:21Z</time>
      </trkpt>
      <trkpt lat="49.01816" lon="2.04243">
        <ele>36.8</ele>
        <time>2022-05-31T10:16:25Z</time>
      </trkpt>
      <trkpt lat="49.01812" lon="2.04247">
        <ele>37.8</ele>
        <time>2022-05-31T10:16:29Z</time>
      </trkpt>
      <trkpt lat="49.01807" lon="2.04251">
        <ele>36.2</ele>
        <time>2022-05-31T10:16:34Z</time>
      </trkpt>
      <trkpt lat="49.01803" lon="2.04256">
        <ele>36.8</ele>
        <time>2022-05-31T10:16:38Z</time>
      </trkpt>
      <trkpt lat="49.01799" lon="2.04261">
        <ele>36.8</ele>
        <time>2022-05-31T10:16:42Z</time>
      </trkpt>
      <trkpt lat="49.01794" lon="2.04266">
        <ele>38.4</ele>
        <time>2022-05-31T10:16:46Z</time>
      </trkpt>
      <trkpt lat="49.01791" lon="2.0427">
        <ele>37</ele>
        <time>2022-05-31T10:16:50Z</time>
      </trkpt>
      <trkpt lat="49.01786" lon="2.04274">
        <ele>37.4</ele>
        <time>2022-05-31T10:16:54Z</time>
      </trkpt>
      <trkpt lat="49.01781" lon="2.04279">
        <ele>37.6</ele>
        <time>2022-05-31T10:16:59Z</time>
      </trkpt>
      <trkpt lat="49.01777" lon="2.04281">
        <ele>41</ele>
        <time>2022-05-31T10:17:02Z</time>
      </trkpt>
      <trkpt lat="49.01773" lon="2.04285">
        <ele>40.3</ele>
        <time>2022-05-31T10:17:06Z</time>
      </trkpt>
      <trkpt lat="49.01768" lon="2.0429">
        <ele>40.3</ele>
        <time>2022-05-31T10:17:10Z</time>
      </trkpt>
      <trkpt lat="49.01764" lon="2.04295">
        <ele>39.9</ele>
        <time>2022-05-31T10:17:14Z</time>
      </trkpt>
      <trkpt lat="49.01761" lon="2.04299">
        <ele>37.6</ele>
        <time>2022-05-31T10:17:18Z</time>
      </trkpt>
      <trkpt lat="49.01756" lon="2.04303">
        <ele>35.2</ele>
        <time>2022-05-31T10:17:23Z</time>
      </trkpt>
      <trkpt lat="49.01751" lon="2.04308">
        <ele>33.8</ele>
        <time>2022-05-31T10:17:27Z</time>
      </trkpt>
      <trkpt lat="49.01746" lon="2.04312">
        <ele>34.8</ele>
        <time>2022-05-31T10:17:31Z</time>
      </trkpt>
      <trkpt lat="49.01742" lon="2.04317">
        <ele>36.5</ele>
        <time>2022-05-31T10:17:35Z</time>
      </trkpt>
      <trkpt lat="49.01737" lon="2.0432">
        <ele>37.7</ele>
        <time>2022-05-31T10:17:39Z</time>
      </trkpt>
      <trkpt lat="49.01733" lon="2.04325">
        <ele>38</ele>
        <time>2022-05-31T10:17:43Z</time>
      </trkpt>
      <trkpt lat="49.01729" lon="2.0433">
        <ele>37.8</ele>
        <time>2022-05-31T10:17:47Z</time>
      </trkpt>
      <trkpt lat="49.01725" lon="2.04335">
        <ele>36.8</ele>
        <time>2022-05-31T10:17:51Z</time>
      </trkpt>
      <trkpt lat="49.01722" lon="2.04341">
        <ele>37.9</ele>
        <time>2022-05-31T10:17:56Z</time>
      </trkpt>
      <trkpt lat="49.01718" lon="2.04346">
        <ele>38</ele>
        <time>2022-05-31T10:18:00Z</time>
      </trkpt>
      <trkpt lat="49.01713" lon="2.04351">
        <ele>38</ele>
        <time>2022-05-31T10:18:05Z</time>
      </trkpt>
      <trkpt lat="49.01709" lon="2.04355">
        <ele>38.3</ele>
        <time>2022-05-31T10:18:09Z</time>
      </trkpt>
      <trkpt lat="49.01705" lon="2.04361">
        <ele>37.2</ele>
        <time>2022-05-31T10:18:15Z</time>
      </trkpt>
      <trkpt lat="49.01702" lon="2.04365">
        <ele>36.8</ele>
        <time>2022-05-31T10:18:19Z</time>
      </trkpt>
      <trkpt lat="49.01697" lon="2.04369">
        <ele>35.6</ele>
        <time>2022-05-31T10:18:25Z</time>
      </trkpt>
      <trkpt lat="49.01693" lon="2.04373">
        <ele>36.1</ele>
        <time>2022-05-31T10:18:30Z</time>
      </trkpt>
      <trkpt lat="49.01688" lon="2.04377">
        <ele>38</ele>
        <time>2022-05-31T10:18:36Z</time>
      </trkpt>
      <trkpt lat="49.01683" lon="2.04378">
        <ele>37.5</ele>
        <time>2022-05-31T10:19:01Z</time>
      </trkpt>
      <trkpt lat="49.0168" lon="2.04385">
        <ele>37.3</ele>
        <time>2022-05-31T10:19:05Z</time>
      </trkpt>
      <trkpt lat="49.01678" lon="2.04393">
        <ele>36.3</ele>
        <time>2022-05-31T10:19:10Z</time>
      </trkpt>
      <trkpt lat="49.01675" lon="2.044">
        <ele>36.5</ele>
        <time>2022-05-31T10:19:13Z</time>
      </trkpt>
      <trkpt lat="49.01671" lon="2.04407">
        <ele>36</ele>
        <time>2022-05-31T10:19:18Z</time>
      </trkpt>
      <trkpt lat="49.01668" lon="2.04412">
        <ele>36.6</ele>
        <time>2022-05-31T10:19:22Z</time>
      </trkpt>
      <trkpt lat="49.01664" lon="2.04416">
        <ele>35.2</ele>
        <time>2022-05-31T10:19:27Z</time>
      </trkpt>
      <trkpt lat="49.0166" lon="2.0442">
        <ele>37.1</ele>
        <time>2022-05-31T10:19:31Z</time>
      </trkpt>
      <trkpt lat="49.01656" lon="2.04426">
        <ele>38.2</ele>
        <time>2022-05-31T10:19:36Z</time>
      </trkpt>
      <trkpt lat="49.01652" lon="2.04432">
        <ele>39.1</ele>
        <time>2022-05-31T10:19:41Z</time>
      </trkpt>
      <trkpt lat="49.01649" lon="2.04439">
        <ele>38.6</ele>
        <time>2022-05-31T10:19:45Z</time>
      </trkpt>
      <trkpt lat="49.01645" lon="2.04445">
        <ele>39.5</ele>
        <time>2022-05-31T10:19:50Z</time>
      </trkpt>
      <trkpt lat="49.01642" lon="2.04451">
        <ele>40.4</ele>
        <time>2022-05-31T10:20:06Z</time>
      </trkpt>
      <trkpt lat="49.01639" lon="2.04456">
        <ele>40.4</ele>
        <time>2022-05-31T10:20:11Z</time>
      </trkpt>
      <trkpt lat="49.01635" lon="2.04462">
        <ele>40.5</ele>
        <time>2022-05-31T10:20:15Z</time>
      </trkpt>
      <trkpt lat="49.01632" lon="2.04468">
        <ele>40.2</ele>
        <time>2022-05-31T10:20:20Z</time>
      </trkpt>
      <trkpt lat="49.01628" lon="2.04473">
        <ele>38.6</ele>
        <time>2022-05-31T10:20:26Z</time>
      </trkpt>
      <trkpt lat="49.01624" lon="2.04478">
        <ele>38.5</ele>
        <time>2022-05-31T10:20:31Z</time>
      </trkpt>
      <trkpt lat="49.0162" lon="2.04483">
        <ele>39.3</ele>
        <time>2022-05-31T10:20:35Z</time>
      </trkpt>
      <trkpt lat="49.01616" lon="2.04488">
        <ele>40</ele>
        <time>2022-05-31T10:20:40Z</time>
      </trkpt>
      <trkpt lat="49.01612" lon="2.04493">
        <ele>40.2</ele>
        <time>2022-05-31T10:20:45Z</time>
      </trkpt>
      <trkpt lat="49.01609" lon="2.04498">
        <ele>40.8</ele>
        <time>2022-05-31T10:20:49Z</time>
      </trkpt>
      <trkpt lat="49.01605" lon="2.04505">
        <ele>41</ele>
        <time>2022-05-31T10:20:53Z</time>
      </trkpt>
      <trkpt lat="49.01602" lon="2.04511">
        <ele>38.9</ele>
        <time>2022-05-31T10:20:58Z</time>
      </trkpt>
      <trkpt lat="49.01598" lon="2.04516">
        <ele>39.5</ele>
        <time>2022-05-31T10:21:02Z</time>
      </trkpt>
      <trkpt lat="49.01594" lon="2.04522">
        <ele>39.4</ele>
        <time>2022-05-31T10:21:06Z</time>
      </trkpt>
      <trkpt lat="49.01591" lon="2.04527">
        <ele>40.2</ele>
        <time>2022-05-31T10:21:10Z</time>
      </trkpt>
      <trkpt lat="49.01587" lon="2.04533">
        <ele>39</ele>
        <time>2022-05-31T10:21:14Z</time>
      </trkpt>
      <trkpt lat="49.01584" lon="2.04539">
        <ele>40.8</ele>
        <time>2022-05-31T10:21:18Z</time>
      </trkpt>
      <trkpt lat="49.0158" lon="2.04545">
        <ele>41.4</ele>
        <time>2022-05-31T10:21:23Z</time>
      </trkpt>
      <trkpt lat="49.01577" lon="2.04551">
        <ele>42.1</ele>
        <time>2022-05-31T10:21:27Z</time>
      </trkpt>
      <trkpt lat="49.01573" lon="2.04556">
        <ele>40.6</ele>
        <time>2022-05-31T10:21:31Z</time>
      </trkpt>
      <trkpt lat="49.01569" lon="2.0456">
        <ele>40.2</ele>
        <time>2022-05-31T10:21:35Z</time>
      </trkpt>
      <trkpt lat="49.01565" lon="2.04564">
        <ele>39.3</ele>
        <time>2022-05-31T10:21:40Z</time>
      </trkpt>
      <trkpt lat="49.01562" lon="2.04571">
        <ele>40</ele>
        <time>2022-05-31T10:21:45Z</time>
      </trkpt>
      <trkpt lat="49.01558" lon="2.04577">
        <ele>40.5</ele>
        <time>2022-05-31T10:22:28Z</time>
      </trkpt>
      <trkpt lat="49.01557" lon="2.04583">
        <ele>40.3</ele>
        <time>2022-05-31T10:22:41Z</time>
      </trkpt>
      <trkpt lat="49.01553" lon="2.0459">
        <ele>41.6</ele>
        <time>2022-05-31T10:22:50Z</time>
      </trkpt>
      <trkpt lat="49.0155" lon="2.04596">
        <ele>40.4</ele>
        <time>2022-05-31T10:22:54Z</time>
      </trkpt>
      <trkpt lat="49.01547" lon="2.04601">
        <ele>40.6</ele>
        <time>2022-05-31T10:22:58Z</time>
      </trkpt>
      <trkpt lat="49.01542" lon="2.04606">
        <ele>41.9</ele>
        <time>2022-05-31T10:23:02Z</time>
      </trkpt>
      <trkpt lat="49.01539" lon="2.04612">
        <ele>42.2</ele>
        <time>2022-05-31T10:23:06Z</time>
      </trkpt>
      <trkpt lat="49.01535" lon="2.04619">
        <ele>41.1</ele>
        <time>2022-05-31T10:23:11Z</time>
      </trkpt>
      <trkpt lat="49.01532" lon="2.04626">
        <ele>41.9</ele>
        <time>2022-05-31T10:23:30Z</time>
      </trkpt>
      <trkpt lat="49.01529" lon="2.04632">
        <ele>42.4</ele>
        <time>2022-05-31T10:23:35Z</time>
      </trkpt>
      <trkpt lat="49.01526" lon="2.04638">
        <ele>44.7</ele>
        <time>2022-05-31T10:23:45Z</time>
      </trkpt>
      <trkpt lat="49.01523" lon="2.04644">
        <ele>45.2</ele>
        <time>2022-05-31T10:23:49Z</time>
      </trkpt>
      <trkpt lat="49.0152" lon="2.04651">
        <ele>44.5</ele>
        <time>2022-05-31T10:23:53Z</time>
      </trkpt>
      <trkpt lat="49.01518" lon="2.04657">
        <ele>45.7</ele>
        <time>2022-05-31T10:23:57Z</time>
      </trkpt>
      <trkpt lat="49.01516" lon="2.04664">
        <ele>47.8</ele>
        <time>2022-05-31T10:24:03Z</time>
      </trkpt>
      <trkpt lat="49.01513" lon="2.0467">
        <ele>48.1</ele>
        <time>2022-05-31T10:24:07Z</time>
      </trkpt>
      <trkpt lat="49.01509" lon="2.04677">
        <ele>47.5</ele>
        <time>2022-05-31T10:24:12Z</time>
      </trkpt>
      <trkpt lat="49.01506" lon="2.04682">
        <ele>46.8</ele>
        <time>2022-05-31T10:24:16Z</time>
      </trkpt>
      <trkpt lat="49.01503" lon="2.0469">
        <ele>46.9</ele>
        <time>2022-05-31T10:24:21Z</time>
      </trkpt>
      <trkpt lat="49.01499" lon="2.04696">
        <ele>44.5</ele>
        <time>2022-05-31T10:24:26Z</time>
      </trkpt>
      <trkpt lat="49.01496" lon="2.04702">
        <ele>44.4</ele>
        <time>2022-05-31T10:24:30Z</time>
      </trkpt>
      <trkpt lat="49.01493" lon="2.04709">
        <ele>45</ele>
        <time>2022-05-31T10:24:34Z</time>
      </trkpt>
      <trkpt lat="49.01492" lon="2.04716">
        <ele>44.9</ele>
        <time>2022-05-31T10:24:38Z</time>
      </trkpt>
      <trkpt lat="49.0149" lon="2.04723">
        <ele>44.4</ele>
        <time>2022-05-31T10:24:42Z</time>
      </trkpt>
      <trkpt lat="49.01488" lon="2.0473">
        <ele>44.4</ele>
        <time>2022-05-31T10:24:46Z</time>
      </trkpt>
      <trkpt lat="49.01485" lon="2.04737">
        <ele>43.8</ele>
        <time>2022-05-31T10:24:52Z</time>
      </trkpt>
      <trkpt lat="49.01483" lon="2.04744">
        <ele>44.6</ele>
        <time>2022-05-31T10:24:56Z</time>
      </trkpt>
      <trkpt lat="49.01482" lon="2.04752">
        <ele>44.8</ele>
        <time>2022-05-31T10:25:00Z</time>
      </trkpt>
      <trkpt lat="49.0148" lon="2.0476">
        <ele>44.2</ele>
        <time>2022-05-31T10:25:04Z</time>
      </trkpt>
      <trkpt lat="49.01477" lon="2.04768">
        <ele>46.5</ele>
        <time>2022-05-31T10:25:08Z</time>
      </trkpt>
      <trkpt lat="49.01474" lon="2.04775">
        <ele>44.8</ele>
        <time>2022-05-31T10:25:13Z</time>
      </trkpt>
      <trkpt lat="49.01473" lon="2.04782">
        <ele>44.9</ele>
        <time>2022-05-31T10:25:17Z</time>
      </trkpt>
      <trkpt lat="49.01471" lon="2.04789">
        <ele>42</ele>
        <time>2022-05-31T10:25:21Z</time>
      </trkpt>
      <trkpt lat="49.01469" lon="2.04796">
        <ele>42.2</ele>
        <time>2022-05-31T10:25:25Z</time>
      </trkpt>
      <trkpt lat="49.01467" lon="2.04803">
        <ele>40.1</ele>
        <time>2022-05-31T10:25:29Z</time>
      </trkpt>
      <trkpt lat="49.01465" lon="2.0481">
        <ele>41.1</ele>
        <time>2022-05-31T10:25:33Z</time>
      </trkpt>
      <trkpt lat="49.01462" lon="2.04816">
        <ele>39.6</ele>
        <time>2022-05-31T10:25:37Z</time>
      </trkpt>
      <trkpt lat="49.01458" lon="2.04822">
        <ele>40.4</ele>
        <time>2022-05-31T10:25:40Z</time>
      </trkpt>
      <trkpt lat="49.01455" lon="2.04828">
        <ele>39.7</ele>
        <time>2022-05-31T10:25:44Z</time>
      </trkpt>
      <trkpt lat="49.01452" lon="2.04835">
        <ele>39.4</ele>
        <time>2022-05-31T10:25:48Z</time>
      </trkpt>
      <trkpt lat="49.01449" lon="2.04841">
        <ele>40</ele>
        <time>2022-05-31T10:25:52Z</time>
      </trkpt>
      <trkpt lat="49.01447" lon="2.04847">
        <ele>39.7</ele>
        <time>2022-05-31T10:25:56Z</time>
      </trkpt>
      <trkpt lat="49.01443" lon="2.04853">
        <ele>38.9</ele>
        <time>2022-05-31T10:26:00Z</time>
      </trkpt>
      <trkpt lat="49.0144" lon="2.04859">
        <ele>37.9</ele>
        <time>2022-05-31T10:26:05Z</time>
      </trkpt>
      <trkpt lat="49.01436" lon="2.04865">
        <ele>36.5</ele>
        <time>2022-05-31T10:26:09Z</time>
      </trkpt>
      <trkpt lat="49.01433" lon="2.04869">
        <ele>35.2</ele>
        <time>2022-05-31T10:26:13Z</time>
      </trkpt>
      <trkpt lat="49.01429" lon="2.04875">
        <ele>35.2</ele>
        <time>2022-05-31T10:26:17Z</time>
      </trkpt>
      <trkpt lat="49.01424" lon="2.04875">
        <ele>35.1</ele>
        <time>2022-05-31T10:26:29Z</time>
      </trkpt>
      <trkpt lat="49.01422" lon="2.04882">
        <ele>35.2</ele>
        <time>2022-05-31T10:26:33Z</time>
      </trkpt>
      <trkpt lat="49.01419" lon="2.04889">
        <ele>34</ele>
        <time>2022-05-31T10:26:37Z</time>
      </trkpt>
      <trkpt lat="49.01416" lon="2.04894">
        <ele>34.2</ele>
        <time>2022-05-31T10:26:41Z</time>
      </trkpt>
      <trkpt lat="49.01412" lon="2.04899">
        <ele>33.7</ele>
        <time>2022-05-31T10:26:45Z</time>
      </trkpt>
      <trkpt lat="49.01409" lon="2.04905">
        <ele>36.7</ele>
        <time>2022-05-31T10:26:49Z</time>
      </trkpt>
      <trkpt lat="49.01405" lon="2.04913">
        <ele>36.7</ele>
        <time>2022-05-31T10:26:53Z</time>
      </trkpt>
      <trkpt lat="49.01402" lon="2.04919">
        <ele>35.8</ele>
        <time>2022-05-31T10:26:57Z</time>
      </trkpt>
      <trkpt lat="49.01397" lon="2.04925">
        <ele>34.9</ele>
        <time>2022-05-31T10:27:01Z</time>
      </trkpt>
      <trkpt lat="49.01393" lon="2.0493">
        <ele>34.4</ele>
        <time>2022-05-31T10:27:06Z</time>
      </trkpt>
      <trkpt lat="49.0139" lon="2.04936">
        <ele>34.5</ele>
        <time>2022-05-31T10:27:10Z</time>
      </trkpt>
      <trkpt lat="49.01387" lon="2.04941">
        <ele>34.9</ele>
        <time>2022-05-31T10:27:14Z</time>
      </trkpt>
      <trkpt lat="49.01382" lon="2.04947">
        <ele>34.4</ele>
        <time>2022-05-31T10:27:18Z</time>
      </trkpt>
      <trkpt lat="49.01379" lon="2.04954">
        <ele>33.4</ele>
        <time>2022-05-31T10:27:22Z</time>
      </trkpt>
      <trkpt lat="49.01374" lon="2.04959">
        <ele>33.3</ele>
        <time>2022-05-31T10:27:27Z</time>
      </trkpt>
      <trkpt lat="49.0137" lon="2.04963">
        <ele>32.9</ele>
        <time>2022-05-31T10:27:31Z</time>
      </trkpt>
      <trkpt lat="49.01366" lon="2.04969">
        <ele>33.2</ele>
        <time>2022-05-31T10:27:36Z</time>
      </trkpt>
      <trkpt lat="49.01363" lon="2.04975">
        <ele>33.1</ele>
        <time>2022-05-31T10:27:40Z</time>
      </trkpt>
      <trkpt lat="49.01359" lon="2.04981">
        <ele>33.5</ele>
        <time>2022-05-31T10:27:45Z</time>
      </trkpt>
      <trkpt lat="49.01354" lon="2.04987">
        <ele>33.6</ele>
        <time>2022-05-31T10:27:49Z</time>
      </trkpt>
      <trkpt lat="49.0135" lon="2.04992">
        <ele>33.4</ele>
        <time>2022-05-31T10:27:53Z</time>
      </trkpt>
      <trkpt lat="49.01346" lon="2.04999">
        <ele>33.2</ele>
        <time>2022-05-31T10:27:58Z</time>
      </trkpt>
      <trkpt lat="49.01344" lon="2.05005">
        <ele>31.8</ele>
        <time>2022-05-31T10:28:02Z</time>
      </trkpt>
      <trkpt lat="49.01341" lon="2.05011">
        <ele>33.5</ele>
        <time>2022-05-31T10:28:05Z</time>
      </trkpt>
      <trkpt lat="49.01338" lon="2.05017">
        <ele>33.4</ele>
        <time>2022-05-31T10:28:08Z</time>
      </trkpt>
      <trkpt lat="49.01335" lon="2.05022">
        <ele>34.6</ele>
        <time>2022-05-31T10:28:12Z</time>
      </trkpt>
      <trkpt lat="49.01332" lon="2.05029">
        <ele>33.3</ele>
        <time>2022-05-31T10:28:16Z</time>
      </trkpt>
      <trkpt lat="49.01329" lon="2.05035">
        <ele>34.3</ele>
        <time>2022-05-31T10:28:19Z</time>
      </trkpt>
      <trkpt lat="49.01324" lon="2.05041">
        <ele>34.7</ele>
        <time>2022-05-31T10:28:24Z</time>
      </trkpt>
      <trkpt lat="49.01321" lon="2.05045">
        <ele>34.2</ele>
        <time>2022-05-31T10:28:27Z</time>
      </trkpt>
      <trkpt lat="49.01316" lon="2.0505">
        <ele>35</ele>
        <time>2022-05-31T10:28:32Z</time>
      </trkpt>
      <trkpt lat="49.01312" lon="2.05057">
        <ele>34.4</ele>
        <time>2022-05-31T10:28:36Z</time>
      </trkpt>
      <trkpt lat="49.01309" lon="2.05062">
        <ele>33.7</ele>
        <time>2022-05-31T10:28:40Z</time>
      </trkpt>
      <trkpt lat="49.01304" lon="2.05067">
        <ele>33.7</ele>
        <time>2022-05-31T10:28:44Z</time>
      </trkpt>
      <trkpt lat="49.013" lon="2.05072">
        <ele>36.1</ele>
        <time>2022-05-31T10:28:49Z</time>
      </trkpt>
      <trkpt lat="49.01296" lon="2.05077">
        <ele>36.2</ele>
        <time>2022-05-31T10:28:53Z</time>
      </trkpt>
      <trkpt lat="49.01293" lon="2.05082">
        <ele>33.1</ele>
        <time>2022-05-31T10:28:57Z</time>
      </trkpt>
      <trkpt lat="49.01289" lon="2.05089">
        <ele>33.6</ele>
        <time>2022-05-31T10:29:01Z</time>
      </trkpt>
      <trkpt lat="49.01286" lon="2.05096">
        <ele>32.4</ele>
        <time>2022-05-31T10:29:05Z</time>
      </trkpt>
      <trkpt lat="49.01282" lon="2.05102">
        <ele>31.7</ele>
        <time>2022-05-31T10:29:09Z</time>
      </trkpt>
      <trkpt lat="49.01277" lon="2.05101">
        <ele>32.3</ele>
        <time>2022-05-31T10:29:12Z</time>
      </trkpt>
      <trkpt lat="49.01273" lon="2.05106">
        <ele>30.4</ele>
        <time>2022-05-31T10:29:16Z</time>
      </trkpt>
      <trkpt lat="49.0127" lon="2.05113">
        <ele>30.4</ele>
        <time>2022-05-31T10:29:21Z</time>
      </trkpt>
      <trkpt lat="49.01267" lon="2.05118">
        <ele>30.1</ele>
        <time>2022-05-31T10:29:25Z</time>
      </trkpt>
      <trkpt lat="49.01264" lon="2.05123">
        <ele>30.2</ele>
        <time>2022-05-31T10:29:29Z</time>
      </trkpt>
      <trkpt lat="49.01259" lon="2.05128">
        <ele>30.1</ele>
        <time>2022-05-31T10:29:34Z</time>
      </trkpt>
      <trkpt lat="49.01255" lon="2.05133">
        <ele>29.4</ele>
        <time>2022-05-31T10:29:38Z</time>
      </trkpt>
      <trkpt lat="49.01251" lon="2.05138">
        <ele>29.5</ele>
        <time>2022-05-31T10:29:43Z</time>
      </trkpt>
      <trkpt lat="49.01246" lon="2.05143">
        <ele>29.7</ele>
        <time>2022-05-31T10:29:47Z</time>
      </trkpt>
      <trkpt lat="49.01242" lon="2.05148">
        <ele>28.7</ele>
        <time>2022-05-31T10:29:52Z</time>
      </trkpt>
      <trkpt lat="49.01237" lon="2.05152">
        <ele>28.5</ele>
        <time>2022-05-31T10:29:56Z</time>
      </trkpt>
      <trkpt lat="49.01233" lon="2.05156">
        <ele>27.8</ele>
        <time>2022-05-31T10:30:01Z</time>
      </trkpt>
      <trkpt lat="49.01228" lon="2.05159">
        <ele>29.1</ele>
        <time>2022-05-31T10:30:05Z</time>
      </trkpt>
      <trkpt lat="49.01223" lon="2.05162">
        <ele>30.2</ele>
        <time>2022-05-31T10:30:09Z</time>
      </trkpt>
      <trkpt lat="49.01218" lon="2.05167">
        <ele>29.9</ele>
        <time>2022-05-31T10:30:13Z</time>
      </trkpt>
      <trkpt lat="49.01214" lon="2.0517">
        <ele>28.9</ele>
        <time>2022-05-31T10:30:18Z</time>
      </trkpt>
      <trkpt lat="49.01209" lon="2.05174">
        <ele>29.1</ele>
        <time>2022-05-31T10:30:23Z</time>
      </trkpt>
      <trkpt lat="49.01203" lon="2.05178">
        <ele>28.7</ele>
        <time>2022-05-31T10:30:27Z</time>
      </trkpt>
      <trkpt lat="49.01199" lon="2.05181">
        <ele>28.3</ele>
        <time>2022-05-31T10:30:31Z</time>
      </trkpt>
      <trkpt lat="49.01195" lon="2.05186">
        <ele>29.7</ele>
        <time>2022-05-31T10:30:35Z</time>
      </trkpt>
      <trkpt lat="49.01192" lon="2.05191">
        <ele>30.1</ele>
        <time>2022-05-31T10:30:39Z</time>
      </trkpt>
      <trkpt lat="49.01192" lon="2.052">
        <ele>29.5</ele>
        <time>2022-05-31T10:30:43Z</time>
      </trkpt>
      <trkpt lat="49.01193" lon="2.05207">
        <ele>29.6</ele>
        <time>2022-05-31T10:30:47Z</time>
      </trkpt>
      <trkpt lat="49.01195" lon="2.05214">
        <ele>30.1</ele>
        <time>2022-05-31T10:30:51Z</time>
      </trkpt>
      <trkpt lat="49.01196" lon="2.05222">
        <ele>30.9</ele>
        <time>2022-05-31T10:30:56Z</time>
      </trkpt>
      <trkpt lat="49.01198" lon="2.0523">
        <ele>31.2</ele>
        <time>2022-05-31T10:31:00Z</time>
      </trkpt>
      <trkpt lat="49.012" lon="2.05237">
        <ele>31.4</ele>
        <time>2022-05-31T10:31:03Z</time>
      </trkpt>
      <trkpt lat="49.01202" lon="2.05244">
        <ele>31.7</ele>
        <time>2022-05-31T10:31:07Z</time>
      </trkpt>
      <trkpt lat="49.01206" lon="2.05251">
        <ele>31.3</ele>
        <time>2022-05-31T10:31:12Z</time>
      </trkpt>
      <trkpt lat="49.01209" lon="2.05258">
        <ele>31</ele>
        <time>2022-05-31T10:31:16Z</time>
      </trkpt>
      <trkpt lat="49.01212" lon="2.05264">
        <ele>31</ele>
        <time>2022-05-31T10:31:20Z</time>
      </trkpt>
      <trkpt lat="49.01214" lon="2.05271">
        <ele>31.6</ele>
        <time>2022-05-31T10:31:25Z</time>
      </trkpt>
      <trkpt lat="49.01214" lon="2.05278">
        <ele>32.8</ele>
        <time>2022-05-31T10:31:29Z</time>
      </trkpt>
      <trkpt lat="49.01212" lon="2.05285">
        <ele>31.3</ele>
        <time>2022-05-31T10:31:33Z</time>
      </trkpt>
      <trkpt lat="49.01209" lon="2.05293">
        <ele>30.5</ele>
        <time>2022-05-31T10:31:37Z</time>
      </trkpt>
      <trkpt lat="49.01208" lon="2.05302">
        <ele>31.6</ele>
        <time>2022-05-31T10:31:41Z</time>
      </trkpt>
      <trkpt lat="49.01208" lon="2.05309">
        <ele>30.3</ele>
        <time>2022-05-31T10:31:46Z</time>
      </trkpt>
      <trkpt lat="49.01211" lon="2.05315">
        <ele>31.1</ele>
        <time>2022-05-31T10:31:50Z</time>
      </trkpt>
      <trkpt lat="49.01216" lon="2.05318">
        <ele>31.2</ele>
        <time>2022-05-31T10:31:54Z</time>
      </trkpt>
      <trkpt lat="49.01221" lon="2.05314">
        <ele>27.9</ele>
        <time>2022-05-31T10:31:58Z</time>
      </trkpt>
      <trkpt lat="49.01225" lon="2.05308">
        <ele>28.1</ele>
        <time>2022-05-31T10:32:02Z</time>
      </trkpt>
      <trkpt lat="49.01229" lon="2.05303">
        <ele>27.8</ele>
        <time>2022-05-31T10:32:07Z</time>
      </trkpt>
      <trkpt lat="49.01234" lon="2.053">
        <ele>28.7</ele>
        <time>2022-05-31T10:32:12Z</time>
      </trkpt>
      <trkpt lat="49.01239" lon="2.053">
        <ele>28</ele>
        <time>2022-05-31T10:32:16Z</time>
      </trkpt>
      <trkpt lat="49.01244" lon="2.05303">
        <ele>27.2</ele>
        <time>2022-05-31T10:32:20Z</time>
      </trkpt>
      <trkpt lat="49.01249" lon="2.05302">
        <ele>26.9</ele>
        <time>2022-05-31T10:32:25Z</time>
      </trkpt>
      <trkpt lat="49.01251" lon="2.05309">
        <ele>26.8</ele>
        <time>2022-05-31T10:32:29Z</time>
      </trkpt>
      <trkpt lat="49.0125" lon="2.05317">
        <ele>26.4</ele>
        <time>2022-05-31T10:32:34Z</time>
      </trkpt>
      <trkpt lat="49.01247" lon="2.05323">
        <ele>26.1</ele>
        <time>2022-05-31T10:32:40Z</time>
      </trkpt>
      <trkpt lat="49.01246" lon="2.05331">
        <ele>26.1</ele>
        <time>2022-05-31T10:32:45Z</time>
      </trkpt>
      <trkpt lat="49.01247" lon="2.05339">
        <ele>25.6</ele>
        <time>2022-05-31T10:32:49Z</time>
      </trkpt>
      <trkpt lat="49.01248" lon="2.05346">
        <ele>24.8</ele>
        <time>2022-05-31T10:32:53Z</time>
      </trkpt>
      <trkpt lat="49.01249" lon="2.05354">
        <ele>26.1</ele>
        <time>2022-05-31T10:32:57Z</time>
      </trkpt>
      <trkpt lat="49.0125" lon="2.05361">
        <ele>25.6</ele>
        <time>2022-05-31T10:33:01Z</time>
      </trkpt>
      <trkpt lat="49.01252" lon="2.05369">
        <ele>24.8</ele>
        <time>2022-05-31T10:33:06Z</time>
      </trkpt>
      <trkpt lat="49.01254" lon="2.05376">
        <ele>24.1</ele>
        <time>2022-05-31T10:33:10Z</time>
      </trkpt>
      <trkpt lat="49.01256" lon="2.05383">
        <ele>23.1</ele>
        <time>2022-05-31T10:33:14Z</time>
      </trkpt>
      <trkpt lat="49.01258" lon="2.05389">
        <ele>23.3</ele>
        <time>2022-05-31T10:33:18Z</time>
      </trkpt>
      <trkpt lat="49.0126" lon="2.05396">
        <ele>23.1</ele>
        <time>2022-05-31T10:33:22Z</time>
      </trkpt>
      <trkpt lat="49.01262" lon="2.05403">
        <ele>25.1</ele>
        <time>2022-05-31T10:33:26Z</time>
      </trkpt>
      <trkpt lat="49.01264" lon="2.05409">
        <ele>24.7</ele>
        <time>2022-05-31T10:33:31Z</time>
      </trkpt>
      <trkpt lat="49.01265" lon="2.05416">
        <ele>23.9</ele>
        <time>2022-05-31T10:33:35Z</time>
      </trkpt>
      <trkpt lat="49.01265" lon="2.05424">
        <ele>23</ele>
        <time>2022-05-31T10:33:39Z</time>
      </trkpt>
      <trkpt lat="49.01265" lon="2.05432">
        <ele>23.4</ele>
        <time>2022-05-31T10:33:42Z</time>
      </trkpt>
      <trkpt lat="49.01265" lon="2.05439">
        <ele>22.9</ele>
        <time>2022-05-31T10:33:47Z</time>
      </trkpt>
      <trkpt lat="49.01266" lon="2.05447">
        <ele>23.4</ele>
        <time>2022-05-31T10:33:50Z</time>
      </trkpt>
      <trkpt lat="49.01266" lon="2.05454">
        <ele>24</ele>
        <time>2022-05-31T10:33:54Z</time>
      </trkpt>
      <trkpt lat="49.01267" lon="2.05462">
        <ele>23.7</ele>
        <time>2022-05-31T10:33:58Z</time>
      </trkpt>
      <trkpt lat="49.01268" lon="2.05468">
        <ele>23.4</ele>
        <time>2022-05-31T10:34:02Z</time>
      </trkpt>
      <trkpt lat="49.0127" lon="2.05475">
        <ele>23.4</ele>
        <time>2022-05-31T10:34:06Z</time>
      </trkpt>
      <trkpt lat="49.01273" lon="2.05482">
        <ele>22.8</ele>
        <time>2022-05-31T10:34:10Z</time>
      </trkpt>
      <trkpt lat="49.01276" lon="2.05489">
        <ele>23.2</ele>
        <time>2022-05-31T10:34:14Z</time>
      </trkpt>
      <trkpt lat="49.0128" lon="2.05495">
        <ele>23.6</ele>
        <time>2022-05-31T10:34:18Z</time>
      </trkpt>
      <trkpt lat="49.01282" lon="2.05502">
        <ele>24</ele>
        <time>2022-05-31T10:34:22Z</time>
      </trkpt>
      <trkpt lat="49.01286" lon="2.05509">
        <ele>24.7</ele>
        <time>2022-05-31T10:34:27Z</time>
      </trkpt>
      <trkpt lat="49.01288" lon="2.05516">
        <ele>25.8</ele>
        <time>2022-05-31T10:34:31Z</time>
      </trkpt>
      <trkpt lat="49.01284" lon="2.05523">
        <ele>25.8</ele>
        <time>2022-05-31T10:34:36Z</time>
      </trkpt>
      <trkpt lat="49.01284" lon="2.05531">
        <ele>25.8</ele>
        <time>2022-05-31T10:34:40Z</time>
      </trkpt>
      <trkpt lat="49.01288" lon="2.05534">
        <ele>26.9</ele>
        <time>2022-05-31T10:34:44Z</time>
      </trkpt>
      <trkpt lat="49.01293" lon="2.05538">
        <ele>27.9</ele>
        <time>2022-05-31T10:34:48Z</time>
      </trkpt>
      <trkpt lat="49.01297" lon="2.05543">
        <ele>28</ele>
        <time>2022-05-31T10:34:53Z</time>
      </trkpt>
      <trkpt lat="49.01302" lon="2.05549">
        <ele>27.8</ele>
        <time>2022-05-31T10:34:57Z</time>
      </trkpt>
      <trkpt lat="49.01306" lon="2.05554">
        <ele>28.3</ele>
        <time>2022-05-31T10:35:02Z</time>
      </trkpt>
      <trkpt lat="49.01311" lon="2.05559">
        <ele>28.9</ele>
        <time>2022-05-31T10:35:06Z</time>
      </trkpt>
      <trkpt lat="49.01315" lon="2.05563">
        <ele>28.9</ele>
        <time>2022-05-31T10:35:10Z</time>
      </trkpt>
      <trkpt lat="49.01319" lon="2.05569">
        <ele>29.1</ele>
        <time>2022-05-31T10:35:15Z</time>
      </trkpt>
      <trkpt lat="49.01323" lon="2.05575">
        <ele>30</ele>
        <time>2022-05-31T10:35:19Z</time>
      </trkpt>
      <trkpt lat="49.01326" lon="2.05581">
        <ele>31.3</ele>
        <time>2022-05-31T10:35:23Z</time>
      </trkpt>
      <trkpt lat="49.0133" lon="2.05587">
        <ele>32.8</ele>
        <time>2022-05-31T10:35:27Z</time>
      </trkpt>
      <trkpt lat="49.01332" lon="2.05594">
        <ele>32.8</ele>
        <time>2022-05-31T10:35:31Z</time>
      </trkpt>
      <trkpt lat="49.01336" lon="2.056">
        <ele>31.6</ele>
        <time>2022-05-31T10:35:35Z</time>
      </trkpt>
      <trkpt lat="49.0134" lon="2.05605">
        <ele>31.3</ele>
        <time>2022-05-31T10:35:40Z</time>
      </trkpt>
      <trkpt lat="49.01344" lon="2.0561">
        <ele>30.4</ele>
        <time>2022-05-31T10:35:45Z</time>
      </trkpt>
      <trkpt lat="49.01348" lon="2.05616">
        <ele>30.6</ele>
        <time>2022-05-31T10:35:49Z</time>
      </trkpt>
      <trkpt lat="49.01352" lon="2.0562">
        <ele>31.1</ele>
        <time>2022-05-31T10:35:53Z</time>
      </trkpt>
      <trkpt lat="49.01355" lon="2.05624">
        <ele>30.7</ele>
        <time>2022-05-31T10:35:57Z</time>
      </trkpt>
      <trkpt lat="49.01358" lon="2.05631">
        <ele>30.1</ele>
        <time>2022-05-31T10:36:01Z</time>
      </trkpt>
      <trkpt lat="49.0136" lon="2.05638">
        <ele>30.4</ele>
        <time>2022-05-31T10:36:05Z</time>
      </trkpt>
      <trkpt lat="49.01362" lon="2.05645">
        <ele>31.8</ele>
        <time>2022-05-31T10:36:10Z</time>
      </trkpt>
      <trkpt lat="49.01367" lon="2.05651">
        <ele>32.2</ele>
        <time>2022-05-31T10:36:14Z</time>
      </trkpt>
      <trkpt lat="49.0137" lon="2.05658">
        <ele>31.9</ele>
        <time>2022-05-31T10:36:19Z</time>
      </trkpt>
      <trkpt lat="49.01374" lon="2.05665">
        <ele>31.8</ele>
        <time>2022-05-31T10:36:23Z</time>
      </trkpt>
      <trkpt lat="49.01377" lon="2.05672">
        <ele>30</ele>
        <time>2022-05-31T10:36:28Z</time>
      </trkpt>
      <trkpt lat="49.0138" lon="2.05678">
        <ele>29.4</ele>
        <time>2022-05-31T10:36:32Z</time>
      </trkpt>
      <trkpt lat="49.01383" lon="2.05685">
        <ele>28.7</ele>
        <time>2022-05-31T10:36:36Z</time>
      </trkpt>
      <trkpt lat="49.01386" lon="2.05692">
        <ele>27.7</ele>
        <time>2022-05-31T10:36:40Z</time>
      </trkpt>
      <trkpt lat="49.01389" lon="2.05698">
        <ele>28</ele>
        <time>2022-05-31T10:36:44Z</time>
      </trkpt>
      <trkpt lat="49.01392" lon="2.05704">
        <ele>28.6</ele>
        <time>2022-05-31T10:36:48Z</time>
      </trkpt>
      <trkpt lat="49.01396" lon="2.05709">
        <ele>29</ele>
        <time>2022-05-31T10:36:52Z</time>
      </trkpt>
      <trkpt lat="49.014" lon="2.05715">
        <ele>29.7</ele>
        <time>2022-05-31T10:36:55Z</time>
      </trkpt>
      <trkpt lat="49.01403" lon="2.0572">
        <ele>30.3</ele>
        <time>2022-05-31T10:36:59Z</time>
      </trkpt>
      <trkpt lat="49.01407" lon="2.05726">
        <ele>30.1</ele>
        <time>2022-05-31T10:37:04Z</time>
      </trkpt>
      <trkpt lat="49.01411" lon="2.05732">
        <ele>31</ele>
        <time>2022-05-31T10:37:08Z</time>
      </trkpt>
      <trkpt lat="49.01412" lon="2.0574">
        <ele>31.6</ele>
        <time>2022-05-31T10:37:12Z</time>
      </trkpt>
      <trkpt lat="49.01415" lon="2.05746">
        <ele>31.9</ele>
        <time>2022-05-31T10:37:16Z</time>
      </trkpt>
      <trkpt lat="49.01414" lon="2.05754">
        <ele>31.1</ele>
        <time>2022-05-31T10:37:21Z</time>
      </trkpt>
      <trkpt lat="49.0141" lon="2.05759">
        <ele>28.8</ele>
        <time>2022-05-31T10:37:24Z</time>
      </trkpt>
      <trkpt lat="49.01406" lon="2.05764">
        <ele>29.4</ele>
        <time>2022-05-31T10:37:28Z</time>
      </trkpt>
      <trkpt lat="49.01401" lon="2.05769">
        <ele>28.9</ele>
        <time>2022-05-31T10:37:32Z</time>
      </trkpt>
      <trkpt lat="49.01397" lon="2.05773">
        <ele>27.2</ele>
        <time>2022-05-31T10:37:37Z</time>
      </trkpt>
      <trkpt lat="49.01399" lon="2.05779">
        <ele>21.8</ele>
        <time>2022-05-31T10:37:46Z</time>
      </trkpt>
      <trkpt lat="49.01403" lon="2.05786">
        <ele>21.9</ele>
        <time>2022-05-31T10:37:53Z</time>
      </trkpt>
      <trkpt lat="49.01406" lon="2.05791">
        <ele>20.7</ele>
        <time>2022-05-31T10:37:58Z</time>
      </trkpt>
      <trkpt lat="49.0141" lon="2.05796">
        <ele>20.5</ele>
        <time>2022-05-31T10:38:04Z</time>
      </trkpt>
      <trkpt lat="49.01412" lon="2.05803">
        <ele>21.4</ele>
        <time>2022-05-31T10:38:09Z</time>
      </trkpt>
      <trkpt lat="49.01417" lon="2.05809">
        <ele>21.9</ele>
        <time>2022-05-31T10:38:14Z</time>
      </trkpt>
      <trkpt lat="49.0142" lon="2.05813">
        <ele>22.3</ele>
        <time>2022-05-31T10:38:18Z</time>
      </trkpt>
    </trkseg>
  </trk>
</gpx>